[[{"header":{"parameterUnit":"m.s-1","parameterCategory":1,"la1":31.0,"la2":29.5877,"lo1":-88.7671,"lo2":-86.6584,"dy":0.0162,"dx":0.0185,"nx":115,"ny":88,"refTime":"2023-09-11T12:00:00:Z","depth":0,"parameterNumber":2,"parameterNumberName":"U-component_of_WINDS"},"data":[0.0,0.0,0.0,0.0,0.0,0.0,0.0,0.0,0.0,0.0,0.0,0.0,0.0,0.0,0.0,0.0,0.0,0.0,0.0,0.0,0.0,0.0,0.0,0.0,0.0,0.0,0.0,0.0,0.0,0.0,0.0,0.0,0.0,0.0,0.0,0.0,0.0,0.0,0.0,0.0,0.0,0.0,0.0,0.0,0.0,0.0,0.0,0.0,0.0,0.0,0.0,0.0,0.0,0.0,0.0,0.0,0.0,0.0,0.0,0.0,0.0,0.0,0.0,0.0,0.0,0.0,0.0,0.0,0.0,0.0,0.0,0.0,0.0,0.0,0.0,0.0,0.0,0.0,0.0,0.0,0.0,0.0,0.0,0.0,0.0,0.0,0.0,0.0,0.0,0.0,0.0,0.0,0.0,0.0,0.0,0.0,0.0,0.0,0.0,0.0,0.0,0.0,0.0,0.0,0.0,0.0,0.0,0.0,0.0,0.0,0.0,0.0,0.0,0.0,0.0,0.0,0.0,0.0,0.0,0.0,0.0,0.0,0.0,0.0,0.0,0.0,0.0,0.0,0.0,0.0,0.0,0.0,0.0,0.0,0.0,0.0,0.0,0.0,0.0,0.0,0.0,0.0,0.0,0.0,0.0,0.0,0.0,0.0,0.0,0.0,0.0,0.0,0.0,0.0,0.0,0.0,0.0,0.0,0.0,0.0,0.0,0.0,0.0,0.0,0.0,0.0,0.0,0.0,0.0,0.0,0.0,0.0,0.0,0.0,0.0,0.0,0.0,0.0,0.0,0.0,0.0,0.0,0.0,0.0,0.0,0.0,0.0,0.0,0.0,0.0,0.0,0.0,0.0,0.0,0.0,0.0,0.0,0.0,0.0,0.0,0.0,0.0,0.0,0.0,0.0,0.0,0.0,0.0,0.0,0.0,0.0,0.0,0.0,0.0,0.0,0.0,0.0,0.0,0.0,0.0,0.0,0.0,0.0,0.0,0.0,0.0,0.0,0.0,0.0,0.0,0.0,0.0,0.0,0.0,0.0,0.0,0.0,0.0,0.0,0.0,0.0,0.0,0.0,0.0,0.0,0.0,0.0,0.0,0.0,0.0,0.0,0.0,0.0,0.0,0.0,0.0,0.0,0.0,0.0,0.0,0.0,0.0,0.0,0.0,0.0,0.0,0.0,0.0,0.0,0.0,0.0,0.0,0.0,0.0,0.0,0.0,0.0,0.0,0.0,0.0,0.0,0.0,0.0,0.0,0.0,0.0,0.0,0.0,0.0,0.0,0.0,0.0,0.0,0.0,0.0,0.0,0.0,0.0,0.0,0.0,0.0,0.0,0.0,0.0,0.0,0.0,0.0,0.0,0.0,0.0,0.0,0.0,0.0,0.0,0.0,0.0,0.0,0.0,0.0,0.0,0.0,0.0,0.0,0.0,0.0,0.0,0.0,0.0,0.0,0.0,0.0,0.0,0.0,0.0,0.0,0.0,0.0,0.0,0.0,0.0,0.0,0.0,0.0,0.0,0.0,0.0,0.0,0.0,0.0,0.0,0.0,0.0,0.0,0.0,0.0,0.0,0.0,0.0,0.0,0.0,0.0,0.0,0.0,0.0,0.0,0.0,0.0,0.0,0.0,0.0,0.0,0.0,0.0,0.0,0.0,0.0,0.0,0.0,0.0,0.0,0.0,0.0,0.0,0.0,0.0,0.0,0.0,0.0,0.0,0.0,0.0,0.0,0.0,0.0,0.0,0.0,0.0,0.0,0.0,0.0,0.0,0.0,0.0,0.0,0.0,0.0,0.0,0.0,0.0,0.0,0.0,0.0,0.0,0.0,0.0,0.0,0.0,0.0,0.0,0.0,0.0,0.0,0.0,0.0,0.0,0.0,0.0,0.0,0.0,0.0,0.0,0.0,0.0,0.0,0.0,0.0,0.0,0.0,0.0,0.0,0.0,0.0,0.0,0.0,0.0,0.0,0.0,0.0,0.0,0.0,0.0,0.0,0.0,0.0,0.0,0.0,0.0,0.0,0.0,0.0,0.0,0.0,0.0,0.0,0.0,0.0,0.0,0.0,0.0,0.0,0.0,0.0,0.0,0.0,0.0,0.0,0.0,0.0,0.0,0.0,0.0,0.0,0.0,0.0,0.0,0.0,0.0,0.0,0.0,0.0,0.0,0.0,0.0,0.0,0.0,0.0,0.0,0.0,0.0,0.0,0.0,0.0,0.0,0.0,0.0,0.0,0.0,0.0,0.0,0.0,0.0,0.0,0.0,0.0,0.0,0.0,0.0,0.0,0.0,0.0,0.0,0.0,0.0,0.0,0.0,0.0,0.0,0.0,0.0,0.0,0.0,0.0,0.0,0.0,0.0,0.0,0.0,0.0,0.0,0.0,0.0,0.0,0.0,0.0,0.0,0.0,0.0,0.0,0.0,0.0,0.0,0.0,0.0,0.0,0.0,0.0,0.0,0.0,0.0,0.0,0.0,0.0,0.0,0.0,0.0,0.0,0.0,0.0,0.0,0.0,0.0,0.0,0.0,0.0,0.0,0.0,0.0,0.0,0.0,0.0,0.0,0.0,0.0,0.0,0.0,0.0,0.0,0.0,0.0,0.0,0.0,0.0,0.0,0.0,0.0,0.0,0.0,0.0,0.0,0.0,0.0,0.0,0.0,0.0,0.0,0.0,0.0,0.0,0.0,0.0,0.0,0.0,0.0,0.0,0.0,0.0,0.0,0.0,0.0,0.0,0.0,0.0,0.0,0.0,0.0,0.0,0.0,0.0,0.0,0.0,0.0,0.0,0.0,0.0,0.0,0.0,0.0,0.0,0.0,0.0,0.0,0.0,0.0,0.0,0.0,0.0,0.0,0.0,0.0,0.0,0.0,0.0,0.0,0.0,0.0,0.0,0.0,0.0,0.0,0.0,0.0,0.0,0.0,0.0,0.0,0.0,0.0,0.0,0.0,0.0,0.0,0.0,0.0,0.0,0.0,0.0,0.0,0.0,0.0,0.0,0.0,0.0,0.0,0.0,0.0,0.0,0.0,0.0,0.0,0.0,0.0,0.0,0.0,0.0,0.0,0.0,0.0,0.0,0.0,0.0,0.0,0.0,0.0,0.0,0.0,0.0,0.0,0.0,0.0,0.0,0.0,0.0,0.0,0.0,0.0,0.0,0.0,0.0,0.0,0.0,0.0,0.0,0.0,0.0,0.0,0.0,0.0,0.0,0.0,0.0,0.0,0.0,0.0,0.0,0.0,0.0,0.0,0.0,0.0,0.0,0.0,0.0,0.0,0.0,0.0,0.0,0.0,0.0,0.0,0.0,0.0,0.0,0.0,0.0,0.0,0.0,0.0,0.0,0.0,0.0,0.0,0.0,0.0,0.0,0.0,0.0,0.0,0.0,0.0,0.0,0.0,0.0,0.0,0.0,0.0,0.0,0.0,0.0,0.0,0.0,0.0,0.0,0.0,0.0,0.0,0.0,0.0,0.0,0.0,0.0,0.0,0.0,0.0,0.0,0.0,0.0,0.0,0.0,0.0,0.0,0.0,0.0,0.0,0.0,0.0,0.0,0.0,0.0,0.0,0.0,0.0,0.0,0.0,0.0,0.0,0.0,0.0,0.0,0.0,0.0,0.0,0.0,0.0,0.0,0.0,0.0,0.0,0.0,0.0,0.0,0.0,0.0,0.0,0.0,0.0,0.0,0.0,0.0,0.0,0.0,0.0,0.0,0.0,0.0,0.0,0.0,0.0,0.0,0.0,0.0,0.0,0.0,0.0,0.0,0.0,0.0,0.0,0.0,0.0,0.0,0.0,0.0,0.0,0.0,0.0,0.0,0.0,0.0,0.0,0.0,0.0,0.0,0.0,0.0,0.0,0.0,0.0,0.0,0.0,0.0,0.0,0.0,0.0,0.0,0.0,0.0,0.0,0.0,0.0,0.0,0.0,0.0,0.0,0.0,0.0,0.0,0.0,0.0,0.0,0.0,0.0,0.0,0.0,0.0,0.0,0.0,0.0,0.0,0.0,0.0,0.0,0.0,0.0,0.0,0.0,0.0,0.0,0.0,0.0,0.0,0.0,0.0,0.0,0.0,0.0,0.0,0.0,0.0,0.0,0.0,0.0,0.0,0.0,0.0,0.0,0.0,0.0,0.0,0.0,0.0,0.0,0.0,0.0,0.0,0.0,0.0,0.0,0.0,0.0,0.0,0.0,0.0,0.0,0.0,0.0,0.0,0.0,0.0,0.0,0.0,0.0,0.0,0.0,0.0,0.0,0.0,1.5016,0.0,0.0,0.0,0.0,0.0,0.0,0.0,0.0,0.0,0.0,0.0,0.0,0.0,0.0,0.0,0.0,0.0,0.0,0.0,0.0,0.0,0.0,0.0,0.0,0.0,0.0,0.0,0.0,0.0,0.0,0.0,0.0,0.0,0.0,0.0,0.0,0.0,0.0,0.0,0.0,0.0,0.0,0.0,0.0,0.0,0.0,0.0,0.0,0.0,0.0,0.0,0.0,0.0,0.0,0.0,0.0,0.0,0.0,0.0,0.0,0.0,0.0,0.0,0.0,0.0,0.0,0.0,0.0,0.0,0.0,0.0,0.0,0.0,0.0,0.0,0.0,0.0,0.0,0.0,0.0,0.0,0.0,0.0,0.0,0.0,0.0,0.0,0.0,0.0,0.0,0.0,0.0,0.0,0.0,0.0,0.0,0.0,0.0,0.0,0.0,0.0,0.0,0.0,0.0,0.0,0.0,0.0,0.0,0.0,0.0,1.5113,1.51,1.5046,1.4989,1.4957,0.0,0.0,0.0,0.0,0.0,0.0,0.0,0.0,0.0,0.0,0.0,0.0,0.0,0.0,0.0,0.0,0.0,0.0,0.0,0.0,0.0,0.0,0.0,0.0,0.0,0.0,0.0,0.0,0.0,0.0,0.0,0.0,0.0,0.0,0.0,0.0,0.0,0.0,0.0,0.0,0.0,0.0,0.0,0.0,0.0,0.0,0.0,0.0,0.0,0.0,0.0,0.0,0.0,0.0,0.0,0.0,0.0,0.0,0.0,0.0,0.0,0.0,0.0,0.0,0.0,0.0,0.0,0.0,0.0,0.0,0.0,0.0,0.0,0.0,0.0,0.0,0.0,0.0,0.0,0.0,0.0,0.0,0.0,0.0,0.0,0.0,0.0,0.0,0.0,0.0,0.0,0.0,0.0,0.0,0.0,0.0,0.0,0.0,0.0,0.0,0.0,0.0,0.0,0.0,0.0,0.0,0.0,0.0,0.0,0.0,0.0,0.0,1.5038,1.4964,1.4877,0.0,0.0,0.0,0.0,0.0,0.0,0.0,0.0,0.0,0.0,0.0,0.0,0.0,0.0,0.0,0.0,0.0,0.0,0.0,0.0,0.0,0.0,0.0,0.0,0.0,0.0,0.0,0.0,0.0,0.0,0.0,0.0,0.0,0.0,0.0,0.0,0.0,0.0,0.0,0.0,0.0,0.0,0.0,0.0,0.0,0.0,0.0,0.0,0.0,0.0,0.0,0.0,0.0,0.0,0.0,0.0,0.0,0.0,0.0,0.0,0.0,0.0,0.0,0.0,0.0,0.0,0.0,0.0,0.0,0.0,0.0,0.0,0.0,0.0,0.0,0.0,0.0,0.0,0.0,0.0,0.0,0.0,0.0,0.0,0.0,0.0,0.0,0.0,0.0,0.0,0.0,0.0,0.0,0.0,0.0,0.0,0.0,0.0,0.0,0.0,0.0,0.0,0.0,0.0,0.0,0.0,0.0,0.0,0.0,0.0,1.5133,1.5014,1.5011,0.0,1.4823,0.0,0.0,0.0,0.0,0.0,0.0,0.0,0.0,0.0,0.0,0.0,0.0,0.0,0.0,0.0,0.0,0.0,0.0,0.0,0.0,0.0,0.0,0.0,0.0,0.0,0.0,0.0,0.0,0.0,0.0,0.0,0.0,0.0,0.0,0.0,0.0,0.0,0.0,0.0,0.0,0.0,0.0,0.0,0.0,0.0,0.0,0.0,0.0,0.0,0.0,0.0,0.0,0.0,0.0,0.0,0.0,0.0,0.0,0.0,0.0,0.0,0.0,0.0,0.0,0.0,0.0,0.0,0.0,0.0,0.0,0.0,0.0,0.0,0.0,0.0,0.0,0.0,0.0,0.0,0.0,0.0,0.0,0.0,0.0,0.0,0.0,0.0,0.0,0.0,0.0,0.0,0.0,0.0,0.0,0.0,0.0,0.0,0.0,0.0,0.0,0.0,0.0,0.0,0.0,0.0,0.0,0.0,0.0,0.0,0.0,1.4661,1.5052,1.4987,1.4905,0.0,0.0,0.0,0.0,0.0,0.0,0.0,0.0,0.0,0.0,0.0,0.0,0.0,0.0,0.0,0.0,0.0,0.0,0.0,0.0,0.0,0.0,0.0,0.0,0.0,0.0,0.0,0.0,0.0,0.0,0.0,0.0,0.0,0.0,0.0,0.0,0.0,0.0,0.0,0.0,0.0,0.0,0.0,0.0,0.0,0.0,0.0,0.0,0.0,0.0,0.0,0.0,0.0,0.0,0.0,0.0,0.0,0.0,0.0,0.0,0.0,0.0,0.0,0.0,0.0,0.0,0.0,0.0,0.0,0.0,0.0,0.0,0.0,0.0,0.0,0.0,0.0,0.0,0.0,0.0,0.0,0.0,0.0,0.0,0.0,0.0,0.0,0.0,0.0,0.0,0.0,0.0,0.0,0.0,0.0,0.0,0.0,0.0,0.0,0.0,0.0,0.0,0.0,0.0,0.0,0.0,0.0,0.0,0.0,0.0,1.4172,1.4338,1.5011,1.4936,1.4851,1.4804,0.0,0.0,0.0,0.0,0.0,0.0,0.0,0.0,0.0,0.0,0.0,0.0,0.0,0.0,0.0,0.0,0.0,0.0,0.0,0.0,0.0,0.0,0.0,0.0,0.0,0.0,0.0,0.0,0.0,0.0,0.0,0.0,0.0,0.0,0.0,0.0,0.0,0.0,0.0,0.0,0.0,0.0,0.0,0.0,0.0,0.0,0.0,0.0,0.0,0.0,0.0,0.0,0.0,0.0,0.0,0.0,0.0,0.0,0.0,0.0,0.0,0.0,0.0,0.0,0.0,0.0,0.0,0.0,0.0,0.0,0.0,0.0,0.0,0.0,0.0,0.0,0.0,0.0,0.0,0.0,0.0,0.0,0.0,0.0,0.0,0.0,0.0,0.0,0.0,0.0,0.0,0.0,0.0,0.0,0.0,0.0,0.0,0.0,0.0,0.0,0.0,0.0,0.0,0.0,0.0,0.0,0.0,0.0,1.2884,1.3587,1.4312,1.4954,1.4865,1.4794,0.0,0.0,0.0,0.0,0.0,0.0,0.0,0.0,0.0,0.0,0.0,0.0,0.0,0.0,0.0,0.0,0.0,0.0,0.0,0.0,0.0,0.0,0.0,0.0,0.0,0.0,0.0,0.0,0.0,0.0,0.0,0.0,0.0,0.0,0.0,0.0,0.0,0.0,0.0,0.0,0.0,0.0,0.0,0.0,0.0,0.0,0.0,0.0,0.0,0.0,0.0,0.0,0.0,0.0,0.0,0.0,0.0,0.0,0.0,0.0,0.0,0.0,0.0,0.0,0.0,0.0,0.0,0.0,0.0,0.0,0.0,0.0,0.0,0.0,0.0,0.0,0.0,0.0,0.0,0.0,0.0,0.0,0.0,0.0,0.0,0.0,0.0,0.0,0.0,0.0,0.0,0.0,0.0,0.0,0.0,0.0,0.0,0.0,0.0,0.0,0.0,0.0,0.0,0.0,0.0,0.0,0.0,0.0,0.0,1.2614,1.3374,1.3892,1.4211,1.4599,1.4794,0.0,0.0,0.0,0.0,0.0,0.0,0.0,0.0,0.0,0.0,0.0,0.0,0.0,0.0,0.0,0.0,0.0,0.0,0.0,0.0,0.0,0.0,0.0,0.0,0.0,0.0,0.0,0.0,0.0,0.0,0.0,0.0,0.0,0.0,0.0,0.0,0.0,0.0,0.0,0.0,0.0,0.0,0.0,0.0,0.0,0.0,0.0,0.0,0.0,0.0,0.0,0.0,0.0,0.0,0.0,0.0,0.0,0.0,0.0,0.0,0.0,0.0,0.0,0.0,0.0,0.0,0.0,0.0,0.0,0.0,0.0,0.0,0.0,0.0,0.0,0.0,0.0,0.0,0.0,0.0,0.0,0.0,0.0,0.0,0.0,0.0,0.0,0.0,0.0,0.0,0.0,0.0,0.0,0.0,0.0,0.0,0.0,0.0,0.0,0.0,0.0,0.0,0.0,0.0,0.0,0.0,0.0,0.0,0.0,1.2607,0.0,1.3603,1.4211,1.46,1.4832,0.0,0.0,0.0,0.0,0.0,0.0,0.0,0.0,0.0,0.0,0.0,0.0,0.0,0.0,0.0,0.0,0.0,0.0,0.0,0.0,0.0,0.0,0.0,0.0,0.0,0.0,0.0,0.0,0.0,0.0,0.0,0.0,0.0,0.0,0.0,0.0,0.0,0.0,0.0,0.0,0.0,0.0,0.0,0.0,0.0,0.0,0.0,0.0,0.0,0.0,0.0,0.0,0.0,0.0,0.0,0.0,0.0,0.0,0.0,0.0,0.0,0.0,0.0,0.0,0.0,0.0,0.0,0.0,0.0,0.0,0.0,0.0,0.0,0.0,0.0,0.0,0.0,0.0,0.0,0.0,0.0,0.0,0.0,0.0,0.0,0.0,0.0,0.0,0.0,0.0,0.0,0.0,0.0,0.0,0.0,0.0,0.0,0.0,0.0,0.0,0.0,0.0,0.0,0.0,0.0,0.0,0.0,0.0,1.1686,1.2675,1.2715,1.3442,1.4985,1.4932,1.486,0.0,0.0,0.0,0.0,0.0,0.0,0.0,0.0,0.0,0.0,0.0,0.0,0.0,0.0,0.0,0.0,0.0,0.0,0.0,0.0,0.0,0.0,0.0,0.0,0.0,0.0,0.0,0.0,0.0,0.0,0.0,0.0,0.0,0.0,0.0,0.0,0.0,0.0,0.0,0.0,0.0,0.0,0.0,0.0,0.0,0.0,0.0,0.0,0.0,0.0,0.0,0.0,0.0,0.0,0.0,0.0,0.0,0.0,0.0,0.0,0.0,0.0,0.0,0.0,0.0,0.0,0.0,0.0,0.0,0.0,0.0,0.0,0.0,0.0,0.0,0.0,0.0,0.0,0.0,0.0,0.0,0.0,0.0,0.0,0.0,0.0,0.0,0.0,0.0,0.0,0.0,0.0,0.0,0.0,0.0,0.0,0.0,0.0,0.0,0.0,0.0,0.0,0.0,0.0,0.0,0.0,0.0,0.0,0.0,1.0578,1.179,1.296,1.4086,1.4661,1.4923,0.0,0.0,0.0,0.0,0.0,0.0,0.0,0.0,0.0,0.0,0.0,0.0,0.0,0.0,0.0,0.0,0.0,0.0,0.0,0.0,0.0,0.0,0.0,0.0,0.0,0.0,0.0,0.0,0.0,0.0,0.0,0.0,0.0,0.0,0.0,0.0,0.0,0.0,0.0,0.0,0.0,0.0,0.0,0.0,0.0,0.0,0.0,0.0,0.0,0.0,0.0,0.0,0.0,0.0,0.0,0.0,0.0,0.0,0.0,0.0,0.0,0.0,0.0,0.0,0.0,0.0,0.0,0.0,0.0,0.0,0.0,0.0,0.0,0.0,0.0,0.0,0.0,0.0,0.0,0.0,0.0,0.0,0.0,0.0,0.0,0.0,0.0,0.0,0.0,0.0,0.0,0.0,0.0,0.0,0.0,0.0,0.0,0.0,0.0,0.0,0.0,0.0,0.0,0.0,0.0,0.0,0.0,0.0,0.0,0.9115,1.1235,1.2839,1.3831,1.4519,1.4839,1.4726,0.0,0.0,0.0,0.0,0.0,0.0,0.0,0.0,0.0,0.0,0.0,0.0,0.0,0.0,0.0,0.0,0.0,0.0,0.0,0.0,0.0,0.0,0.0,0.0,0.0,0.0,0.0,0.0,0.0,0.0,0.0,0.0,0.0,0.0,0.0,0.0,0.0,0.0,0.0,0.0,0.0,0.0,0.0,0.0,0.0,0.0,0.0,0.0,0.0,0.0,0.0,0.0,0.0,0.0,0.0,0.0,0.0,0.0,0.0,0.0,0.0,0.0,0.0,0.0,0.0,0.0,0.0,0.0,0.0,0.0,0.0,0.0,0.0,0.0,0.0,0.0,0.0,0.0,0.0,0.0,0.0,0.0,0.0,0.0,0.0,0.0,0.0,0.0,0.0,0.0,0.0,0.0,0.0,0.0,0.0,0.0,0.0,0.0,0.0,0.0,0.0,0.0,0.0,0.0,0.0,0.0,0.0,0.0,0.7919,1.0654,1.2645,1.388,1.4299,1.4547,0.0,0.0,0.0,0.0,0.0,0.0,0.0,0.0,0.0,0.0,0.0,0.0,0.0,0.0,0.0,0.0,0.0,0.0,0.0,0.0,0.0,0.0,0.0,0.0,0.0,0.0,0.0,0.0,0.0,0.0,0.0,0.0,0.0,0.0,0.0,0.0,0.0,0.0,0.0,0.0,0.0,0.0,0.0,0.0,0.0,0.0,0.0,0.0,0.0,0.0,0.0,0.0,0.0,0.0,0.0,0.0,0.0,0.0,0.0,0.0,0.0,0.0,0.0,0.0,0.0,0.0,0.0,0.0,0.0,0.0,0.0,0.0,0.0,0.0,0.0,0.0,0.0,0.0,0.0,0.0,0.0,0.0,0.0,0.0,0.0,0.0,0.0,0.0,0.0,0.0,0.0,0.0,0.0,0.0,0.0,0.0,0.0,0.0,0.0,0.0,0.0,0.0,0.0,0.0,0.0,0.0,0.0,0.0,0.0,0.4637,0.6282,0.8784,1.2036,1.2383,1.2925,0.0,0.0,0.0,0.0,0.0,0.0,0.0,0.0,0.0,0.0,0.0,0.0,0.0,0.0,0.0,0.0,0.0,0.0,0.0,0.0,0.0,0.0,0.0,0.0,0.0,0.0,0.0,0.0,0.0,0.0,0.0,0.0,0.0,0.0,0.0,0.0,0.0,0.0,0.0,0.0,0.0,0.0,0.0,0.0,0.0,0.0,0.0,0.0,0.0,0.0,0.0,0.0,0.0,0.0,0.0,0.0,0.0,0.0,0.0,0.0,0.0,0.0,0.0,0.0,0.0,0.0,0.0,0.0,0.0,0.0,0.0,0.0,0.0,0.0,0.0,0.0,0.0,0.0,0.0,0.0,0.0,0.0,0.0,0.0,0.0,0.0,0.0,0.0,0.0,0.0,0.0,0.0,0.0,0.0,0.0,0.0,0.0,0.0,0.0,0.0,0.0,0.0,0.0,0.0,0.0,0.0,0.0,0.0,0.1618,0.1076,0.2071,0.3983,0.688,0.9342,1.1321,0.0,0.0,0.0,0.0,0.0,0.0,0.0,0.0,0.0,0.0,0.0,0.0,0.0,0.0,0.0,0.0,0.0,0.0,0.0,0.0,0.0,0.0,0.0,0.0,0.0,0.0,0.0,0.0,0.0,0.0,0.0,0.0,0.0,0.0,0.0,0.0,0.0,0.0,0.0,0.0,0.0,0.0,0.0,0.0,0.0,0.0,0.0,0.0,0.0,0.0,0.0,0.0,0.0,0.0,0.0,0.0,0.0,0.0,0.0,0.0,0.0,0.0,0.0,0.0,0.0,0.0,0.0,0.0,0.0,0.0,0.0,0.0,0.0,0.0,0.0,0.0,0.0,0.0,0.0,0.0,0.0,0.0,0.0,0.0,0.0,0.0,0.0,0.0,0.0,0.0,0.0,0.0,0.0,0.0,0.0,0.0,0.0,0.0,0.0,0.0,0.0,0.0,0.0,0.0,0.0,0.0,0.0,0.0,-0.1265,-0.2354,-0.1919,-0.1057,0.037,0.5682,0.9544,0.0,0.0,0.0,0.0,0.0,0.0,0.0,0.0,0.0,0.0,0.0,0.0,0.0,0.0,0.0,0.0,0.0,0.0,0.0,0.0,0.0,0.0,0.0,0.0,0.0,0.0,0.0,0.0,0.0,0.0,0.0,0.0,0.0,0.0,0.0,0.0,0.0,0.0,0.0,0.0,0.0,0.0,0.0,0.0,0.0,0.0,0.0,0.0,0.0,0.0,0.0,0.0,0.0,0.0,0.0,0.0,0.0,0.0,0.0,0.0,0.0,0.0,0.0,0.0,0.0,0.0,0.0,0.0,0.0,0.0,0.0,0.0,0.0,0.0,0.0,0.0,0.0,0.0,0.0,0.0,0.0,0.0,0.0,0.0,0.0,0.0,0.0,0.0,0.0,0.0,0.0,0.0,0.0,0.0,0.0,0.0,0.0,0.0,0.0,0.0,0.0,0.0,0.0,0.0,0.0,0.0,0.0,0.0,-0.4015,-0.5045,-0.5243,-0.4513,-0.2697,0.2668,0.6901,0.0,0.0,0.0,0.0,0.0,0.0,0.0,0.0,0.0,0.0,0.0,0.0,0.0,0.0,0.0,0.0,0.0,0.0,0.0,0.0,0.0,0.0,0.0,0.0,0.0,0.0,0.0,0.0,0.0,0.0,0.0,0.0,0.0,0.0,0.0,0.0,0.0,0.0,0.0,0.0,0.0,0.0,0.0,0.0,0.0,0.0,0.0,0.0,-0.8906,0.0,0.0,0.0,0.0,0.0,0.0,0.0,0.0,0.0,0.0,0.0,0.0,0.0,0.0,0.0,0.0,0.0,0.0,0.0,0.0,0.0,0.0,0.0,0.0,0.0,0.0,0.0,0.0,0.0,0.0,0.0,0.0,0.0,0.0,0.0,0.0,0.0,0.0,0.0,0.0,0.0,0.0,0.0,0.0,0.0,0.0,0.0,0.0,0.0,0.0,0.0,0.0,0.0,0.0,0.0,0.0,0.0,0.0,0.0,-0.6523,-0.7998,-0.7892,-0.7222,-0.5927,-0.072,0.3989,0.0,0.0,0.0,0.0,0.0,0.0,0.0,0.0,0.0,0.0,0.0,0.0,0.0,0.0,0.0,0.0,0.0,0.0,0.0,0.0,0.0,0.0,0.0,0.0,0.0,0.0,0.0,0.0,0.0,0.0,0.0,0.0,0.0,0.0,0.0,0.0,0.0,0.0,0.0,0.0,0.0,0.0,0.0,0.0,0.0,0.0,0.0,0.0,0.0,0.0,0.0,0.0,0.0,0.0,0.0,0.0,0.0,0.0,0.0,0.0,0.0,0.0,0.0,0.0,0.0,0.0,0.0,0.0,0.0,0.0,0.0,0.0,0.0,0.0,0.0,0.0,0.0,0.0,0.0,0.0,0.0,0.0,0.0,0.0,0.0,0.0,0.0,0.0,0.0,0.0,0.0,0.0,0.0,0.0,0.0,0.0,0.0,0.0,0.0,0.0,0.0,0.0,0.0,0.0,0.0,0.0,0.0,-0.672,-0.8755,-1.0548,-0.996,-0.9406,-0.8978,-0.3699,0.1247,0.5676,0.0,0.0,0.0,0.0,0.0,0.0,0.0,0.0,0.0,0.0,0.0,0.0,0.0,0.0,0.0,0.0,0.0,0.0,0.0,0.0,0.0,0.0,0.0,0.0,0.0,0.0,0.0,0.0,0.0,0.0,0.0,0.0,0.0,0.0,0.0,0.0,0.0,0.0,-1.0612,-1.1003,0.0,0.0,0.0,0.0,0.0,0.0,0.0,0.0,-1.4135,0.0,0.0,0.0,0.0,0.0,0.0,0.0,0.0,0.0,0.0,0.0,0.0,0.0,0.0,0.0,0.0,0.0,0.0,0.0,0.0,0.0,0.0,0.0,0.0,0.0,0.0,0.0,0.0,0.0,0.0,0.0,0.0,0.0,0.0,0.0,0.0,0.0,0.0,0.0,0.0,0.0,0.0,0.0,0.0,0.0,0.0,0.0,0.0,0.0,0.0,0.0,0.0,0.0,0.0,0.0,0.0,-0.6438,-0.8615,-1.0289,-1.1482,-1.1464,-1.1016,-0.9949,-0.4772,-0.0425,0.2882,0.0,0.0,0.0,0.0,0.0,0.0,0.0,0.0,0.0,0.0,0.0,0.0,0.0,0.0,0.0,0.0,0.0,0.0,0.0,0.0,0.0,0.0,0.0,0.0,0.0,0.0,0.0,0.0,0.0,0.0,0.0,0.0,0.0,0.0,0.0,0.0,0.0,0.0,0.0,-1.316,-1.3194,0.0,0.0,0.0,0.0,0.0,0.0,0.0,0.0,-1.6252,0.0,0.0,0.0,0.0,0.0,0.0,0.0,0.0,0.0,0.0,0.0,0.0,0.0,0.0,0.0,0.0,0.0,0.0,0.0,0.0,0.0,0.0,0.0,0.0,0.0,0.0,0.0,0.0,0.0,0.0,0.0,0.0,0.0,0.0,0.0,0.0,0.0,0.0,0.0,0.0,0.0,0.0,0.0,0.0,0.0,0.0,0.0,0.0,0.0,0.0,0.0,0.0,0.0,0.0,0.0,-0.7547,-0.9728,-1.1272,-1.208,-1.2287,-1.1915,-1.0879,-0.5989,-0.1746,0.0,0.0,0.0,0.0,0.0,0.0,0.0,0.0,0.0,0.0,0.0,0.0,0.0,0.0,0.0,0.0,0.0,0.0,0.0,0.0,0.0,0.0,0.0,0.0,0.0,0.0,0.0,0.0,0.0,0.0,0.0,0.0,0.0,0.0,0.0,0.0,0.0,0.0,0.0,0.0,-1.649,-1.6685,-1.6958,0.0,0.0,0.0,0.0,0.0,0.0,-1.8133,-1.7862,0.0,0.0,0.0,0.0,0.0,0.0,0.0,0.0,0.0,0.0,0.0,0.0,0.0,0.0,0.0,0.0,0.0,0.0,0.0,0.0,0.0,0.0,0.0,0.0,0.0,0.0,0.0,0.0,0.0,0.0,0.0,0.0,0.0,0.0,0.0,0.0,0.0,0.0,0.0,0.0,0.0,0.0,0.0,0.0,0.0,0.0,0.0,0.0,0.0,0.0,0.0,0.0,0.0,0.0,0.0,-0.8298,-1.0441,-1.1896,-1.2489,-1.2718,-1.2496,-1.1629,-0.717,-0.3025,0.0,0.0,0.0,0.0,0.0,0.0,0.0,0.0,0.0,0.0,0.0,0.0,0.0,0.0,0.0,0.0,0.0,0.0,0.0,0.0,0.0,0.0,0.0,0.0,0.0,0.0,0.0,0.0,0.0,0.0,0.0,0.0,0.0,0.0,0.0,0.0,0.0,0.0,0.0,0.0,0.0,-1.979,-1.9723,-1.9398,0.0,0.0,0.0,0.0,-1.9976,-1.9569,0.0,0.0,0.0,0.0,0.0,0.0,0.0,0.0,0.0,0.0,0.0,0.0,0.0,0.0,0.0,0.0,0.0,0.0,0.0,0.0,0.0,0.0,0.0,0.0,0.0,0.0,0.0,0.0,0.0,0.0,0.0,0.0,0.0,0.0,0.0,0.0,0.0,0.0,0.0,0.0,0.0,0.0,0.0,0.0,0.0,0.0,0.0,0.0,0.0,0.0,0.0,0.0,0.0,0.0,0.0,0.0,-0.8849,-1.0804,-1.2035,-1.2515,-1.2915,-1.2915,-1.2356,-0.8212,-0.4405,0.0,0.0,0.0,0.0,0.0,0.0,0.0,0.0,0.0,0.0,0.0,0.0,0.0,0.0,0.0,0.0,0.0,0.0,0.0,0.0,0.0,0.0,0.0,0.0,0.0,0.0,0.0,0.0,0.0,0.0,0.0,0.0,0.0,0.0,0.0,0.0,0.0,0.0,0.0,0.0,0.0,-2.0637,-2.1092,-2.0725,-2.0438,0.0,0.0,-2.1374,-2.1393,-2.1637,0.0,0.0,0.0,0.0,0.0,0.0,0.0,0.0,0.0,0.0,0.0,0.0,0.0,0.0,0.0,0.0,0.0,0.0,0.0,0.0,0.0,0.0,0.0,0.0,0.0,0.0,0.0,0.0,0.0,0.0,0.0,0.0,0.0,0.0,0.0,0.0,0.0,0.0,0.0,0.0,0.0,0.0,0.0,0.0,0.0,0.0,0.0,0.0,0.0,0.0,0.0,0.0,0.0,0.0,0.0,-0.8668,-0.9602,-1.1378,-1.2489,-1.2819,-1.3315,-1.3286,-1.2687,-0.9442,-0.6144,0.0,0.0,0.0,0.0,0.0,0.0,0.0,0.0,0.0,0.0,0.0,0.0,0.0,0.0,0.0,0.0,0.0,0.0,0.0,0.0,0.0,0.0,0.0,0.0,0.0,0.0,0.0,0.0,0.0,0.0,0.0,0.0,0.0,0.0,0.0,0.0,0.0,0.0,0.0,0.0,0.0,0.0,-2.2583,-2.2425,0.0,0.0,0.0,-2.2224,-2.1767,0.0,0.0,0.0,0.0,0.0,0.0,0.0,0.0,0.0,0.0,0.0,0.0,0.0,0.0,0.0,0.0,0.0,0.0,0.0,0.0,0.0,0.0,0.0,0.0,0.0,0.0,0.0,0.0,0.0,0.0,0.0,0.0,0.0,0.0,0.0,0.0,0.0,0.0,0.0,0.0,0.0,0.0,0.0,0.0,0.0,0.0,0.0,0.0,0.0,0.0,0.0,0.0,0.0,0.0,0.0,0.0,0.0,-1.0246,-1.1837,-1.2823,-1.3157,-1.3631,-1.3543,-1.2903,-1.0454,0.0,0.0,0.0,0.0,0.0,0.0,0.0,0.0,0.0,0.0,0.0,0.0,0.0,0.0,0.0,0.0,0.0,0.0,0.0,0.0,0.0,0.0,0.0,0.0,0.0,0.0,0.0,-1.7782,0.0,0.0,0.0,0.0,0.0,0.0,0.0,0.0,0.0,0.0,0.0,0.0,0.0,0.0,-2.4208,-2.4042,-2.399,-2.3886,0.0,0.0,-2.29,-2.2247,-2.274,-2.2948,0.0,0.0,0.0,0.0,0.0,0.0,0.0,0.0,0.0,0.0,0.0,0.0,0.0,0.0,0.0,0.0,0.0,0.0,0.0,0.0,0.0,0.0,0.0,0.0,0.0,0.0,0.0,0.0,0.0,0.0,0.0,0.0,0.0,0.0,0.0,0.0,0.0,0.0,0.0,0.0,0.0,0.0,0.0,0.0,0.0,0.0,0.0,0.0,0.0,0.0,0.0,0.0,0.0,0.0,-1.02,-1.0591,-1.2081,-1.3011,-1.3302,-1.3729,-1.3734,-1.3163,-1.1245,-0.8913,0.0,0.0,0.0,0.0,0.0,0.0,0.0,0.0,0.0,0.0,0.0,0.0,0.0,0.0,0.0,0.0,0.0,0.0,0.0,0.0,0.0,0.0,0.0,0.0,0.0,0.0,0.0,0.0,0.0,0.0,0.0,0.0,0.0,0.0,0.0,0.0,0.0,0.0,0.0,0.0,0.0,-2.4928,-2.5408,-2.5213,-2.4771,0.0,-2.4075,-2.381,-2.3181,-2.3349,-2.3356,-2.2723,0.0,0.0,0.0,0.0,0.0,0.0,0.0,0.0,0.0,0.0,0.0,0.0,0.0,0.0,0.0,0.0,0.0,0.0,0.0,0.0,0.0,0.0,0.0,0.0,0.0,0.0,0.0,0.0,0.0,0.0,0.0,0.0,0.0,0.0,0.0,0.0,0.0,0.0,0.0,0.0,0.0,0.0,0.0,0.0,0.0,0.0,0.0,0.0,0.0,0.0,0.0,0.0,0.0,-1.0865,-1.1356,-1.2421,-1.3173,-1.3568,-1.3784,-1.3679,-1.3196,-1.1909,-1.0626,0.0,0.0,0.0,0.0,0.0,0.0,0.0,0.0,0.0,0.0,0.0,0.0,0.0,0.0,0.0,0.0,0.0,0.0,0.0,0.0,0.0,0.0,0.0,0.0,0.0,0.0,0.0,0.0,-1.9938,-2.0543,-2.2024,0.0,0.0,0.0,0.0,0.0,0.0,0.0,0.0,0.0,0.0,-2.4983,-2.5244,-2.5078,0.0,0.0,-2.414,-2.3851,-2.3243,-2.3406,-2.3359,-2.2671,-2.2583,0.0,0.0,0.0,0.0,0.0,0.0,0.0,0.0,0.0,0.0,0.0,0.0,0.0,0.0,0.0,0.0,0.0,0.0,0.0,0.0,0.0,0.0,0.0,0.0,0.0,0.0,0.0,0.0,0.0,0.0,0.0,0.0,0.0,0.0,0.0,0.0,0.0,0.0,0.0,0.0,0.0,0.0,0.0,0.0,0.0,0.0,0.0,0.0,0.0,0.0,0.0,0.0,-1.1278,-1.1831,-1.2875,-1.3583,-1.4058,-1.4162,-1.4035,-1.3615,-1.2852,-1.2158,0.0,0.0,0.0,0.0,0.0,0.0,0.0,0.0,0.0,0.0,0.0,0.0,0.0,0.0,0.0,0.0,0.0,0.0,0.0,0.0,0.0,0.0,0.0,0.0,0.0,0.0,0.0,0.0,-2.1188,-2.2007,-2.3509,0.0,0.0,0.0,0.0,0.0,0.0,0.0,0.0,0.0,0.0,-2.5226,-2.5622,-2.5279,-2.497,-2.4922,-2.4418,-2.3903,-2.3545,-2.3446,-2.3187,-2.2629,0.0,0.0,0.0,0.0,0.0,0.0,0.0,0.0,0.0,0.0,0.0,0.0,0.0,0.0,0.0,0.0,0.0,0.0,0.0,0.0,0.0,0.0,0.0,0.0,0.0,0.0,0.0,0.0,0.0,0.0,-0.077,0.0,0.0,0.0,0.0,0.0,0.0,0.0,0.0,0.0,0.0,0.0,0.0,0.0,0.0,0.0,0.0,0.0,0.0,0.0,0.0,0.0,0.0,-1.1374,-1.1917,-1.3463,-1.4407,-1.4657,-1.5005,-1.4945,-1.4558,-1.4165,-1.3434,-1.2278,0.0,0.0,0.0,0.0,0.0,0.0,0.0,0.0,0.0,0.0,0.0,0.0,0.0,0.0,0.0,0.0,0.0,0.0,0.0,0.0,0.0,0.0,0.0,0.0,0.0,0.0,-2.396,-2.4565,-2.4732,0.0,0.0,0.0,0.0,0.0,0.0,0.0,0.0,0.0,0.0,-2.5717,-2.5847,-2.6747,-2.6037,-2.5489,-2.6011,-2.4971,-2.4158,-2.43,-2.3584,-2.2911,0.0,0.0,0.0,0.0,0.0,0.0,0.0,0.0,0.0,0.0,0.0,0.0,0.0,0.0,0.0,0.0,0.0,0.0,0.0,0.0,0.0,0.0,0.0,0.0,0.0,0.0,0.0,-0.6757,-0.5219,0.0,0.0,0.0,0.0,0.0,0.0,0.0,0.0,0.0,0.0,0.0,-0.8972,-0.9397,0.0,0.0,0.0,0.0,0.0,0.0,0.0,0.0,0.0,0.0,0.0,0.0,-1.1927,-1.2235,-1.3893,-1.4843,-1.5021,-1.5024,-1.4887,-1.4609,-1.4364,-1.3702,-1.2465,0.0,0.0,0.0,0.0,0.0,0.0,0.0,0.0,0.0,0.0,0.0,0.0,0.0,0.0,0.0,0.0,0.0,0.0,0.0,0.0,0.0,0.0,0.0,0.0,0.0,-2.2782,0.0,0.0,0.0,0.0,0.0,0.0,0.0,0.0,0.0,0.0,0.0,-2.5641,-2.5487,-2.5561,-2.5588,-2.548,-2.5051,-2.4745,0.0,0.0,0.0,0.0,0.0,0.0,0.0,0.0,0.0,0.0,0.0,0.0,0.0,0.0,-2.5311,-2.5925,-2.5986,-2.5888,-2.5558,0.0,0.0,0.0,0.0,0.0,0.0,0.0,0.0,0.0,0.0,0.0,0.0,0.0,0.0,-0.8877,0.0,-0.6049,0.0,0.0,0.0,0.0,0.0,0.0,0.0,0.0,-0.9853,-1.079,-1.1355,-1.1612,-1.1817,0.0,-1.1713,-1.0248,0.0,0.0,0.0,0.0,0.0,0.0,0.0,0.0,-1.2003,-1.22,-1.4209,-1.5345,-1.5447,-1.5454,-1.5365,-1.5083,-1.4825,-1.414,-1.309,-1.2327,-1.1568,0.0,0.0,0.0,0.0,0.0,0.0,0.0,0.0,0.0,0.0,0.0,0.0,0.0,0.0,0.0,0.0,0.0,0.0,0.0,0.0,0.0,0.0,0.0,-2.3345,0.0,0.0,0.0,0.0,0.0,0.0,0.0,0.0,0.0,-2.5749,-2.5955,-2.5933,-2.5216,-2.5591,-2.5673,-2.5011,0.0,0.0,0.0,0.0,0.0,0.0,0.0,-2.2287,-2.2068,-2.2102,-2.2483,-2.3421,-2.4137,-2.4641,-2.4573,0.0,0.0,-2.5192,-2.4973,-2.4544,-2.4254,-2.4209,-2.4192,-2.4215,-2.4135,-2.3989,0.0,0.0,0.0,0.0,0.0,0.0,0.0,0.0,-1.1873,-1.0302,0.0,-0.9294,0.0,0.0,0.0,0.0,0.0,-0.9024,0.0,0.0,-1.442,-1.5319,-1.3611,-1.3491,-1.3659,-1.3937,-1.2109,-1.1334,-1.1557,-1.1798,0.0,0.0,0.0,0.0,0.0,0.0,-1.1632,-1.2001,-1.4544,-1.5935,-1.5946,-1.6192,-1.6197,-1.5899,-1.5425,-1.4892,-1.4223,-1.388,-1.3404,-1.2742,-1.1969,0.0,0.0,0.0,0.0,0.0,0.0,0.0,0.0,0.0,0.0,0.0,0.0,0.0,0.0,0.0,0.0,0.0,0.0,0.0,0.0,-2.3314,0.0,0.0,0.0,0.0,0.0,0.0,0.0,0.0,0.0,0.0,-2.6423,-2.6334,-2.6053,-2.5118,0.0,0.0,0.0,0.0,-2.4084,-2.4957,-2.3562,-2.263,-2.334,-2.2407,-2.1637,-2.1678,0.0,0.0,-2.2742,-2.2989,-2.3082,-2.2943,-2.2447,-2.2546,-2.4059,-2.3894,-2.3591,-2.3572,-2.3515,-2.3613,-2.3587,-2.3283,-2.3236,-1.8673,0.0,0.0,0.0,0.0,-1.396,-1.3794,-1.427,-1.3957,-1.3035,-1.1723,-1.2047,0.0,0.0,0.0,0.0,0.0,0.0,-1.1434,-1.2976,-1.3928,-1.4752,-1.5547,-1.5547,-1.5608,-1.5658,-1.5193,-1.4998,-1.5105,-1.5253,-1.3102,-0.8713,0.0,0.0,0.0,0.0,-1.2363,-1.3539,-1.5396,-1.6341,-1.6239,-1.6177,-1.6077,-1.5788,-1.5386,-1.504,-1.4805,-1.4431,-1.3927,-1.3149,-1.2882,0.0,0.0,0.0,0.0,0.0,0.0,0.0,0.0,0.0,0.0,0.0,0.0,0.0,0.0,0.0,0.0,0.0,0.0,0.0,-2.3219,-2.2998,-2.3891,0.0,0.0,0.0,0.0,0.0,0.0,0.0,0.0,0.0,-2.6583,-2.6851,-2.65,0.0,0.0,-2.5203,-2.4173,-2.3624,-2.3405,-2.3465,-2.2752,0.0,-2.2403,-2.185,-2.1348,-2.1146,-2.1141,-2.1193,-2.1171,-2.1378,-2.147,-2.1313,-2.074,-2.0483,-2.0881,-2.1177,-2.1179,-2.0897,-2.0868,-2.0945,-2.1055,-2.113,-2.1157,-1.9325,-1.8646,-1.7145,-1.6426,-1.6158,-1.5181,-1.5169,-1.5838,-1.5618,-1.476,-1.3607,-1.4178,-1.2992,-1.0461,-1.0413,0.0,0.0,0.0,-1.2997,-1.4889,-1.4743,-1.5278,-1.6343,-1.6368,-1.6368,-1.6436,-1.6483,-1.6534,-1.6513,-1.5779,-1.3885,-1.0871,0.0,0.0,-1.0117,-1.1858,-1.3202,-1.4192,-1.5727,-1.6472,-1.6249,-1.6072,-1.5836,-1.5677,-1.5391,-1.5152,-1.4975,-1.472,-1.4312,-1.3739,-1.3401,-1.3097,0.0,0.0,0.0,0.0,0.0,0.0,0.0,0.0,0.0,0.0,0.0,-1.8329,-2.0312,0.0,0.0,0.0,-2.1608,-2.2342,-2.2999,-2.3583,0.0,0.0,0.0,0.0,0.0,0.0,0.0,-2.821,-2.7199,-2.6219,-2.5692,-2.5889,-2.5589,-2.4231,-2.4534,-2.4413,-2.32,0.0,-2.2713,-2.2373,-2.2017,-2.1716,-2.1536,-2.1189,-2.0772,-2.0335,-2.0182,-2.0016,-1.9806,-1.9852,-1.9807,-1.9622,-1.923,-1.8951,-1.8934,-1.9116,-1.9281,-1.9202,-1.9257,-1.9337,-1.943,-1.9488,-1.9558,-1.9823,-1.9193,-1.7265,-1.6787,-1.723,-1.6472,-1.6415,-1.6944,-1.6858,-1.5806,-1.4268,-1.57,-1.4616,-1.1619,-1.1514,0.0,-1.3471,-1.3793,-1.4799,-1.6368,-1.6368,-1.6368,-1.6368,-1.6368,-1.6368,-1.6368,-1.6368,-1.6368,-1.6317,-1.452,-1.3677,-1.4008,-1.4079,-1.3278,-1.1773,-1.305,-1.3882,-1.41,-1.5498,-1.6182,-1.6056,-1.5841,-1.5677,-1.5682,-1.5391,-1.5161,-1.4975,-1.4779,-1.4606,-1.4304,-1.3734,-1.3478,-1.3697,0.0,0.0,0.0,0.0,0.0,0.0,0.0,0.0,0.0,0.0,0.0,0.0,0.0,0.0,0.0,-2.1494,0.0,-2.2029,-2.4428,0.0,0.0,0.0,-2.7004,-2.5843,-2.5627,-2.5635,-2.5692,0.0,0.0,-2.4123,-2.3979,-2.3734,-2.3057,-2.3591,-2.36,-2.2417,-2.2231,-2.2032,-2.1625,-2.132,-2.108,-2.0772,-2.04,-1.995,-1.9445,-1.9099,-1.8869,-1.8649,-1.841,-1.8199,-1.8147,-1.7975,-1.7848,-1.7852,-1.7805,-1.7822,-1.8336,-1.8524,-1.8554,-1.8614,-1.8608,-1.8608,-1.9303,-1.875,-1.8014,-1.7737,-1.7716,-1.7186,-1.6944,-1.6858,-1.6694,-1.6342,-1.5828,-1.6218,-1.5951,-1.519,-1.5134,-1.53,-1.5675,-1.5736,-1.5982,-1.6368,-1.6368,-1.6368,-1.6368,-1.6368,-1.6368,-1.6368,-1.6368,-1.6368,-1.6363,-1.5925,-1.5064,-1.4027,-1.3623,-1.2871,-1.1829,-1.1991,-1.2759,-1.4157,-1.4321,-1.4867,-1.5753,-1.574,-1.5556,-1.5323,-1.5215,-1.5093,-1.4775,-1.472,-1.4606,-1.4451,-1.4327,-1.4128,-1.4026,-1.4255,0.0,0.0,0.0,0.0,0.0,0.0,0.0,0.0,0.0,-1.9634,-2.1116,0.0,-2.1115,0.0,-2.1112,-2.0797,-2.121,-2.2049,0.0,0.0,-2.5113,-2.5379,-2.5045,-2.4279,-2.4079,-2.4872,-2.4193,-2.3469,-2.3029,-2.294,-2.2477,-2.1251,-2.1962,-2.2402,-2.1881,-2.1584,-2.1312,-2.1054,-2.0647,-2.0252,-2.0038,-1.9535,-1.9054,-1.8637,-1.8333,-1.8116,-1.8061,-1.786,-1.7689,-1.7639,-1.7407,-1.7252,-1.7214,-1.7119,-1.7083,-1.7262,-1.7695,-1.8067,-1.8067,-1.8127,-1.8193,-1.894,-1.8446,-1.8024,-1.7755,-1.7584,-1.739,-1.7105,-1.6812,-1.6637,-1.6529,-1.6368,-1.6368,-1.6368,-1.6368,-1.6368,-1.6368,-1.6368,-1.6368,-1.6368,-1.6368,-1.6368,-1.6368,-1.6368,-1.6368,-1.6368,-1.6368,-1.6368,-1.6368,-1.6368,-1.6368,-1.593,-1.5094,-1.478,-1.4054,-1.2844,-1.172,-1.1766,-1.2983,-1.3484,-1.4376,-1.5633,-1.5561,-1.5235,-1.4749,-1.4633,-1.4158,-1.3456,-1.3675,-1.3631,-1.3243,-1.3636,-1.3859,-1.3788,-1.4322,-1.4683,0.0,0.0,0.0,0.0,0.0,0.0,0.0,0.0,0.0,0.0,0.0,-2.0596,-2.1624,-2.0995,-2.0848,-2.1532,-2.2114,-2.2688,-2.3277,-2.3491,-2.3372,-2.2798,-2.2162,-2.1967,-2.2529,-2.1983,-2.1514,-2.1299,-2.1252,-2.0899,-1.9927,-2.0328,-2.074,-2.0802,-2.0623,-2.0388,-2.0195,-1.9831,-1.9451,-1.9199,-1.8709,-1.8311,-1.8052,-1.7805,-1.7579,-1.7512,-1.7362,-1.72,-1.72,-1.7022,-1.6888,-1.6901,-1.6877,-1.6818,-1.6818,-1.7088,-1.7351,-1.7412,-1.7479,-1.7529,-1.8602,-1.817,-1.7689,-1.7368,-1.7222,-1.7211,-1.7049,-1.6756,-1.6637,-1.6524,-1.6368,-1.6368,-1.6368,-1.6368,-1.6368,-1.6368,-1.6368,-1.6368,-1.6368,-1.6368,-1.6368,-1.6368,-1.6368,-1.6368,-1.6368,-1.6368,-1.6368,-1.6368,-1.6368,-1.6368,-1.6322,-1.6084,-1.6023,-1.5275,-1.382,-1.1738,-1.0946,-1.1444,-1.2924,-1.4217,-1.5302,-1.4931,-1.4434,-1.3844,-1.3589,-1.3026,-1.1989,-1.2386,-1.2357,-1.1811,-1.2545,-1.3154,-1.3346,-1.3936,-1.4482,0.0,-1.555,0.0,0.0,0.0,0.0,0.0,0.0,0.0,0.0,-1.9267,-1.9947,-2.0641,-2.0888,-2.1222,-2.1809,-2.2563,-2.2566,-2.1566,-2.1538,-2.1203,-2.0149,-1.9907,-1.9837,-1.9837,-1.9741,-1.9598,-1.9488,-1.9454,-1.9297,-1.8981,-1.8915,-1.9114,-1.9445,-1.9478,-1.938,-1.9133,-1.8969,-1.8673,-1.8267,-1.7961,-1.7746,-1.7573,-1.7379,-1.7155,-1.7011,-1.6858,-1.6751,-1.6751,-1.6756,-1.6767,-1.6742,-1.6715,-1.671,-1.6731,-1.6772,-1.6812,-1.6869,-1.6864,-1.6756,-1.8116,-1.7634,-1.7434,-1.7161,-1.6869,-1.6812,-1.6694,-1.6632,-1.6483,-1.6431,-1.6368,-1.6368,-1.6368,-1.6368,-1.6368,-1.6368,-1.6368,-1.6368,-1.6368,-1.6368,-1.6368,-1.6368,-1.6368,-1.6368,-1.6368,-1.6368,-1.6368,-1.6368,-1.6368,-1.6368,-1.5762,-1.4474,-1.3994,-1.319,-1.1934,0.0,0.0,0.0,-1.2709,-1.3582,-1.3502,-1.2765,-1.2139,-1.1689,-1.2151,0.0,-1.2121,-1.2253,-1.2372,-1.2363,-1.2589,0.0,0.0,0.0,0.0,0.0,0.0,0.0,0.0,0.0,0.0,0.0,-1.8713,-1.8992,-1.9253,-2.0336,-2.0592,-1.9631,-2.0134,-2.0093,-1.8996,-1.9154,-1.9234,-1.9022,-1.9138,-1.9129,-1.8922,-1.8869,-1.8869,-1.8875,-1.8869,-1.8768,-1.8596,-1.8542,-1.85,-1.829,-1.8182,-1.8121,-1.8127,-1.8387,-1.8542,-1.8435,-1.8172,-1.7841,-1.7534,-1.7316,-1.7175,-1.6992,-1.692,-1.6869,-1.6807,-1.6745,-1.6637,-1.6637,-1.6529,-1.6488,-1.6503,-1.6493,-1.6488,-1.6498,-1.6488,-1.6545,-1.6756,-1.6756,-1.6756,-1.7628,0.0,-1.6992,-1.6772,0.0,-1.641,-1.6343,-1.6348,-1.6368,-1.6368,-1.6368,-1.6368,-1.6368,-1.6368,-1.6368,-1.6368,-1.6368,-1.6368,-1.6368,-1.6368,-1.6368,-1.6368,-1.6368,-1.6368,-1.6368,-1.6368,-1.6368,-1.6368,-1.6368,-1.6368,-1.5961,-1.5159,-1.4914,-1.4478,-1.3878,-1.3532,-1.2953,-1.2135,-1.3078,-1.3763,-1.4148,-1.3705,-1.3115,-1.2555,-1.2785,0.0,0.0,0.0,0.0,0.0,0.0,0.0,0.0,-1.4385,0.0,-1.5595,-1.6339,-1.6746,-1.6921,-1.7223,-1.7479,-1.75,-1.7766,-1.8216,-1.8903,-1.9331,-1.9285,-1.8521,-1.8836,-1.8764,-1.8001,-1.7975,-1.8024,-1.8121,-1.8176,-1.829,-1.8344,-1.8284,-1.8242,-1.8133,-1.8139,-1.7963,-1.7788,-1.7793,-1.7678,-1.7573,-1.7512,-1.7407,-1.7312,-1.7639,-1.7848,-1.7661,-1.7528,-1.7297,-1.7078,-1.699,-1.6887,-1.6721,-1.6694,-1.6637,-1.6602,-1.6529,-1.6477,-1.6477,-1.6431,-1.6368,-1.6368,-1.6368,-1.6368,-1.6368,-1.6368,-1.6436,-1.6602,-1.6596,-1.6596,-1.7184,-1.6842,-1.6467,-1.6322,-1.6322,-1.6129,-1.6061,-1.6119,0.0,0.0,0.0,-1.6368,-1.6368,-1.6368,-1.6368,-1.6368,-1.6368,-1.6368,-1.6368,-1.6368,-1.6368,-1.6368,-1.6368,-1.6368,-1.6368,-1.6368,-1.6368,-1.6368,-1.6368,-1.6368,-1.6368,-1.6368,-1.6368,-1.6368,-1.6379,-1.6181,-1.5399,-1.3979,-1.365,-1.4019,-1.4917,-1.4716,-1.424,-1.3512,-1.3514,-1.2943,-1.1828,-1.2386,-1.2525,-1.2104,-1.2824,-1.3423,-1.3801,-1.4448,-1.5079,-1.5684,-1.6131,-1.6395,-1.6499,-1.6741,-1.6809,-1.6601,-1.6839,-1.734,-1.8136,-1.7823,-1.7551,-1.7545,-1.754,-1.7545,-1.754,-1.7545,-1.7595,-1.7689,-1.7683,-1.7744,-1.786,-1.7805,-1.7639,-1.7545,-1.7423,-1.7307,-1.719,-1.7134,-1.7072,-1.7022,-1.7022,-1.6904,-1.6864,-1.7145,-1.7301,-1.7067,-1.6986,-1.6903,-1.6786,-1.6752,-1.667,-1.6596,-1.6586,-1.6529,-1.6426,-1.6368,-1.6368,-1.6426,-1.6368,-1.6368,-1.6368,-1.6368,-1.6368,-1.6368,-1.6368,-1.6368,-1.6368,-1.6368,-1.6426,-1.6627,-1.6223,-1.6171,-1.6072,-1.5982,-1.5914,-1.6014,-1.6119,-1.6306,-1.6374,-1.6368,-1.6368,-1.6368,-1.6368,-1.6368,-1.6368,-1.6368,-1.6368,-1.6368,-1.6368,-1.6368,-1.6368,-1.6368,-1.6368,-1.6368,-1.6368,-1.6368,-1.6368,-1.6368,-1.6368,-1.6368,-1.6368,-1.6368,-1.6368,-1.6374,-1.6186,-1.5995,-1.5672,-1.4313,-1.3513,-1.3332,-1.2572,-1.2008,-1.1701,-1.2248,-1.247,-1.2358,-1.2571,-1.2736,-1.2787,-1.3023,-1.3484,-1.4096,-1.4348,-1.4853,-1.562,-1.5878,-1.6023,-1.6177,-1.6373,-1.6518,-1.657,-1.6756,-1.6888,-1.7025,-1.7067,-1.7076,-1.6925,-1.692,-1.6925,-1.6931,-1.6925,-1.6976,-1.6976,-1.6976,-1.6976,-1.7038,-1.6982,-1.6982,-1.6987,-1.692,-1.6925,-1.6869,-1.6864,-1.6864,-1.6807,-1.6745,-1.6751,-1.6694,-1.6807,-1.6864,-1.6807,-1.6708,-1.6641,-1.6627,-1.6545,-1.6452,-1.6436,-1.6426,-1.6431,-1.6379,-1.6374,-1.6374,-1.6379,-1.6374,-1.6374,-1.6368,-1.6368,-1.6374,-1.6374,-1.6368,-1.6368,-1.6368,-1.6368,-1.6368,-1.6004,-1.57,-1.5657,-1.5561,-1.5503,-1.5604,-1.5778,-1.6019,-1.6082,-1.6207,-1.6374,-1.6368,-1.6368,-1.6368,-1.6368,-1.6368,-1.6368,-1.6368,-1.6368,-1.6368,-1.6368,-1.6368,-1.6368,-1.6368,-1.6368,-1.6368,-1.6368,-1.6368,-1.6368,-1.6368,-1.6368,-1.6368,-1.6368,-1.6368,-1.6368,-1.6306,-1.6186,-1.6104,-1.5189,-1.4656,-1.4482,-1.3942,-1.3621,-1.3411,-1.3718,-1.3866,-1.3862,-1.3924,-1.3985,-1.4156,-1.4223,-1.4483,-1.5008,-1.5079,-1.5335,-1.5874,-1.5956,-1.6066,-1.6254,-1.6311,-1.6426,-1.6483,-1.6545,-1.6602,-1.6596,-1.6782,-1.6834,-1.6818,-1.6756,-1.6756,-1.6756,-1.6756,-1.6756,-1.6756,-1.6756,-1.6756,-1.6756,-1.6756,-1.6751,-1.6694,-1.6694,-1.6637,-1.6596,-1.6596,-1.6591,-1.6591,-1.6472,-1.641,-1.6348,-1.6301,-1.6368,-1.6529,-1.6436,-1.6374,-1.6332,-1.6186,-1.6144,-1.6144,-1.6144,-1.6149,-1.6149,-1.6144,-1.6149,-1.6149,-1.6149,-1.6144,-1.6144,-1.6149,-1.6149,-1.6144,-1.6156,-1.6151,-1.6129,-1.6144,-1.6202,-1.5245,-1.5064,-1.502,-1.5034,-1.5088,-1.5186,-1.542,-1.5793,-1.5788,-1.5967,-1.6264,-1.6311,-1.6374,-1.6374,-1.6368,-1.6368,-1.6368,-1.6368,-1.6368,-1.6368,-1.6368,-1.6368,-1.6368,-1.6368,-1.6368,-1.6368,-1.6368,-1.6368,-1.6368,-1.6368,-1.6368,-1.6368,-1.6368,-1.6368,-1.6368,-1.6368,-1.6316,-1.6176,-1.5894,-1.5793,-1.5735,-1.5604,-1.543,-1.5332,-1.5323,-1.5264,-1.5088,-1.5147,-1.521,-1.5279,-1.5327,-1.5503,-1.573,-1.5735,-1.5846,-1.6061,-1.6119,-1.6176,-1.6374,-1.6368,-1.6368,-1.6368,-1.6368,-1.6368,-1.6431,-1.6591,-1.6705,-1.6699,-1.6705,-1.6705,-1.6705,-1.6705,-1.6705,-1.6705,-1.6699,-1.671,-1.671,-1.671,-1.6699,-1.6581,-1.6581,-1.6472,-1.6368,-1.6311,-1.6322,-1.6259,-1.6134,-1.6061,-1.6061,-1.5967,-1.6034,-1.6134,-1.6093,-1.6083,-1.6051,-1.5977,-1.5934,-1.5919,-1.5914,-1.5914,-1.5914,-1.5914,-1.5914,-1.5914,-1.5914,-1.5914,-1.5914,-1.5914,-1.5914,-1.5909,-1.5931,-1.5901,-1.5904,-1.5914,-1.5977,-1.4414,-1.4181,-1.4249,-1.4483,-1.4711,-1.477,-1.5001,-1.5415,-1.5415,-1.5667,-1.5972,-1.6072,-1.6239,-1.6374,-1.6374,-1.6368,-1.6368,-1.6368,-1.6368,-1.6368,-1.6368,-1.6368,-1.6368,-1.6368,-1.6368,-1.6368,-1.6368,-1.6368,-1.6368,-1.6368,-1.6368,-1.6368,-1.6368,-1.6368,-1.6368,-1.6368,-1.6379,-1.6379,-1.6181,-1.6009,-1.5909,-1.5851,-1.5798,-1.5677,-1.5682,-1.5546,-1.5362,-1.5551,-1.5624,-1.5682,-1.5735,-1.5856,-1.5861,-1.5856,-1.5967,-1.6114,-1.6119,-1.6176,-1.6368,-1.6368,-1.6368,-1.6368,-1.6368,-1.6368,-1.6368,-1.6431,-1.6431,-1.6436,-1.6441,-1.6436,-1.6441,-1.6426,-1.6483,-1.6483,-1.6483,-1.6436,-1.6436,-1.6436,-1.6431,-1.6426,-1.6431,-1.6316,-1.6176,-1.6119,-1.6066,-1.5977,-1.5909,-1.5846,-1.5851,-1.5793,-1.5735,-1.5778,-1.5786,-1.5891,-1.5894,-1.5901,-1.5843,-1.5866,-1.5856,-1.5856,-1.5793,-1.5798,-1.5914,-1.5735,-1.5798,-1.5793,-1.5856,-1.5914,-1.5851,-1.5793,-1.5783,-1.5841,-1.5914,-1.5856,-1.5856,-1.3437,-1.3325,-1.3385,-1.3692,-1.4125,-1.4236,-1.4538,-1.5001,-1.5001,-1.5181,-1.5594,-1.5647,-1.5884,-1.6239,-1.6316,-1.6368,-1.6368,-1.6368,-1.6368,-1.6368,-1.6368,-1.6368,-1.6368,-1.6368,-1.6368,-1.6368,-1.6368,-1.6368,-1.6368,-1.6368,-1.6368,-1.6368,-1.6368,-1.6368,-1.6368,-1.6368,-1.6368,-1.6379,-1.6316,-1.6254,-1.6149,-1.5977,-1.5861,-1.5861,-1.5798,-1.5793,-1.573,-1.5793,-1.5793,-1.5856,-1.5861,-1.5972,-1.6014,-1.6014,-1.6066,-1.6244,-1.6254,-1.6311,-1.6368,-1.6368,-1.6368,-1.6368,-1.6368,-1.6368,-1.6368,-1.6368,-1.6368,-1.6368,-1.6368,-1.6368,-1.6374,-1.6368,-1.6368,-1.6368,-1.6368,-1.6374,-1.6368,-1.6301,-1.6244,-1.6239,-1.6144,-1.6087,-1.6014,-1.5961,-1.5909,-1.5793,-1.5667,-1.5551,-1.5503,-1.5386,-1.5323,-1.5186,-1.5143,-1.526,-1.5435,-1.5405,-1.5415,-1.54,-1.5386,-1.5386,-1.5391,-1.5391,-1.5381,-1.5381,-1.5381,-1.5386,-1.5327,-1.5386,-1.5386,-1.5381,-1.5386,-1.5327,-1.5352,-1.5396,-1.5386,-1.2192,-1.227,-1.2397,-1.2834,-1.3394,-1.3571,-1.3992,-1.4414,-1.4474,-1.4775,-1.5181,-1.524,-1.5536,-1.5879,-1.6134,-1.6259,-1.6316,-1.6306,-1.6374,-1.6374,-1.6368,-1.6368,-1.6368,-1.6368,-1.6368,-1.6368,-1.6368,-1.6368,-1.6368,-1.6368,-1.6368,-1.6368,-1.6368,-1.6368,-1.6368,-1.6368,-1.6368,-1.6368,-1.6368,-1.6368,-1.6374,-1.6149,-1.6024,-1.5972,-1.5967,-1.5972,-1.5914,-1.5909,-1.5967,-1.5961,-1.5972,-1.6077,-1.6181,-1.6181,-1.6249,-1.6374,-1.6368,-1.6368,-1.6368,-1.6368,-1.6368,-1.6368,-1.6368,-1.6368,-1.6368,-1.6368,-1.6368,-1.6379,-1.6316,-1.6311,-1.6374,-1.6368,-1.6379,-1.6311,-1.6311,-1.6316,-1.6264,-1.6124,-1.6066,-1.6009,-1.5961,-1.5798,-1.574,-1.5682,-1.5561,-1.5376,-1.5308,-1.5181,-1.502,-1.4907,-1.4729,-1.4533,-1.4496,-1.4601,-1.4893,-1.494,-1.4871,-1.4852,-1.4907,-1.4902,-1.4798,-1.4793,-1.4725,-1.4725,-1.4729,-1.4729,-1.4725,-1.4729,-1.4729,-1.4729,-1.4729,-1.4734,-1.4684,-1.4739,-1.4734,-1.0762,-1.0975,-1.1358,-1.1845,-1.2393,-1.2704,-1.3204,-1.3816,-1.3945,-1.4295,-1.4711,-1.4902,-1.5142,-1.5478,-1.5725,-1.5961,-1.6109,-1.6114,-1.6244,-1.6368,-1.6374,-1.6374,-1.6368,-1.6368,-1.6379,-1.6374,-1.6374,-1.6368,-1.6374,-1.6368,-1.6368,-1.6368,-1.6368,-1.6368,-1.6368,-1.6368,-1.6368,-1.6368,-1.6368,-1.6368,-1.6368,-1.6379,-1.6259,-1.6124,-1.6114,-1.6066,-1.5909,-1.6009,-1.6124,-1.6114,-1.6254,-1.6374,-1.6368,-1.6368,-1.6379,-1.6374,-1.6368,-1.6368,-1.6368,-1.6368,-1.6368,-1.6368,-1.6368,-1.6368,-1.6379,-1.6368,-1.6368,-1.6384,-1.6186,-1.6181,-1.6316,-1.6316,-1.6254,-1.6124,-1.6114,-1.6077,-1.5972,-1.5909,-1.5914,-1.5851,-1.573,-1.5498,-1.5269,-1.5098,-1.497,-1.4834,-1.4706,-1.4647,-1.4469,-1.4304,-1.4125,-1.3988,-1.3879,-1.4004,-1.4392,-1.4409,-1.4423,-1.4378,-1.4291,-1.441,-1.4304,-1.4254,-1.413,-1.4065,-1.4065,-1.4065,-1.4005,-1.4065,-1.4065,-1.4061,-1.4061,-1.4065,-1.407,-1.4065,-1.4005,-0.9386,-0.9697,-1.0218,-1.0717,-1.1205,-1.1655,-1.2216,-1.2838,-1.3139,-1.3571,-1.4061,-1.4309,-1.4602,-1.4942,-1.5074,-1.543,-1.5899,-1.5967,-1.6024,-1.6092,-1.6092,-1.6092,-1.616,-1.6102,-1.6097,-1.6165,-1.6192,-1.6301,-1.6374,-1.6368,-1.6368,-1.6368,-1.6368,-1.6368,-1.6368,-1.6368,-1.6368,-1.6368,-1.6368,-1.6368,-1.6368,-1.6368,-1.6379,-1.6311,-1.6306,-1.6254,-1.6212,-1.6254,-1.6306,-1.6311,-1.6374,-1.6368,-1.6368,-1.6368,-1.6368,-1.6368,-1.6368,-1.6368,-1.6368,-1.6368,-1.6368,-1.6368,-1.6368,-1.6368,-1.6363,-1.6228,-1.6104,-1.6181,-1.6077,-1.6024,-1.6029,-1.6092,-1.6034,-1.6019,-1.5956,-1.5904,-1.5788,-1.5662,-1.5541,-1.5435,-1.5259,-1.5015,-1.4775,-1.4602,-1.4424,-1.424,-1.4048,-1.3863,-1.3743,-1.3563,-1.3329,-1.3086,-1.3009,-1.2923,-1.2822,-1.3401,-1.3679,-1.3597,-1.3489,-1.3498,-1.3446,-1.339,-1.3325,-1.3256,-1.3264,-1.326,-1.3195,-1.3199,-1.326,-1.3264,-1.3264,-1.3199,-1.3325,-1.313,-1.3134,-0.8007,-0.839,-0.893,-0.9442,-0.9888,-1.0465,-1.1094,-1.171,-1.2151,-1.2712,-1.3264,-1.3515,-1.3941,-1.4355,-1.4474,-1.4838,-1.5439,-1.5609,-1.5735,-1.5851,-1.5856,-1.5909,-1.5914,-1.5914,-1.5914,-1.5914,-1.6019,-1.6134,-1.6202,-1.6207,-1.6264,-1.6306,-1.6311,-1.6374,-1.6379,-1.6368,-1.6368,-1.6368,-1.6368,-1.6368,-1.6368,-1.6368,-1.6368,-1.6368,-1.6368,-1.6368,-1.6368,-1.6368,-1.6368,-1.6368,-1.6368,-1.6368,-1.6368,-1.6368,-1.6368,-1.6368,-1.6368,-1.6368,-1.6368,-1.6368,-1.6374,-1.6306,-1.6296,-1.6244,-1.6202,-1.5989,-1.5916,-1.5879,-1.5836,-1.5735,-1.5682,-1.5556,-1.5556,-1.5672,-1.5682,-1.5556,-1.5435,-1.525,-1.5069,-1.4784,-1.4483,-1.4291,-1.4107,-1.3872,-1.3696,-1.3519,-1.3199,-1.2952,-1.2838,-1.2593,-1.2336,-1.2081,-1.189,-1.1589,-1.1382,-1.1567,-1.2348,-1.2397,-1.2405,-1.2444,-1.2379,-1.2399,-1.2407,-1.2366,-1.2373,-1.232,-1.2324,-1.232,-1.2316,-1.2308,-1.2155,-1.2031,-1.2085,-1.2012,-1.1962,-0.6557,-0.6909,-0.7447,-0.7962,-0.8479,-0.9128,-0.9824,-1.0451,-1.1038,-1.1597,-1.2208,-1.2646,-1.3139,-1.3696,-1.3816,-1.4176,-1.4529,-1.5005,-1.5362,-1.5609,-1.5735,-1.5778,-1.57,-1.5788,-1.5783,-1.57,-1.5841,-1.5914,-1.5914,-1.5914,-1.5961,-1.6066,-1.6124,-1.6192,-1.6368,-1.6311,-1.6374,-1.6374,-1.6316,-1.6368,-1.6384,-1.6374,-1.6316,-1.6374,-1.6374,-1.6374,-1.6368,-1.6374,-1.6368,-1.6368,-1.6368,-1.6368,-1.6368,-1.6368,-1.6368,-1.6374,-1.6374,-1.6368,-1.6379,-1.6368,-1.6254,-1.6124,-1.6046,-1.5994,-1.5904,-1.5763,-1.5633,-1.5604,-1.5488,-1.5366,-1.5142,-1.4902,-1.4893,-1.5298,-1.5259,-1.5024,-1.4775,-1.4711,-1.4538,-1.4061,-1.3692,-1.3446,-1.3264,-1.2903,-1.2635,-1.2456,-1.2104,-1.1817,-1.1619,-1.1374,-1.1165,-1.0905,-1.0573,-1.0174,-0.9874,-0.9663,-1.0449,-1.1074,-1.1232,-1.1261,-1.1153,-1.1085,-1.0984,-1.0927,-1.0852,-1.0859,-1.0848,-1.0794,-1.0786,-1.0804,-1.0777,-1.0764,-1.0684,-1.0561,-1.0516,-0.4747,-0.5129,-0.5536,-0.6127,-0.6789,-0.743,-0.8138,-0.8974,-0.9558,-1.0322,-1.102,-1.1534,-1.21,-1.265,-1.2907,-1.3212,-1.3687,-1.3988,-1.4401,-1.4951,-1.5201,-1.5264,-1.5269,-1.5264,-1.5323,-1.5376,-1.5386,-1.5566,-1.5735,-1.5735,-1.5846,-1.5961,-1.5961,-1.5961,-1.6024,-1.6039,-1.6029,-1.6034,-1.6029,-1.6087,-1.6029,-1.6029,-1.6034,-1.6034,-1.6092,-1.6092,-1.6087,-1.6269,-1.6374,-1.6368,-1.6368,-1.6368,-1.6374,-1.6368,-1.6368,-1.6379,-1.6244,-1.6181,-1.6181,-1.6082,-1.6029,-1.5956,-1.5743,-1.569,-1.5662,-1.5318,-1.5129,-1.5177,-1.501,-1.4838,-1.4547,-1.4309,-1.4378,-1.4824,-1.4661,-1.4401,-1.4113,-1.3892,-1.3515,-1.3033,-1.2773,-1.2585,-1.2227,-1.181,-1.1322,-1.118,-1.0678,-1.0195,-1.0122,-0.9804,-0.9436,-0.9222,-0.8933,-0.8619,-0.8266,-0.7955,-0.8246,-0.8953,-0.9348,-0.9771,-0.9704,-0.9631,-0.9544,-0.9471,-0.9401,-0.9335,-0.9325,-0.9335,-0.9315,-0.9271,-0.9237,-0.9158,-0.9146,-0.9008,-0.8955,-0.2754,-0.3357,-0.386,-0.4408,-0.4935,-0.5652,-0.6443,-0.7228,-0.7944,-0.872,-0.9558,-1.0265,-1.0902,-1.152,-1.1841,-1.222,-1.272,-1.2891,-1.3183,-1.379,-1.4424,-1.4675,-1.4684,-1.4611,-1.4675,-1.4734,-1.4789,-1.4907,-1.5142,-1.5259,-1.5439,-1.5566,-1.5619,-1.5672,-1.5725,-1.5725,-1.5725,-1.5725,-1.5725,-1.573,-1.573,-1.572,-1.572,-1.5725,-1.573,-1.573,-1.573,-1.5894,-1.6082,-1.6202,-1.6207,-1.6212,-1.6207,-1.6207,-1.6207,-1.6202,-1.6077,-1.6009,-1.5951,-1.5851,-1.574,-1.5614,-1.542,-1.5206,-1.5071,-1.4643,-1.4431,-1.4239,-1.4002,-1.3722,-1.3437,-1.3141,-1.3204,-1.3374,-1.3501,-1.3405,-1.3033,-1.2558,-1.2131,-1.169,-1.1387,-1.1116,-1.076,-1.0318,-0.9801,-0.9643,-0.9113,-0.8592,-0.8531,-0.8193,-0.7929,-0.7597,-0.7318,-0.7015,-0.6646,-0.6352,-0.6107,-0.6648,-0.7272,-0.7803,-0.8056,-0.8058,-0.7988,-0.8001,-0.7939,-0.7892,-0.7887,-0.786,-0.7863,-0.7779,-0.7608,-0.7633,-0.7566,-0.742,-0.7278,-0.0624,-0.1608,-0.2383,-0.2742,-0.3071,-0.3802,-0.46,-0.5528,-0.6117,-0.6967,-0.7887,-0.8656,-0.9424,-1.0135,-1.0571,-1.1087,-1.1608,-1.1706,-1.1815,-1.2189,-1.2935,-1.3498,-1.3756,-1.3816,-1.3816,-1.3881,-1.4005,-1.4121,-1.4181,-1.4478,-1.472,-1.4911,-1.5029,-1.5201,-1.524,-1.5298,-1.5303,-1.524,-1.5294,-1.5294,-1.5294,-1.5352,-1.5298,-1.5352,-1.5294,-1.5294,-1.5298,-1.5352,-1.5541,-1.5788,-1.5851,-1.5851,-1.5856,-1.5856,-1.5846,-1.5846,-1.5836,-1.5713,-1.5618,-1.5417,-1.5307,-1.5003,-1.4748,-1.4632,-1.4085,-1.3723,-1.3326,-1.2957,-1.2659,-1.2333,-1.2006,-1.1668,-1.1369,-1.1164,-1.1831,-1.1941,-1.121,-1.0731,-1.0455,-1.0137,-0.9666,-0.9259,-0.9079,-0.8557,-0.8156,-0.7843,-0.752,-0.7107,-0.681,-0.6492,-0.6393,-0.6099,-0.5863,-0.5668,-0.5356,-0.456,-0.4347,-0.4492,-0.5059,-0.5582,-0.6186,-0.6253,-0.6188,-0.621,-0.6309,-0.6336,-0.6259,-0.6136,-0.6067,-0.5927,-0.5898,-0.5996,-0.586,-0.5675,-0.56,0.0999,0.0514,0.0066,-0.0468,-0.0936,-0.1605,-0.2672,-0.3802,-0.4264,-0.5053,-0.6113,-0.697,-0.768,-0.8396,-0.8921,-0.9503,-0.9933,-1.0116,-1.0246,-1.0362,-1.061,-1.1553,-1.2381,-1.27,-1.27,-1.2761,-1.2944,-1.3199,-1.3321,-1.3627,-1.3872,-1.4061,-1.4181,-1.4309,-1.4355,-1.4419,-1.4547,-1.4538,-1.4647,-1.4711,-1.4701,-1.4701,-1.4761,-1.4701,-1.4706,-1.4697,-1.4701,-1.4706,-1.5001,-1.5478,-1.5541,-1.5541,-1.5434,-1.5487,-1.54,-1.5375,-1.5107,-1.4895,-1.4667,-1.4344,-1.4025,-1.3761,-1.3498,-1.3191,-1.2939,-1.2586,-1.2195,-1.182,-1.1531,-1.117,-1.0778,-1.0358,-0.9811,-0.9157,-0.9828,-1.0318,-0.9741,-0.9459,-0.9169,-0.8703,-0.8212,-0.7846,-0.7395,-0.6958,-0.6416,-0.6096,-0.5624,-0.5152,-0.4898,-0.4664,-0.4459,-0.4596,-0.4422,-0.4305,-0.3952,-0.3028,-0.2573,-0.2473,-0.2823,-0.3227,-0.3873,-0.4332,-0.4154,-0.4036,-0.4202,-0.4228,-0.4129,-0.3915,-0.3937,-0.4104,-0.4035,-0.4054,-0.3962,-0.3809,-0.382,0.2692,0.2523,0.2338,0.1918,0.1336,0.0802,-0.02,-0.1467,-0.2136,-0.3067,-0.4132,-0.499,-0.5845,-0.6569,-0.7165,-0.7745,-0.8254,-0.8251,-0.8251,-0.8249,-0.8115,-0.9137,-1.0551,-1.1069,-1.1128,-1.1249,-1.1502,-1.1761,-1.195,-1.2389,-1.263,-1.2818,-1.307,-1.3199,-1.326,-1.3321,-1.345,-1.3506,-1.3618,-1.3674,-1.367,-1.3674,-1.367,-1.367,-1.3666,-1.3622,-1.3521,-1.3342,-1.3722,-1.45,-1.473,-1.4725,-1.4549,-1.4483,-1.4478,-1.4464,-1.4073,-1.3825,-1.3571,-1.3213,-1.2945,-1.2661,-1.2317,-1.1943,-1.1619,-1.1194,-1.0735,-1.0199,-0.9815,-0.9428,-0.8931,-0.8415,-0.7726,-0.7014,-0.7362,-0.7728,-0.7748,-0.7553,-0.7224,-0.6771,-0.6372,-0.5974,-0.5686,-0.526,-0.4821,-0.4332,-0.3782,-0.336,-0.2961,-0.2782,-0.2618,-0.2676,-0.2567,-0.2294,-0.2019,-0.1229,-0.0834,-0.0781,-0.0669,-0.1058,-0.1781,-0.2391,-0.2455,-0.2293,-0.2233,-0.2174,-0.2172,-0.2171,-0.2242,-0.2311,-0.2175,-0.2173,-0.2173,-0.2059,-0.2115,0.4448,0.4401,0.4491,0.416,0.3513,0.327,0.2335,0.1134,0.0267,-0.0802,-0.1936,-0.2933,-0.3729,-0.4665,-0.512,-0.5712,-0.6165,-0.6161,-0.6031,-0.5898,-0.5765,-0.6406,-0.7945,-0.8815,-0.9082,-0.9276,-0.9536,-0.9857,-1.0176,-1.0683,-1.0999,-1.1117,-1.1432,-1.1753,-1.1811,-1.1935,-1.2074,-1.2131,-1.2128,-1.2185,-1.2185,-1.2181,-1.2146,-1.2126,-1.2165,-1.2043,-1.1873,-1.1706,-1.2019,-1.3313,-1.3555,-1.3476,-1.3241,-1.3132,-1.3163,-1.3113,-1.2912,-1.2527,-1.2295,-1.2066,-1.175,-1.1379,-1.1004,-1.0628,-1.0028,-0.9473,-0.8895,-0.8322,-0.7744,-0.7376,-0.69,-0.6102,-0.5452,-0.4904,-0.4515,-0.4663,-0.515,-0.5316,-0.5097,-0.4712,-0.4223,-0.3831,-0.367,-0.3568,-0.3411,-0.242,-0.1953,-0.1615,-0.1278,-0.1001,-0.0779,-0.0613,-0.0335,-0.0056,0.028,0.0617,0.0837,0.0947,0.1169,0.0945,0.0167,-0.0389,-0.0725,-0.0782,-0.0669,-0.0613,-0.0558,-0.0614,-0.0614,-0.0558,-0.0501,-0.0557,-0.0558,-0.0446,-0.0445,0.6072,0.6082,0.6049,0.5815,0.5541,0.5199,0.4453,0.3526,0.273,0.1865,0.0934,-0.0267,-0.1266,-0.2134,-0.2667,-0.3201,-0.3657,-0.3655,-0.3526,-0.3188,-0.2924,-0.2853,-0.3893,-0.5408,-0.6815,-0.7077,-0.7399,-0.772,-0.8112,-0.8562,-0.8948,-0.9131,-0.9391,-0.9721,-0.9835,-0.9955,-1.0163,-1.0296,-1.0428,-1.0471,-1.0454,-1.0448,-1.0416,-1.041,-1.0366,-1.0402,-1.0397,-1.0315,-1.0297,-1.0543,-1.1268,-1.1739,-1.1845,-1.1913,-1.2053,-1.2142,-1.1643,-1.1166,-1.0946,-1.0371,-0.9797,-0.9307,-0.8887,-0.8419,-0.8003,-0.7569,-0.705,-0.6551,-0.6067,-0.564,-0.5216,-0.4323,-0.3546,-0.2996,-0.2556,-0.2111,-0.2107,-0.2831,-0.3222,-0.2891,-0.2446,-0.2001,-0.1724,-0.1337,-0.1003,-0.0446,-0.0111,0.0167,0.0446,0.0723,0.1001,0.1225,0.1505,0.1785,0.2235,0.2458,0.2609,0.2771,0.2938,0.3052,0.2272,0.161,0.1332,0.1114,0.095,0.1006,0.1059,0.117,0.1224,0.1226,0.1226,0.1224,0.1224,0.128,0.128,0.7702,0.7661,0.7555,0.7529,0.741,0.7019,0.6471,0.5886,0.5042,0.4319,0.3461,0.2264,0.1333,0.0733,-0.0,-0.06,-0.0865,-0.0865,-0.0598,-0.0265,0.0066,0.0332,0.0331,-0.1122,-0.2506,-0.4035,-0.4635,-0.5027,-0.5554,-0.629,-0.6959,-0.7082,-0.72,-0.7249,-0.7376,-0.7567,-0.7698,-0.7827,-0.8091,-0.8178,-0.8148,-0.8193,-0.8213,-0.816,-0.8044,-0.7963,-0.79,-0.7782,-0.7611,-0.7709,-0.8257,-0.9172,-1.0039,-1.0356,-1.0561,-1.0271,-0.9825,-0.9247,-0.8935,-0.8472,-0.7891,-0.7348,-0.6868,-0.6438,-0.6176,-0.5862,-0.5418,-0.4754,-0.4205,-0.3717,-0.3115,-0.2277,-0.1498,-0.1111,-0.0556,-0.0,0.0222,-0.0666,-0.1445,-0.1001,-0.0612,-0.0167,0.0223,0.0668,0.1057,0.1444,0.2113,0.2394,0.2335,0.2612,0.2777,0.3003,0.3287,0.3629,0.4086,0.4351,0.4474,0.4578,0.4687,0.4805,0.4529,0.3981,0.349,0.3055,0.2616,0.2732,0.284,0.2896,0.2947,0.3,0.2999,0.3,0.2999,0.3052,0.3052,0.9224,0.9186,0.9045,0.9064,0.9175,0.8853,0.8511,0.817,0.7388,0.6605,0.5765,0.4644,0.3986,0.3461,0.2726,0.206,0.1926,0.2124,0.2452,0.278,0.3242,0.3505,0.3499,0.3161,0.2169,-0.0528,-0.1391,-0.192,-0.265,-0.3653,-0.4044,-0.4582,-0.4577,-0.4425,-0.4558,-0.476,-0.4885,-0.5009,-0.5167,-0.5246,-0.5271,-0.5428,-0.5447,-0.5411,-0.5247,-0.5161,-0.5134,-0.5005,-0.4863,-0.4796,-0.4794,-0.5763,-0.7065,-0.8296,-0.8434,-0.7688,-0.7388,-0.7122,-0.6799,-0.6387,-0.5885,-0.5512,-0.491,-0.4421,-0.4152,-0.3935,-0.3492,-0.2771,-0.2052,-0.133,-0.05,0.0111,0.0666,0.1111,0.1557,0.1999,0.2219,0.1386,0.1274,0.1278,0.1555,0.1831,0.2221,0.2612,0.2946,0.3337,0.4068,0.4517,0.445,0.4441,0.4544,0.4769,0.5054,0.5313,0.5784,0.6018,0.6189,0.6287,0.635,0.6482,0.6548,0.6213,0.5608,0.465,0.4273,0.4388,0.45,0.4604,0.4657,0.4716,0.482,0.4811,0.4814,0.4824,0.482,1.0494,1.0514,1.0584,1.0562,1.0568,1.0697,1.0467,0.9971,0.9668,0.8995,0.8094,0.7321,0.6542,0.5888,0.5367,0.503,0.4955,0.5152,0.5478,0.5866,0.6325,0.6584,0.6772,0.6883,0.6415,0.5319,0.3353,0.1583,0.0794,0.0133,-0.0397,-0.0596,-0.086,-0.1058,-0.119,-0.1523,-0.1712,-0.1831,-0.1998,-0.2091,-0.2255,-0.2334,-0.2464,-0.2507,-0.2436,-0.2406,-0.2453,-0.2496,-0.2542,-0.254,-0.2542,-0.2702,-0.3348,-0.483,-0.5444,-0.5506,-0.5173,-0.4789,-0.4523,-0.4194,-0.3756,-0.3263,-0.2655,-0.216,-0.1775,-0.1332,-0.0942,-0.0277,0.0499,0.1164,0.1777,0.2272,0.3109,0.3727,0.3993,0.4088,0.4472,0.4522,0.4302,0.415,0.3987,0.3767,0.4152,0.4535,0.486,0.5132,0.5577,0.6023,0.6176,0.6227,0.6338,0.6576,0.6877,0.7165,0.7458,0.7608,0.7754,0.7896,0.7964,0.8125,0.8193,0.8255,0.7717,0.69,0.6166,0.6023,0.6136,0.6249,0.6293,0.6392,0.6502,0.6615,0.6553,0.6494,0.6558,1.1819,1.1733,1.1815,1.1856,1.1868,1.1919,1.1971,1.1948,1.1522,1.1002,1.0414,0.9756,0.9056,0.8406,0.7955,0.7827,0.795,0.7953,0.8396,0.8842,0.9228,0.9548,0.9791,0.9963,0.9904,0.931,0.7741,0.5752,0.4408,0.3755,0.3426,0.323,0.3102,0.3106,0.2763,0.208,0.162,0.1414,0.1194,0.0981,0.0846,0.0647,0.0516,0.0508,0.039,0.0387,0.0331,0.0221,0.0166,0.0166,0.0166,0.0221,-0.011,-0.0659,-0.1867,-0.2646,-0.2482,-0.2207,-0.2047,-0.1769,-0.1327,-0.0774,-0.0221,0.0222,0.061,0.1053,0.1773,0.2713,0.3042,0.354,0.3874,0.437,0.5033,0.5584,0.5849,0.6164,0.6536,0.6916,0.6924,0.6773,0.6264,0.5986,0.6063,0.6443,0.6766,0.6983,0.7194,0.7514,0.7832,0.7991,0.8044,0.8339,0.8629,0.8801,0.9041,0.9183,0.9387,0.9475,0.9566,0.9735,0.9813,0.9864,0.9758,0.9272,0.8662,0.7932,0.7768,0.788,0.7922,0.8006,0.8106,0.8153,0.8159,0.8165,0.8218,1.3054,1.2953,1.2953,1.3003,1.3099,1.301,1.3196,1.3465,1.3112,1.2747,1.2578,1.1985,1.1443,1.094,1.0628,1.051,1.0694,1.0684,1.1105,1.1544,1.1859,1.2238,1.2469,1.2651,1.2639,1.2494,1.205,1.0636,0.8027,0.7067,0.6817,0.6619,0.6921,0.6912,0.6444,0.5301,0.4869,0.4533,0.4253,0.4007,0.3774,0.3572,0.3409,0.3411,0.3306,0.3249,0.3245,0.3024,0.2971,0.2971,0.2918,0.2977,0.3032,0.3143,0.2258,0.0771,0.0718,0.0498,0.0664,0.0719,0.1271,0.2156,0.2325,0.2602,0.2985,0.3532,0.4311,0.5597,0.5806,0.5731,0.5948,0.6387,0.6814,0.7186,0.7617,0.7991,0.841,0.8776,0.9134,0.8871,0.8335,0.8125,0.8131,0.8249,0.8557,0.8714,0.8926,0.9131,0.9448,0.9607,0.9773,1.002,1.0293,1.0454,1.0618,1.0809,1.0967,1.1096,1.1178,1.1277,1.1345,1.1403,1.129,1.1123,1.0768,1.0101,0.9817,0.949,0.9544,0.9566,0.9633,0.9681,0.9717,0.9714,0.9765,1.4102,1.4102,1.4107,1.4098,1.4084,1.4244,1.4204,1.4108,1.4474,1.4508,1.418,1.4082,1.3731,1.3279,1.2914,1.2853,1.3082,1.3305,1.3599,1.3978,1.4287,1.458,1.4872,1.5071,1.5052,1.4979,1.4858,1.3237,1.1294,1.0299,0.9888,0.9825,0.9433,0.9185,0.886,0.8251,0.7867,0.7538,0.7206,0.6877,0.6532,0.635,0.6224,0.6119,0.6068,0.6012,0.5958,0.5737,0.558,0.5582,0.5483,0.5539,0.5645,0.5867,0.5918,0.4865,0.3451,0.1875,0.2868,0.3255,0.3917,0.4805,0.508,0.5074,0.5387,0.5876,0.6589,0.7138,0.7458,0.7667,0.7932,0.8301,0.8623,0.8933,0.9297,0.9717,1.0136,1.0422,1.0784,1.1128,1.0676,1.0289,1.0152,1.0226,1.0348,1.0505,1.0657,1.0855,1.1053,1.1195,1.1347,1.1604,1.1796,1.1989,1.2078,1.2255,1.2407,1.2563,1.2623,1.274,1.2788,1.2783,1.2894,1.2677,1.2371,1.2038,1.1584,1.1292,1.1174,1.1099,1.1073,1.1186,1.1308,1.1303,1.1195,1.5517,1.5152,1.5158,1.5068,1.4971,1.5043,1.5102,1.5197,1.527,1.5447,1.5566,1.5487,1.5357,1.5148,1.5013,1.5066,1.5293,1.5451,1.5743,1.6043,1.6342,1.6634,1.6863,1.7036,1.7153,1.7081,1.6964,1.657,1.483,1.3501,1.2752,1.2679,1.2296,1.191,1.1297,1.0911,1.0477,1.0012,0.9621,0.9292,0.9079,0.8885,0.8778,0.8629,0.857,0.8469,0.8368,0.8152,0.8044,0.8044,0.7942,0.7936,0.8044,0.8214,0.8328,0.8266,0.7314,0.6303,0.575,0.5763,0.6431,0.698,0.7188,0.7376,0.7808,0.8236,0.8613,0.8978,0.9352,0.9566,0.9721,1.0073,1.0379,1.0691,1.0939,1.1295,1.1648,1.2003,1.2346,1.2691,1.2928,1.2503,1.209,1.2006,1.202,1.1989,1.2141,1.2337,1.2585,1.2831,1.2968,1.3096,1.3283,1.3396,1.3496,1.3632,1.374,1.3866,1.3859,1.3961,1.4086,1.4143,1.4143,1.4195,1.4029,1.3716,1.3324,1.2871,1.2434,1.241,1.244,1.2512,1.2589,1.2502,1.2448,1.6837,1.6343,1.6145,1.6026,1.5894,1.5794,1.5876,1.613,1.6027,1.6207,1.6565,1.6566,1.6678,1.6849,1.6863,1.697,1.7236,1.7363,1.7588,1.7867,1.8089,1.8251,1.8478,1.865,1.875,1.8756,1.8685,1.8436,1.7875,1.6849,1.576,1.5341,1.4839,1.4302,1.3802,1.325,1.2685,1.1984,1.1635,1.1395,1.121,1.1115,1.0965,1.0818,1.0768,1.0659,1.0531,1.0351,1.0285,1.0191,1.014,1.0132,1.0187,1.0304,1.0414,1.046,1.016,0.9843,0.9037,0.8697,0.8626,0.8829,0.9131,0.9478,0.9963,1.034,1.0485,1.073,1.104,1.1253,1.1408,1.1697,1.1935,1.2181,1.2434,1.2788,1.3135,1.3411,1.369,1.3966,1.4245,1.4521,1.412,1.3898,1.3732,1.3521,1.3627,1.3815,1.3998,1.4226,1.4368,1.443,1.4534,1.4687,1.4834,1.493,1.5083,1.5107,1.5105,1.5168,1.5236,1.5299,1.5299,1.5361,1.5457,1.5266,1.4824,1.4256,1.3684,1.3767,1.3788,1.3773,1.3763,1.3679,1.3632,1.7915,1.7787,1.7102,1.682,1.6784,1.668,1.6614,1.6716,1.6947,1.6993,1.7134,1.7538,1.8136,1.8389,1.8478,1.8584,1.8738,1.9085,1.9236,1.9399,1.9573,1.967,1.9831,1.9972,2.0074,2.0016,2.0016,1.9972,1.9818,1.931,1.8371,1.7566,1.7037,1.638,1.5631,1.497,1.4279,1.3614,1.3321,1.3163,1.3004,1.2908,1.2822,1.2643,1.2604,1.2604,1.2604,1.2366,1.2201,1.2069,1.198,1.1984,1.2029,1.2083,1.2181,1.2337,1.2434,1.2215,1.1908,1.122,1.0972,1.0986,1.1094,1.1386,1.1742,1.1953,1.2159,1.2346,1.2536,1.2696,1.2894,1.3188,1.3358,1.3496,1.3726,1.4002,1.4343,1.463,1.4909,1.5192,1.541,1.562,1.5746,1.5407,1.4977,1.4772,1.4852,1.4994,1.5174,1.5404,1.5588,1.5709,1.5784,1.5919,1.6057,1.6159,1.6156,1.6193,1.6249,1.6268,1.6318,1.638,1.6324,1.6374,1.6367,1.6367,1.6324,1.5696,1.5256,1.5171,1.5093,1.496,1.4892,1.488,1.4841,1.85,1.8475,1.8194,1.7794,1.7406,1.7338,1.7262,1.7205,1.733,1.7769,1.8299,1.9141,1.9674,1.9832,1.9876,1.9921,2.0067,2.0175,2.0383,2.0584,2.0703,2.0858,2.0999,2.1097,2.1195,2.114,2.1195,2.1202,2.1097,2.0852,2.0584,1.987,1.9036,1.8031,1.7179,1.6165,1.5354,1.501,1.4732,1.4589,1.4498,1.4411,1.4283,1.4097,1.4097,1.4045,1.394,1.3825,1.3732,1.3637,1.3511,1.3516,1.3564,1.3595,1.3695,1.3847,1.3894,1.3993,1.3909,1.318,1.2501,1.2667,1.2735,1.2933,1.322,1.3379,1.3521,1.3711,1.3847,1.3993,1.4185,1.4416,1.4641,1.4772,1.4949,1.5213,1.5437,1.5714,1.5946,1.612,1.633,1.6544,1.6672,1.6756,1.6386,1.6014,1.6089,1.6213,1.6343,1.6471,1.66,1.668,1.6758,1.6833,1.7,1.7086,1.7192,1.7205,1.7294,1.7251,1.7256,1.7304,1.7297,1.7304,1.7297,1.7284,1.7194,1.698,1.664,1.6224,1.6083,1.5993,1.5987,1.6026,1.5976,1.8997,1.9011,1.8974,1.8623,1.8068,1.8028,1.7948,1.7841,1.7841,1.8416,1.9443,2.0293,2.0804,2.0904,2.0957,2.0993,2.1091,2.1146,2.1341,2.1492,2.1636,2.1739,2.1874,2.1962,2.2016,2.207,2.2077,2.203,2.1942,2.1793,2.1534,2.1237,2.0772,1.9684,1.8188,1.6978,1.6151,1.6008,1.5926,1.5756,1.5662,1.5534,1.5412,1.5271,1.5226,1.522,1.5119,1.5011,1.4971,1.492,1.4829,1.4795,1.4841,1.488,1.4971,1.5017,1.5068,1.5175,1.4943,1.4433,1.3774,1.3899,1.4075,1.4272,1.4474,1.4623,1.4738,1.4869,1.5056,1.5197,1.5293,1.5517,1.5688,1.577,1.5983,1.6201,1.6403,1.6629,1.6811,1.7034,1.7249,1.7414,1.7598,1.768,1.7388,1.7063,1.7028,1.7111,1.7214,1.7338,1.7462,1.7563,1.7649,1.7727,1.7848,1.7901,1.7961,1.7999,1.8052,1.8033,1.8061,1.8114,1.814,1.808,1.808,1.8133,1.8094,1.7954,1.7552,1.7096,1.7015,1.6973,1.696,1.6944,1.6915,1.9486,1.9493,1.9398,1.9176,1.8808,1.8791,1.8728,1.8712,1.8779,1.9291,2.0198,2.081,2.1324,2.1697,2.1739,2.1827,2.1928,2.1928,2.207,2.2263,2.2303,2.2395,2.248,2.2572,2.2618,2.2649,2.2656,2.2586,2.2562,2.2402,2.227,2.2128,2.1701,2.0858,1.9281,1.7886,1.7132,1.6876,1.6827,1.6644,1.6509,1.6423,1.6293,1.6175,1.6138,1.6082,1.6076,1.602,1.5926,1.5876,1.5844,1.5844,1.5844,1.5888,1.5938,1.6082,1.6082,1.6144,1.6106,1.5418,1.5175,1.5119,1.5186,1.5338,1.5421,1.5561,1.5788,1.5864,1.5996,1.612,1.6306,1.649,1.6625,1.6752,1.6921,1.7118,1.7312,1.7429,1.7612,1.7781,1.8016,1.8275,1.845,1.8546,1.8298,1.8101,1.7995,1.8009,1.8055,1.8175,1.824,1.8282,1.8351,1.8478,1.8534,1.8684,1.8736,1.876,1.8793,1.8793,1.88,1.8853,1.8838,1.8855,1.8893,1.8907,1.8966,1.9011,1.8598,1.82,1.7973,1.7908,1.7908,1.7861,1.7781,2.0045,2.0045,2.0018,1.9912,1.9754,1.9362,1.9395,1.9897,2.0582,2.1144,2.1456,2.1964,2.2314,2.2491,2.2526,2.2526,2.2572,2.2618,2.2716,2.2859,2.2859,2.2956,2.3038,2.3083,2.3076,2.3083,2.3083,2.3076,2.3053,2.2949,2.2859,2.2718,2.225,2.1131,1.9924,1.8811,1.8157,1.7657,1.7447,1.7358,1.7179,1.7102,1.7025,1.6863,1.6869,1.6869,1.6827,1.6772,1.6716,1.6667,1.6637,1.6614,1.6601,1.6644,1.671,1.6759,1.6801,1.6899,1.6947,1.6704,1.6527,1.6355,1.6182,1.6275,1.6374,1.6466,1.6601,1.6716,1.6788,1.6909,1.7089,1.7297,1.7427,1.7516,1.7679,1.7868,1.8061,1.8147,1.8273,1.8507,1.8728,1.8882,1.9056,1.9154,1.9027,1.8914,1.88,1.8616,1.8623,1.8777,1.8884,1.8927,1.9008,1.9114,1.9236,1.9258,1.9365,1.9376,1.9464,1.9508,1.9522,1.9493,1.9566,1.9544,1.9595,1.9639,1.9646,1.9675,1.9595,1.9354,1.905,1.8781,1.8655,1.866,1.8655,2.0475,2.0467,2.0467,2.0615,2.069,2.026,2.0393,2.1065,2.1939,2.2317,2.2392,2.2864,2.3157,2.315,2.3157,2.3157,2.3157,2.315,2.3201,2.3348,2.3348,2.3443,2.3494,2.3545,2.3545,2.3545,2.3538,2.353,2.3487,2.3392,2.3304,2.3076,2.2637,2.1939,2.0812,1.9866,1.8941,1.8453,1.8194,1.7841,1.772,1.7639,1.7564,1.7488,1.7454,1.7419,1.7406,1.7393,1.7304,1.7304,1.7282,1.7267,1.7253,1.7275,1.7304,1.7345,1.7421,1.7523,1.7611,1.7707,1.7489,1.7386,1.7221,1.7096,1.7199,1.7234,1.7317,1.7434,1.7509,1.7666,1.7828,1.7995,1.8114,1.8168,1.8358,1.8592,1.8693,1.8769,1.8921,1.9124,1.9273,1.942,1.961,1.9682,1.9703,1.9631,1.9566,1.9413,1.9221,1.9325,1.9479,1.9516,1.956,1.9656,1.9733,1.9783,1.9881,2.0,2.005,2.0058,2.01,2.0038,2.0158,2.0235,2.0185,2.0177,2.0262,2.0254,2.0197,2.012,1.998,1.9728,1.948,1.9367,1.9369,2.0827,2.0802,2.0827,2.114,2.1604,2.1476,2.1673,2.2078,2.2584,2.2791,2.2836,2.3421,2.3595,2.363,2.3645,2.3602,2.3602,2.3595,2.3696,2.3746,2.3789,2.3882,2.3932,2.3975,2.3932,2.3982,2.3932,2.3824,2.3789,2.3746,2.3625,2.3545,2.3347,2.2745,2.1864,2.0894,1.9939,1.9443,1.8866,1.8557,1.8403,1.8137,1.8029,1.7949,1.7916,1.7916,1.7868,1.7862,1.7868,1.7875,1.7882,1.7882,1.7922,1.7909,1.7909,1.7949,1.7969,1.8095,1.8182,1.8233,1.8351,1.8247,1.7995,1.7834,1.7754,1.7882,1.7955,1.8035,1.8154,1.8305,1.85,1.8577,1.8662,1.8822,1.8981,1.9124,1.9221,1.9369,1.9515,1.9667,1.9803,1.9909,2.0058,2.017,2.0204,2.0212,2.0135,2.005,1.9894,1.9795,1.9909,2.0045,2.0099,2.016,2.0223,2.0238,2.0272,2.0368,2.0436,2.0478,2.0494,2.0561,2.0628,2.0669,2.0711,2.0711,2.0736,2.0761,2.0745,2.0712,2.0605,2.0405,2.0058,2.0016,1.9967,2.1111,2.1079,2.1014,2.1388,2.207,2.2904,2.3247,2.318,2.3707,2.3951,2.3826,2.3994,2.4078,2.4078,2.4078,2.4071,2.4071,2.4078,2.4135,2.4135,2.417,2.4185,2.4227,2.4227,2.4227,2.4177,2.4128,2.4078,2.4036,2.4002,2.3975,2.3847,2.3754,2.3438,2.2901,2.2155,2.1313,2.05,1.986,1.9428,1.9082,1.8784,1.856,1.8437,1.8342,1.8335,1.8314,1.8314,1.8321,1.8314,1.8314,1.8314,1.8321,1.8321,1.8321,1.8361,1.8432,1.8542,1.8651,1.8736,1.8819,1.8882,1.8753,1.8584,1.8468,1.8429,1.85,1.8592,1.8707,1.8815,1.8959,1.9079,1.9154,1.9303,1.9493,1.9631,1.9724,1.9866,2.0023,2.0189,2.0292,2.0395,2.0545,2.0579,2.062,2.0669,2.0636,2.0613,2.053,2.0353,2.0334,2.0467,2.0533,2.0587,2.0582,2.0607,2.0671,2.0728,2.0786,2.0852,2.0966,2.0998,2.1063,2.1087,2.1079,2.1119,2.1127,2.1151,2.1166,2.119,2.1119,2.091,2.0714,2.0605,2.0527,2.1364,2.1413,2.1633,2.2263,2.3195,2.4167,2.4457,2.4351,2.4602,2.4653,2.4549,2.4597,2.4564,2.4589,2.4589,2.4589,2.4597,2.4589,2.4589,2.4549,2.4508,2.4523,2.449,2.4441,2.4434,2.4377,2.4328,2.432,2.4287,2.4261,2.4234,2.4185,2.4051,2.3902,2.3643,2.3188,2.2743,2.1836,2.1107,2.0501,2.0012,1.9534,1.9205,1.8991,1.8892,1.8691,1.8641,1.8655,1.8634,1.862,1.8613,1.8659,1.8673,1.8711,1.8743,1.8774,1.8858,1.8927,1.8995,1.9071,1.9191,1.9265,1.9302,1.9206,1.9094,1.9019,1.9026,1.9071,1.9169,1.9273,1.9428,1.9537,1.9639,1.9711,1.9917,2.01,2.0231,2.0326,2.0504,2.0646,2.0786,2.0893,2.099,2.099,2.099,2.0998,2.103,2.1015,2.0942,2.0836,2.0778,2.0843,2.0932,2.0964,2.0982,2.0974,2.1015,2.1055,2.1111,2.1214,2.1333,2.1427,2.1442,2.1464,2.1479,2.1487,2.1495,2.1487,2.1509,2.154,2.157,2.1424,2.1229,2.1127,2.1015,2.162,2.1694,2.2473,2.3439,2.4674,2.5182,2.5376,2.5432,2.5185,2.5045,2.5013,2.5013,2.5013,2.4966,2.4958,2.4958,2.4966,2.4958,2.4966,2.4997,2.4886,2.4854,2.4814,2.4726,2.4759,2.467,2.4622,2.4606,2.4581,2.4556,2.4523,2.4482,2.4392,2.4253,2.4082,2.3926,2.3553,2.3101,2.2251,2.1505,2.1041,2.0512,1.9958,1.9854,1.9477,1.9097,1.9011,1.8953,1.8903,1.8896,1.8874,1.892,1.901,1.9055,1.9116,1.9146,1.9228,1.9272,1.9332,1.9369,1.9487,1.9567,1.9611,1.9625,1.9581,1.9435,1.9406,1.9479,1.9545,1.9682,1.9797,1.9904,2.001,2.0143,2.0315,2.0452,2.0579,2.0745,2.0909,2.1079,2.1183,2.1285,2.1332,2.1332,2.1363,2.134,2.134,2.1371,2.1332,2.123,2.1214,2.1222,2.1254,2.1294,2.131,2.1324,2.136,2.1399,2.1432,2.1487,2.1579,2.1686,2.1784,2.1806,2.1827,2.1827,2.1827,2.1827,2.1857,2.1886,2.1886,2.1878,2.1751,2.1601,2.1487,2.1776,2.1878,2.2989,2.3997,2.4822,2.5505,2.5778,2.5778,2.5749,2.5516,2.5256,2.5248,2.5248,2.5248,2.524,2.5248,2.5248,2.5278,2.5256,2.5256,2.5178,2.5162,2.5162,2.5076,2.5076,2.5076,2.5029,2.4902,2.4799,2.4774,2.4734,2.4597,2.4549,2.4508,2.4385,2.4317,2.4113,2.3891,2.3462,2.2655,2.2056,2.1495,2.1013,2.0951,2.0695,2.0326,2.0179,1.9989,1.9675,1.9389,1.9287,1.9265,1.931,1.931,1.9347,1.9347,1.945,1.9567,1.9596,1.9661,1.9741,1.9856,1.9891,1.9947,1.9897,1.9805,1.9769,1.9841,1.9947,2.0053,2.0158,2.027,2.0339,2.0501,2.0669,2.0794,2.0925,2.1151,2.134,2.1442,2.1573,2.1625,2.1639,2.167,2.17,2.17,2.17,2.1691,2.1683,2.1615,2.157,2.1548,2.1538,2.1576,2.1617,2.1609,2.1642,2.1677,2.1739,2.1756,2.1802,2.1915,2.2028,2.2086,2.2143,2.2135,2.2135,2.2172,2.2172,2.22,2.222,2.2183,2.2203,2.211,2.1936,2.2099,2.2551,2.381,2.481,2.5452,2.5826,2.5962,2.5954,2.5926,2.577,2.5584,2.5546,2.5546,2.5554,2.5554,2.5554,2.5562,2.5554,2.5592,2.5592,2.547,2.5454,2.5454,2.5378,2.5301,2.5309,2.5232,2.5123,2.5013,2.5021,2.4966,2.4878,2.4878,2.4806,2.4686,2.4605,2.4434,2.4253,2.4185,2.3732,2.2966,2.2454,2.1973,2.1895,2.1565,2.1229,2.106,2.0823,2.043,1.9945,1.9657,1.9501,1.9523,1.9567,1.9603,1.9669,1.9748,1.9792,1.9856,1.9891,1.9955,2.0025,2.0058,2.0054,2.0235,2.0138,2.0138,2.0208,2.022,2.0323,2.0392,2.0467,2.0561,2.0695,2.0925,2.1119,2.1301,2.1487,2.1609,2.1691,2.1781,2.1802,2.1861,2.1861,2.1861,2.1861,2.189,2.189,2.1911,2.1949,2.1907,2.1878,2.1874,2.1823,2.1822,2.1857,2.1878,2.1928,2.1994,2.2056,2.2118,2.2192,2.2293,2.2341,2.2377,2.2405,2.2432,2.2432,2.2487,2.2479,2.2506,2.2542,2.2533,2.2525,2.2371,2.2509,2.3463,2.4687,2.5638,2.6245,2.617,2.6054,2.6063,2.6007,2.5998,2.6007,2.5962,2.5962,2.5897,2.5905,2.5897,2.5889,2.5815,2.5852,2.5844,2.5754,2.5717,2.5634,2.5543,2.553,2.55,2.5424,2.5386,2.5355,2.5325,2.5294,2.5286,2.5201,2.5115,2.5013,2.4894,2.4718,2.4605,2.4441,2.4302,2.3826,2.3368,2.296,2.2487,2.2107,2.171,2.1643,2.1462,2.1188,2.0711,2.0154,1.9885,1.9763,1.9777,1.9848,1.9884,1.9955,1.999,1.999,2.0041,2.0096,2.0135,2.0143,2.0219,2.0399,2.0457,2.0491,2.0517,2.0535,2.0527,2.0595,2.0662,2.0761,2.0885,2.1151,2.1402,2.1587,2.1768,2.1819,2.189,2.1957,2.2007,2.2036,2.2036,2.2064,2.2056,2.2056,2.2047,2.2084,2.213,2.2147,2.2147,2.213,2.2098,2.2078,2.2077,2.2104,2.2169,2.2243,2.2324,2.2396,2.2424,2.2479,2.2533,2.256,2.2614,2.2641,2.2659,2.2694,2.2747,2.2747,2.2747,2.2799,2.279,2.2764,2.284,2.4099,2.5003,2.579,2.6383,2.6415,2.6415,2.6407,2.6372,2.638,2.6337,2.6337,2.6222,2.5926,2.5889,2.5926,2.5998,2.5962,2.5926,2.5889,2.5917,2.5881,2.5836,2.5754,2.5815,2.5778,2.5733,2.5725,2.5613,2.5562,2.5486,2.5386,2.5325,2.5286,2.5248,2.5123,2.4997,2.4846,2.4734,2.4597,2.4426,2.4066,2.3838,2.3583,2.3503,2.3039,2.2727,2.2495,2.2069,2.1586,2.0978,2.051,2.0192,2.0068,2.0089,2.0025,2.0096,2.008,2.0123,2.0208,2.0262,2.0289,2.0311,2.0405,2.052,2.0595,2.0636,2.0677,2.0695,2.0695,2.0736,2.0827,2.0917,2.1127,2.1364,2.1556,2.173,2.1848,2.1928,2.204,2.2123,2.2172,2.2212,2.2248,2.2276,2.2268,2.2324,2.2324,2.2315,2.2352,2.2388,2.2379,2.2379,2.2378,2.234,2.2319,2.2343,2.2415,2.2479,2.2525,2.2579,2.2605,2.2659,2.2712,2.2756,2.2833,2.2833,2.2859,2.2885,2.2944,2.2944,2.297,2.2995,2.302,2.302]},{"header":{"parameterUnit":"m.s-1","parameterCategory":1,"la1":31.0,"la2":29.5877,"lo1":-88.7671,"lo2":-86.6584,"dy":0.0162,"dx":0.0185,"nx":115,"ny":88,"refTime":"2023-09-11T12:00:00:Z","depth":0,"parameterNumber":3,"parameterNumberName":"V-component_of_WINDS"},"data":[0.0,0.0,0.0,0.0,0.0,0.0,0.0,0.0,0.0,0.0,0.0,0.0,0.0,0.0,0.0,0.0,0.0,0.0,0.0,0.0,0.0,0.0,0.0,0.0,0.0,0.0,0.0,0.0,0.0,0.0,0.0,0.0,0.0,0.0,0.0,0.0,0.0,0.0,0.0,0.0,0.0,0.0,0.0,0.0,0.0,0.0,0.0,0.0,0.0,0.0,0.0,0.0,0.0,0.0,0.0,0.0,0.0,0.0,0.0,0.0,0.0,0.0,0.0,0.0,0.0,0.0,0.0,0.0,0.0,0.0,0.0,0.0,0.0,0.0,0.0,0.0,0.0,0.0,0.0,0.0,0.0,0.0,0.0,0.0,0.0,0.0,0.0,0.0,0.0,0.0,0.0,0.0,0.0,0.0,0.0,0.0,0.0,0.0,0.0,0.0,0.0,0.0,0.0,0.0,0.0,0.0,0.0,0.0,0.0,0.0,0.0,0.0,0.0,0.0,0.0,0.0,0.0,0.0,0.0,0.0,0.0,0.0,0.0,0.0,0.0,0.0,0.0,0.0,0.0,0.0,0.0,0.0,0.0,0.0,0.0,0.0,0.0,0.0,0.0,0.0,0.0,0.0,0.0,0.0,0.0,0.0,0.0,0.0,0.0,0.0,0.0,0.0,0.0,0.0,0.0,0.0,0.0,0.0,0.0,0.0,0.0,0.0,0.0,0.0,0.0,0.0,0.0,0.0,0.0,0.0,0.0,0.0,0.0,0.0,0.0,0.0,0.0,0.0,0.0,0.0,0.0,0.0,0.0,0.0,0.0,0.0,0.0,0.0,0.0,0.0,0.0,0.0,0.0,0.0,0.0,0.0,0.0,0.0,0.0,0.0,0.0,0.0,0.0,0.0,0.0,0.0,0.0,0.0,0.0,0.0,0.0,0.0,0.0,0.0,0.0,0.0,0.0,0.0,0.0,0.0,0.0,0.0,0.0,0.0,0.0,0.0,0.0,0.0,0.0,0.0,0.0,0.0,0.0,0.0,0.0,0.0,0.0,0.0,0.0,0.0,0.0,0.0,0.0,0.0,0.0,0.0,0.0,0.0,0.0,0.0,0.0,0.0,0.0,0.0,0.0,0.0,0.0,0.0,0.0,0.0,0.0,0.0,0.0,0.0,0.0,0.0,0.0,0.0,0.0,0.0,0.0,0.0,0.0,0.0,0.0,0.0,0.0,0.0,0.0,0.0,0.0,0.0,0.0,0.0,0.0,0.0,0.0,0.0,0.0,0.0,0.0,0.0,0.0,0.0,0.0,0.0,0.0,0.0,0.0,0.0,0.0,0.0,0.0,0.0,0.0,0.0,0.0,0.0,0.0,0.0,0.0,0.0,0.0,0.0,0.0,0.0,0.0,0.0,0.0,0.0,0.0,0.0,0.0,0.0,0.0,0.0,0.0,0.0,0.0,0.0,0.0,0.0,0.0,0.0,0.0,0.0,0.0,0.0,0.0,0.0,0.0,0.0,0.0,0.0,0.0,0.0,0.0,0.0,0.0,0.0,0.0,0.0,0.0,0.0,0.0,0.0,0.0,0.0,0.0,0.0,0.0,0.0,0.0,0.0,0.0,0.0,0.0,0.0,0.0,0.0,0.0,0.0,0.0,0.0,0.0,0.0,0.0,0.0,0.0,0.0,0.0,0.0,0.0,0.0,0.0,0.0,0.0,0.0,0.0,0.0,0.0,0.0,0.0,0.0,0.0,0.0,0.0,0.0,0.0,0.0,0.0,0.0,0.0,0.0,0.0,0.0,0.0,0.0,0.0,0.0,0.0,0.0,0.0,0.0,0.0,0.0,0.0,0.0,0.0,0.0,0.0,0.0,0.0,0.0,0.0,0.0,0.0,0.0,0.0,0.0,0.0,0.0,0.0,0.0,0.0,0.0,0.0,0.0,0.0,0.0,0.0,0.0,0.0,0.0,0.0,0.0,0.0,0.0,0.0,0.0,0.0,0.0,0.0,0.0,0.0,0.0,0.0,0.0,0.0,0.0,0.0,0.0,0.0,0.0,0.0,0.0,0.0,0.0,0.0,0.0,0.0,0.0,0.0,0.0,0.0,0.0,0.0,0.0,0.0,0.0,0.0,0.0,0.0,0.0,0.0,0.0,0.0,0.0,0.0,0.0,0.0,0.0,0.0,0.0,0.0,0.0,0.0,0.0,0.0,0.0,0.0,0.0,0.0,0.0,0.0,0.0,0.0,0.0,0.0,0.0,0.0,0.0,0.0,0.0,0.0,0.0,0.0,0.0,0.0,0.0,0.0,0.0,0.0,0.0,0.0,0.0,0.0,0.0,0.0,0.0,0.0,0.0,0.0,0.0,0.0,0.0,0.0,0.0,0.0,0.0,0.0,0.0,0.0,0.0,0.0,0.0,0.0,0.0,0.0,0.0,0.0,0.0,0.0,0.0,0.0,0.0,0.0,0.0,0.0,0.0,0.0,0.0,0.0,0.0,0.0,0.0,0.0,0.0,0.0,0.0,0.0,0.0,0.0,0.0,0.0,0.0,0.0,0.0,0.0,0.0,0.0,0.0,0.0,0.0,0.0,0.0,0.0,0.0,0.0,0.0,0.0,0.0,0.0,0.0,0.0,0.0,0.0,0.0,0.0,0.0,0.0,0.0,0.0,0.0,0.0,0.0,0.0,0.0,0.0,0.0,0.0,0.0,0.0,0.0,0.0,0.0,0.0,0.0,0.0,0.0,0.0,0.0,0.0,0.0,0.0,0.0,0.0,0.0,0.0,0.0,0.0,0.0,0.0,0.0,0.0,0.0,0.0,0.0,0.0,0.0,0.0,0.0,0.0,0.0,0.0,0.0,0.0,0.0,0.0,0.0,0.0,0.0,0.0,0.0,0.0,0.0,0.0,0.0,0.0,0.0,0.0,0.0,0.0,0.0,0.0,0.0,0.0,0.0,0.0,0.0,0.0,0.0,0.0,0.0,0.0,0.0,0.0,0.0,0.0,0.0,0.0,0.0,0.0,0.0,0.0,0.0,0.0,0.0,0.0,0.0,0.0,0.0,0.0,0.0,0.0,0.0,0.0,0.0,0.0,0.0,0.0,0.0,0.0,0.0,0.0,0.0,0.0,0.0,0.0,0.0,0.0,0.0,0.0,0.0,0.0,0.0,0.0,0.0,0.0,0.0,0.0,0.0,0.0,0.0,0.0,0.0,0.0,0.0,0.0,0.0,0.0,0.0,0.0,0.0,0.0,0.0,0.0,0.0,0.0,0.0,0.0,0.0,0.0,0.0,0.0,0.0,0.0,0.0,0.0,0.0,0.0,0.0,0.0,0.0,0.0,0.0,0.0,0.0,0.0,0.0,0.0,0.0,0.0,0.0,0.0,0.0,0.0,0.0,0.0,0.0,0.0,0.0,0.0,0.0,0.0,0.0,0.0,0.0,0.0,0.0,0.0,0.0,0.0,0.0,0.0,0.0,0.0,0.0,0.0,0.0,0.0,0.0,0.0,0.0,0.0,0.0,0.0,0.0,0.0,0.0,0.0,0.0,0.0,0.0,0.0,0.0,0.0,0.0,0.0,0.0,0.0,0.0,0.0,0.0,0.0,0.0,0.0,0.0,0.0,0.0,0.0,0.0,0.0,0.0,0.0,0.0,0.0,0.0,0.0,0.0,0.0,0.0,0.0,0.0,0.0,0.0,0.0,0.0,0.0,0.0,0.0,0.0,0.0,0.0,0.0,0.0,0.0,0.0,0.0,0.0,0.0,0.0,0.0,0.0,0.0,0.0,0.0,0.0,0.0,0.0,0.0,0.0,0.0,0.0,0.0,0.0,0.0,0.0,0.0,0.0,0.0,0.0,0.0,0.0,0.0,0.0,0.0,0.0,0.0,0.0,0.0,0.0,0.0,0.0,0.0,0.0,0.0,0.0,0.0,0.0,0.0,0.0,0.0,0.0,0.0,0.0,0.0,0.0,0.0,0.0,0.0,0.0,0.0,0.0,0.0,0.0,0.0,0.0,0.0,0.0,0.0,0.0,0.0,0.0,0.0,0.0,0.0,0.0,0.0,0.0,0.0,0.0,0.0,0.0,0.0,0.0,0.0,0.0,0.0,0.0,0.0,0.0,0.0,0.0,0.0,0.0,0.0,0.0,0.0,0.0,0.0,0.0,0.0,0.0,0.0,0.0,0.0,0.0,0.0,0.0,0.0,0.0,0.0,0.0,0.0,0.0,0.0,0.0,0.0,0.0,0.0,0.0,0.0,0.0,0.0,0.0,-0.3674,0.0,0.0,0.0,0.0,0.0,0.0,0.0,0.0,0.0,0.0,0.0,0.0,0.0,0.0,0.0,0.0,0.0,0.0,0.0,0.0,0.0,0.0,0.0,0.0,0.0,0.0,0.0,0.0,0.0,0.0,0.0,0.0,0.0,0.0,0.0,0.0,0.0,0.0,0.0,0.0,0.0,0.0,0.0,0.0,0.0,0.0,0.0,0.0,0.0,0.0,0.0,0.0,0.0,0.0,0.0,0.0,0.0,0.0,0.0,0.0,0.0,0.0,0.0,0.0,0.0,0.0,0.0,0.0,0.0,0.0,0.0,0.0,0.0,0.0,0.0,0.0,0.0,0.0,0.0,0.0,0.0,0.0,0.0,0.0,0.0,0.0,0.0,0.0,0.0,0.0,0.0,0.0,0.0,0.0,0.0,0.0,0.0,0.0,0.0,0.0,0.0,0.0,0.0,0.0,0.0,0.0,0.0,0.0,0.0,0.0,-0.3109,-0.3313,-0.3508,-0.3702,-0.3868,0.0,0.0,0.0,0.0,0.0,0.0,0.0,0.0,0.0,0.0,0.0,0.0,0.0,0.0,0.0,0.0,0.0,0.0,0.0,0.0,0.0,0.0,0.0,0.0,0.0,0.0,0.0,0.0,0.0,0.0,0.0,0.0,0.0,0.0,0.0,0.0,0.0,0.0,0.0,0.0,0.0,0.0,0.0,0.0,0.0,0.0,0.0,0.0,0.0,0.0,0.0,0.0,0.0,0.0,0.0,0.0,0.0,0.0,0.0,0.0,0.0,0.0,0.0,0.0,0.0,0.0,0.0,0.0,0.0,0.0,0.0,0.0,0.0,0.0,0.0,0.0,0.0,0.0,0.0,0.0,0.0,0.0,0.0,0.0,0.0,0.0,0.0,0.0,0.0,0.0,0.0,0.0,0.0,0.0,0.0,0.0,0.0,0.0,0.0,0.0,0.0,0.0,0.0,0.0,0.0,0.0,0.0,0.0,0.0,0.0,0.0,0.0,-0.3541,-0.38,-0.4056,0.0,0.0,0.0,0.0,0.0,0.0,0.0,0.0,0.0,0.0,0.0,0.0,0.0,0.0,0.0,0.0,0.0,0.0,0.0,0.0,0.0,0.0,0.0,0.0,0.0,0.0,0.0,0.0,0.0,0.0,0.0,0.0,0.0,0.0,0.0,0.0,0.0,0.0,0.0,0.0,0.0,0.0,0.0,0.0,0.0,0.0,0.0,0.0,0.0,0.0,0.0,0.0,0.0,0.0,0.0,0.0,0.0,0.0,0.0,0.0,0.0,0.0,0.0,0.0,0.0,0.0,0.0,0.0,0.0,0.0,0.0,0.0,0.0,0.0,0.0,0.0,0.0,0.0,0.0,0.0,0.0,0.0,0.0,0.0,0.0,0.0,0.0,0.0,0.0,0.0,0.0,0.0,0.0,0.0,0.0,0.0,0.0,0.0,0.0,0.0,0.0,0.0,0.0,0.0,0.0,0.0,0.0,0.0,0.0,0.0,-0.2907,-0.3294,-0.3569,0.0,-0.425,0.0,0.0,0.0,0.0,0.0,0.0,0.0,0.0,0.0,0.0,0.0,0.0,0.0,0.0,0.0,0.0,0.0,0.0,0.0,0.0,0.0,0.0,0.0,0.0,0.0,0.0,0.0,0.0,0.0,0.0,0.0,0.0,0.0,0.0,0.0,0.0,0.0,0.0,0.0,0.0,0.0,0.0,0.0,0.0,0.0,0.0,0.0,0.0,0.0,0.0,0.0,0.0,0.0,0.0,0.0,0.0,0.0,0.0,0.0,0.0,0.0,0.0,0.0,0.0,0.0,0.0,0.0,0.0,0.0,0.0,0.0,0.0,0.0,0.0,0.0,0.0,0.0,0.0,0.0,0.0,0.0,0.0,0.0,0.0,0.0,0.0,0.0,0.0,0.0,0.0,0.0,0.0,0.0,0.0,0.0,0.0,0.0,0.0,0.0,0.0,0.0,0.0,0.0,0.0,0.0,0.0,0.0,0.0,0.0,0.0,-0.2618,-0.3165,-0.3667,-0.4029,0.0,0.0,0.0,0.0,0.0,0.0,0.0,0.0,0.0,0.0,0.0,0.0,0.0,0.0,0.0,0.0,0.0,0.0,0.0,0.0,0.0,0.0,0.0,0.0,0.0,0.0,0.0,0.0,0.0,0.0,0.0,0.0,0.0,0.0,0.0,0.0,0.0,0.0,0.0,0.0,0.0,0.0,0.0,0.0,0.0,0.0,0.0,0.0,0.0,0.0,0.0,0.0,0.0,0.0,0.0,0.0,0.0,0.0,0.0,0.0,0.0,0.0,0.0,0.0,0.0,0.0,0.0,0.0,0.0,0.0,0.0,0.0,0.0,0.0,0.0,0.0,0.0,0.0,0.0,0.0,0.0,0.0,0.0,0.0,0.0,0.0,0.0,0.0,0.0,0.0,0.0,0.0,0.0,0.0,0.0,0.0,0.0,0.0,0.0,0.0,0.0,0.0,0.0,0.0,0.0,0.0,0.0,0.0,0.0,0.0,-0.196,-0.2303,-0.3122,-0.3793,-0.4223,-0.4315,0.0,0.0,0.0,0.0,0.0,0.0,0.0,0.0,0.0,0.0,0.0,0.0,0.0,0.0,0.0,0.0,0.0,0.0,0.0,0.0,0.0,0.0,0.0,0.0,0.0,0.0,0.0,0.0,0.0,0.0,0.0,0.0,0.0,0.0,0.0,0.0,0.0,0.0,0.0,0.0,0.0,0.0,0.0,0.0,0.0,0.0,0.0,0.0,0.0,0.0,0.0,0.0,0.0,0.0,0.0,0.0,0.0,0.0,0.0,0.0,0.0,0.0,0.0,0.0,0.0,0.0,0.0,0.0,0.0,0.0,0.0,0.0,0.0,0.0,0.0,0.0,0.0,0.0,0.0,0.0,0.0,0.0,0.0,0.0,0.0,0.0,0.0,0.0,0.0,0.0,0.0,0.0,0.0,0.0,0.0,0.0,0.0,0.0,0.0,0.0,0.0,0.0,0.0,0.0,0.0,0.0,0.0,0.0,-0.1639,-0.1518,-0.2011,-0.3247,-0.3914,-0.4347,0.0,0.0,0.0,0.0,0.0,0.0,0.0,0.0,0.0,0.0,0.0,0.0,0.0,0.0,0.0,0.0,0.0,0.0,0.0,0.0,0.0,0.0,0.0,0.0,0.0,0.0,0.0,0.0,0.0,0.0,0.0,0.0,0.0,0.0,0.0,0.0,0.0,0.0,0.0,0.0,0.0,0.0,0.0,0.0,0.0,0.0,0.0,0.0,0.0,0.0,0.0,0.0,0.0,0.0,0.0,0.0,0.0,0.0,0.0,0.0,0.0,0.0,0.0,0.0,0.0,0.0,0.0,0.0,0.0,0.0,0.0,0.0,0.0,0.0,0.0,0.0,0.0,0.0,0.0,0.0,0.0,0.0,0.0,0.0,0.0,0.0,0.0,0.0,0.0,0.0,0.0,0.0,0.0,0.0,0.0,0.0,0.0,0.0,0.0,0.0,0.0,0.0,0.0,0.0,0.0,0.0,0.0,0.0,0.0,-0.0303,-0.1082,-0.1983,-0.2891,-0.381,-0.4347,0.0,0.0,0.0,0.0,0.0,0.0,0.0,0.0,0.0,0.0,0.0,0.0,0.0,0.0,0.0,0.0,0.0,0.0,0.0,0.0,0.0,0.0,0.0,0.0,0.0,0.0,0.0,0.0,0.0,0.0,0.0,0.0,0.0,0.0,0.0,0.0,0.0,0.0,0.0,0.0,0.0,0.0,0.0,0.0,0.0,0.0,0.0,0.0,0.0,0.0,0.0,0.0,0.0,0.0,0.0,0.0,0.0,0.0,0.0,0.0,0.0,0.0,0.0,0.0,0.0,0.0,0.0,0.0,0.0,0.0,0.0,0.0,0.0,0.0,0.0,0.0,0.0,0.0,0.0,0.0,0.0,0.0,0.0,0.0,0.0,0.0,0.0,0.0,0.0,0.0,0.0,0.0,0.0,0.0,0.0,0.0,0.0,0.0,0.0,0.0,0.0,0.0,0.0,0.0,0.0,0.0,0.0,0.0,0.0,0.0055,0.0,-0.155,-0.2891,-0.3844,-0.4358,0.0,0.0,0.0,0.0,0.0,0.0,0.0,0.0,0.0,0.0,0.0,0.0,0.0,0.0,0.0,0.0,0.0,0.0,0.0,0.0,0.0,0.0,0.0,0.0,0.0,0.0,0.0,0.0,0.0,0.0,0.0,0.0,0.0,0.0,0.0,0.0,0.0,0.0,0.0,0.0,0.0,0.0,0.0,0.0,0.0,0.0,0.0,0.0,0.0,0.0,0.0,0.0,0.0,0.0,0.0,0.0,0.0,0.0,0.0,0.0,0.0,0.0,0.0,0.0,0.0,0.0,0.0,0.0,0.0,0.0,0.0,0.0,0.0,0.0,0.0,0.0,0.0,0.0,0.0,0.0,0.0,0.0,0.0,0.0,0.0,0.0,0.0,0.0,0.0,0.0,0.0,0.0,0.0,0.0,0.0,0.0,0.0,0.0,0.0,0.0,0.0,0.0,0.0,0.0,0.0,0.0,0.0,0.0,-0.1616,-0.072,0.0028,-0.0822,-0.3288,-0.4001,-0.4402,0.0,0.0,0.0,0.0,0.0,0.0,0.0,0.0,0.0,0.0,0.0,0.0,0.0,0.0,0.0,0.0,0.0,0.0,0.0,0.0,0.0,0.0,0.0,0.0,0.0,0.0,0.0,0.0,0.0,0.0,0.0,0.0,0.0,0.0,0.0,0.0,0.0,0.0,0.0,0.0,0.0,0.0,0.0,0.0,0.0,0.0,0.0,0.0,0.0,0.0,0.0,0.0,0.0,0.0,0.0,0.0,0.0,0.0,0.0,0.0,0.0,0.0,0.0,0.0,0.0,0.0,0.0,0.0,0.0,0.0,0.0,0.0,0.0,0.0,0.0,0.0,0.0,0.0,0.0,0.0,0.0,0.0,0.0,0.0,0.0,0.0,0.0,0.0,0.0,0.0,0.0,0.0,0.0,0.0,0.0,0.0,0.0,0.0,0.0,0.0,0.0,0.0,0.0,0.0,0.0,0.0,0.0,0.0,0.0,-0.1275,-0.0618,-0.1219,-0.2962,-0.3217,-0.3686,0.0,0.0,0.0,0.0,0.0,0.0,0.0,0.0,0.0,0.0,0.0,0.0,0.0,0.0,0.0,0.0,0.0,0.0,0.0,0.0,0.0,0.0,0.0,0.0,0.0,0.0,0.0,0.0,0.0,0.0,0.0,0.0,0.0,0.0,0.0,0.0,0.0,0.0,0.0,0.0,0.0,0.0,0.0,0.0,0.0,0.0,0.0,0.0,0.0,0.0,0.0,0.0,0.0,0.0,0.0,0.0,0.0,0.0,0.0,0.0,0.0,0.0,0.0,0.0,0.0,0.0,0.0,0.0,0.0,0.0,0.0,0.0,0.0,0.0,0.0,0.0,0.0,0.0,0.0,0.0,0.0,0.0,0.0,0.0,0.0,0.0,0.0,0.0,0.0,0.0,0.0,0.0,0.0,0.0,0.0,0.0,0.0,0.0,0.0,0.0,0.0,0.0,0.0,0.0,0.0,0.0,0.0,0.0,0.0,-0.4545,-0.301,-0.2905,-0.4295,-0.3958,-0.4011,-0.4608,0.0,0.0,0.0,0.0,0.0,0.0,0.0,0.0,0.0,0.0,0.0,0.0,0.0,0.0,0.0,0.0,0.0,0.0,0.0,0.0,0.0,0.0,0.0,0.0,0.0,0.0,0.0,0.0,0.0,0.0,0.0,0.0,0.0,0.0,0.0,0.0,0.0,0.0,0.0,0.0,0.0,0.0,0.0,0.0,0.0,0.0,0.0,0.0,0.0,0.0,0.0,0.0,0.0,0.0,0.0,0.0,0.0,0.0,0.0,0.0,0.0,0.0,0.0,0.0,0.0,0.0,0.0,0.0,0.0,0.0,0.0,0.0,0.0,0.0,0.0,0.0,0.0,0.0,0.0,0.0,0.0,0.0,0.0,0.0,0.0,0.0,0.0,0.0,0.0,0.0,0.0,0.0,0.0,0.0,0.0,0.0,0.0,0.0,0.0,0.0,0.0,0.0,0.0,0.0,0.0,0.0,0.0,0.0,-0.9911,-0.6886,-0.5763,-0.6695,-0.585,-0.5259,0.0,0.0,0.0,0.0,0.0,0.0,0.0,0.0,0.0,0.0,0.0,0.0,0.0,0.0,0.0,0.0,0.0,0.0,0.0,0.0,0.0,0.0,0.0,0.0,0.0,0.0,0.0,0.0,0.0,0.0,0.0,0.0,0.0,0.0,0.0,0.0,0.0,0.0,0.0,0.0,0.0,0.0,0.0,0.0,0.0,0.0,0.0,0.0,0.0,0.0,0.0,0.0,0.0,0.0,0.0,0.0,0.0,0.0,0.0,0.0,0.0,0.0,0.0,0.0,0.0,0.0,0.0,0.0,0.0,0.0,0.0,0.0,0.0,0.0,0.0,0.0,0.0,0.0,0.0,0.0,0.0,0.0,0.0,0.0,0.0,0.0,0.0,0.0,0.0,0.0,0.0,0.0,0.0,0.0,0.0,0.0,0.0,0.0,0.0,0.0,0.0,0.0,0.0,0.0,0.0,0.0,0.0,0.0,0.0,-1.2654,-1.1691,-1.0105,-0.7966,-0.6828,-0.6269,0.0,0.0,0.0,0.0,0.0,0.0,0.0,0.0,0.0,0.0,0.0,0.0,0.0,0.0,0.0,0.0,0.0,0.0,0.0,0.0,0.0,0.0,0.0,0.0,0.0,0.0,0.0,0.0,0.0,0.0,0.0,0.0,0.0,0.0,0.0,0.0,0.0,0.0,0.0,0.0,0.0,0.0,0.0,0.0,0.0,0.0,0.0,0.0,0.0,0.0,0.0,0.0,0.0,0.0,0.0,0.0,0.0,0.0,0.0,0.0,0.0,0.0,0.0,0.0,0.0,0.0,0.0,0.0,0.0,0.0,0.0,0.0,0.0,0.0,0.0,0.0,0.0,0.0,0.0,0.0,0.0,0.0,0.0,0.0,0.0,0.0,0.0,0.0,0.0,0.0,0.0,0.0,0.0,0.0,0.0,0.0,0.0,0.0,0.0,0.0,0.0,0.0,0.0,0.0,0.0,0.0,0.0,0.0,-1.4205,-1.4922,-1.4975,-1.4005,-1.1916,-0.959,-0.8075,0.0,0.0,0.0,0.0,0.0,0.0,0.0,0.0,0.0,0.0,0.0,0.0,0.0,0.0,0.0,0.0,0.0,0.0,0.0,0.0,0.0,0.0,0.0,0.0,0.0,0.0,0.0,0.0,0.0,0.0,0.0,0.0,0.0,0.0,0.0,0.0,0.0,0.0,0.0,0.0,0.0,0.0,0.0,0.0,0.0,0.0,0.0,0.0,0.0,0.0,0.0,0.0,0.0,0.0,0.0,0.0,0.0,0.0,0.0,0.0,0.0,0.0,0.0,0.0,0.0,0.0,0.0,0.0,0.0,0.0,0.0,0.0,0.0,0.0,0.0,0.0,0.0,0.0,0.0,0.0,0.0,0.0,0.0,0.0,0.0,0.0,0.0,0.0,0.0,0.0,0.0,0.0,0.0,0.0,0.0,0.0,0.0,0.0,0.0,0.0,0.0,0.0,0.0,0.0,0.0,0.0,0.0,0.0,-1.5642,-1.6749,-1.7178,-1.7282,-1.6939,-1.3226,-1.0461,0.0,0.0,0.0,0.0,0.0,0.0,0.0,0.0,0.0,0.0,0.0,0.0,0.0,0.0,0.0,0.0,0.0,0.0,0.0,0.0,0.0,0.0,0.0,0.0,0.0,0.0,0.0,0.0,0.0,0.0,0.0,0.0,0.0,0.0,0.0,0.0,0.0,0.0,0.0,0.0,0.0,0.0,0.0,0.0,0.0,0.0,0.0,0.0,0.0,0.0,0.0,0.0,0.0,0.0,0.0,0.0,0.0,0.0,0.0,0.0,0.0,0.0,0.0,0.0,0.0,0.0,0.0,0.0,0.0,0.0,0.0,0.0,0.0,0.0,0.0,0.0,0.0,0.0,0.0,0.0,0.0,0.0,0.0,0.0,0.0,0.0,0.0,0.0,0.0,0.0,0.0,0.0,0.0,0.0,0.0,0.0,0.0,0.0,0.0,0.0,0.0,0.0,0.0,0.0,0.0,0.0,0.0,0.0,-1.7053,-1.8504,-1.8591,-1.8621,-1.8604,-1.5326,-1.2843,0.0,0.0,0.0,0.0,0.0,0.0,0.0,0.0,0.0,0.0,0.0,0.0,0.0,0.0,0.0,0.0,0.0,0.0,0.0,0.0,0.0,0.0,0.0,0.0,0.0,0.0,0.0,0.0,0.0,0.0,0.0,0.0,0.0,0.0,0.0,0.0,0.0,0.0,0.0,0.0,0.0,0.0,0.0,0.0,0.0,0.0,0.0,0.0,-1.91,0.0,0.0,0.0,0.0,0.0,0.0,0.0,0.0,0.0,0.0,0.0,0.0,0.0,0.0,0.0,0.0,0.0,0.0,0.0,0.0,0.0,0.0,0.0,0.0,0.0,0.0,0.0,0.0,0.0,0.0,0.0,0.0,0.0,0.0,0.0,0.0,0.0,0.0,0.0,0.0,0.0,0.0,0.0,0.0,0.0,0.0,0.0,0.0,0.0,0.0,0.0,0.0,0.0,0.0,0.0,0.0,0.0,0.0,0.0,-1.7683,-1.8958,-1.9171,-1.9444,-1.9694,-1.7358,-1.5016,0.0,0.0,0.0,0.0,0.0,0.0,0.0,0.0,0.0,0.0,0.0,0.0,0.0,0.0,0.0,0.0,0.0,0.0,0.0,0.0,0.0,0.0,0.0,0.0,0.0,0.0,0.0,0.0,0.0,0.0,0.0,0.0,0.0,0.0,0.0,0.0,0.0,0.0,0.0,0.0,0.0,0.0,0.0,0.0,0.0,0.0,0.0,0.0,0.0,0.0,0.0,0.0,0.0,0.0,0.0,0.0,0.0,0.0,0.0,0.0,0.0,0.0,0.0,0.0,0.0,0.0,0.0,0.0,0.0,0.0,0.0,0.0,0.0,0.0,0.0,0.0,0.0,0.0,0.0,0.0,0.0,0.0,0.0,0.0,0.0,0.0,0.0,0.0,0.0,0.0,0.0,0.0,0.0,0.0,0.0,0.0,0.0,0.0,0.0,0.0,0.0,0.0,0.0,0.0,0.0,0.0,0.0,-1.6528,-1.795,-1.903,-1.9443,-1.9944,-2.0525,-1.9029,-1.678,-1.3874,0.0,0.0,0.0,0.0,0.0,0.0,0.0,0.0,0.0,0.0,0.0,0.0,0.0,0.0,0.0,0.0,0.0,0.0,0.0,0.0,0.0,0.0,0.0,0.0,0.0,0.0,0.0,0.0,0.0,0.0,0.0,0.0,0.0,0.0,0.0,0.0,0.0,0.0,-1.8949,-1.9447,0.0,0.0,0.0,0.0,0.0,0.0,0.0,0.0,-1.8339,0.0,0.0,0.0,0.0,0.0,0.0,0.0,0.0,0.0,0.0,0.0,0.0,0.0,0.0,0.0,0.0,0.0,0.0,0.0,0.0,0.0,0.0,0.0,0.0,0.0,0.0,0.0,0.0,0.0,0.0,0.0,0.0,0.0,0.0,0.0,0.0,0.0,0.0,0.0,0.0,0.0,0.0,0.0,0.0,0.0,0.0,0.0,0.0,0.0,0.0,0.0,0.0,0.0,0.0,0.0,0.0,-1.6136,-1.7092,-1.828,-1.9689,-1.9757,-1.9976,-2.0398,-1.9503,-1.7719,-1.4999,0.0,0.0,0.0,0.0,0.0,0.0,0.0,0.0,0.0,0.0,0.0,0.0,0.0,0.0,0.0,0.0,0.0,0.0,0.0,0.0,0.0,0.0,0.0,0.0,0.0,0.0,0.0,0.0,0.0,0.0,0.0,0.0,0.0,0.0,0.0,0.0,0.0,0.0,0.0,-1.8622,-1.8669,0.0,0.0,0.0,0.0,0.0,0.0,0.0,0.0,-1.8945,0.0,0.0,0.0,0.0,0.0,0.0,0.0,0.0,0.0,0.0,0.0,0.0,0.0,0.0,0.0,0.0,0.0,0.0,0.0,0.0,0.0,0.0,0.0,0.0,0.0,0.0,0.0,0.0,0.0,0.0,0.0,0.0,0.0,0.0,0.0,0.0,0.0,0.0,0.0,0.0,0.0,0.0,0.0,0.0,0.0,0.0,0.0,0.0,0.0,0.0,0.0,0.0,0.0,0.0,0.0,-1.5474,-1.7195,-1.8576,-1.9616,-2.005,-2.0228,-2.014,-1.9899,-1.8561,0.0,0.0,0.0,0.0,0.0,0.0,0.0,0.0,0.0,0.0,0.0,0.0,0.0,0.0,0.0,0.0,0.0,0.0,0.0,0.0,0.0,0.0,0.0,0.0,0.0,0.0,0.0,0.0,0.0,0.0,0.0,0.0,0.0,0.0,0.0,0.0,0.0,0.0,0.0,0.0,-1.7684,-1.8129,-1.7332,0.0,0.0,0.0,0.0,0.0,0.0,-1.8777,-1.8577,0.0,0.0,0.0,0.0,0.0,0.0,0.0,0.0,0.0,0.0,0.0,0.0,0.0,0.0,0.0,0.0,0.0,0.0,0.0,0.0,0.0,0.0,0.0,0.0,0.0,0.0,0.0,0.0,0.0,0.0,0.0,0.0,0.0,0.0,0.0,0.0,0.0,0.0,0.0,0.0,0.0,0.0,0.0,0.0,0.0,0.0,0.0,0.0,0.0,0.0,0.0,0.0,0.0,0.0,0.0,-1.4817,-1.7207,-1.8763,-1.9416,-2.0254,-2.0392,-1.9841,-2.0108,-1.9098,0.0,0.0,0.0,0.0,0.0,0.0,0.0,0.0,0.0,0.0,0.0,0.0,0.0,0.0,0.0,0.0,0.0,0.0,0.0,0.0,0.0,0.0,0.0,0.0,0.0,0.0,0.0,0.0,0.0,0.0,0.0,0.0,0.0,0.0,0.0,0.0,0.0,0.0,0.0,0.0,0.0,-1.7586,-1.6845,-1.7012,0.0,0.0,0.0,0.0,-1.8066,-1.8249,0.0,0.0,0.0,0.0,0.0,0.0,0.0,0.0,0.0,0.0,0.0,0.0,0.0,0.0,0.0,0.0,0.0,0.0,0.0,0.0,0.0,0.0,0.0,0.0,0.0,0.0,0.0,0.0,0.0,0.0,0.0,0.0,0.0,0.0,0.0,0.0,0.0,0.0,0.0,0.0,0.0,0.0,0.0,0.0,0.0,0.0,0.0,0.0,0.0,0.0,0.0,0.0,0.0,0.0,0.0,0.0,-1.5482,-1.7374,-1.871,-1.9457,-2.0175,-2.0175,-1.9489,-1.9948,-1.9078,0.0,0.0,0.0,0.0,0.0,0.0,0.0,0.0,0.0,0.0,0.0,0.0,0.0,0.0,0.0,0.0,0.0,0.0,0.0,0.0,0.0,0.0,0.0,0.0,0.0,0.0,0.0,0.0,0.0,0.0,0.0,0.0,0.0,0.0,0.0,0.0,0.0,0.0,0.0,0.0,0.0,-1.6786,-1.6258,-1.6708,-1.7073,0.0,0.0,-1.685,-1.8031,-1.8075,0.0,0.0,0.0,0.0,0.0,0.0,0.0,0.0,0.0,0.0,0.0,0.0,0.0,0.0,0.0,0.0,0.0,0.0,0.0,0.0,0.0,0.0,0.0,0.0,0.0,0.0,0.0,0.0,0.0,0.0,0.0,0.0,0.0,0.0,0.0,0.0,0.0,0.0,0.0,0.0,0.0,0.0,0.0,0.0,0.0,0.0,0.0,0.0,0.0,0.0,0.0,0.0,0.0,0.0,0.0,-1.457,-1.6059,-1.7947,-1.9323,-2.0121,-2.08,-2.0854,-2.0205,-2.096,-2.0414,0.0,0.0,0.0,0.0,0.0,0.0,0.0,0.0,0.0,0.0,0.0,0.0,0.0,0.0,0.0,0.0,0.0,0.0,0.0,0.0,0.0,0.0,0.0,0.0,0.0,0.0,0.0,0.0,0.0,0.0,0.0,0.0,0.0,0.0,0.0,0.0,0.0,0.0,0.0,0.0,0.0,0.0,-1.5813,-1.6069,0.0,0.0,0.0,-1.6445,-1.6854,0.0,0.0,0.0,0.0,0.0,0.0,0.0,0.0,0.0,0.0,0.0,0.0,0.0,0.0,0.0,0.0,0.0,0.0,0.0,0.0,0.0,0.0,0.0,0.0,0.0,0.0,0.0,0.0,0.0,0.0,0.0,0.0,0.0,0.0,0.0,0.0,0.0,0.0,0.0,0.0,0.0,0.0,0.0,0.0,0.0,0.0,0.0,0.0,0.0,0.0,0.0,0.0,0.0,0.0,0.0,0.0,0.0,-1.6317,-1.8314,-1.9746,-2.0554,-2.1294,-2.1361,-2.0749,-2.1673,0.0,0.0,0.0,0.0,0.0,0.0,0.0,0.0,0.0,0.0,0.0,0.0,0.0,0.0,0.0,0.0,0.0,0.0,0.0,0.0,0.0,0.0,0.0,0.0,0.0,0.0,0.0,-1.1328,0.0,0.0,0.0,0.0,0.0,0.0,0.0,0.0,0.0,0.0,0.0,0.0,0.0,0.0,-1.4546,-1.5243,-1.5505,-1.5735,0.0,0.0,-1.6109,-1.6462,-1.7607,-1.7929,0.0,0.0,0.0,0.0,0.0,0.0,0.0,0.0,0.0,0.0,0.0,0.0,0.0,0.0,0.0,0.0,0.0,0.0,0.0,0.0,0.0,0.0,0.0,0.0,0.0,0.0,0.0,0.0,0.0,0.0,0.0,0.0,0.0,0.0,0.0,0.0,0.0,0.0,0.0,0.0,0.0,0.0,0.0,0.0,0.0,0.0,0.0,0.0,0.0,0.0,0.0,0.0,0.0,0.0,-1.5265,-1.6154,-1.8166,-1.9658,-2.0483,-2.1242,-2.1251,-2.0562,-2.1373,-2.1518,0.0,0.0,0.0,0.0,0.0,0.0,0.0,0.0,0.0,0.0,0.0,0.0,0.0,0.0,0.0,0.0,0.0,0.0,0.0,0.0,0.0,0.0,0.0,0.0,0.0,0.0,0.0,0.0,0.0,0.0,0.0,0.0,0.0,0.0,0.0,0.0,0.0,0.0,0.0,0.0,0.0,-1.3747,-1.4448,-1.5149,-1.5933,0.0,-1.6087,-1.606,-1.7868,-1.8992,-1.8998,-1.6968,0.0,0.0,0.0,0.0,0.0,0.0,0.0,0.0,0.0,0.0,0.0,0.0,0.0,0.0,0.0,0.0,0.0,0.0,0.0,0.0,0.0,0.0,0.0,0.0,0.0,0.0,0.0,0.0,0.0,0.0,0.0,0.0,0.0,0.0,0.0,0.0,0.0,0.0,0.0,0.0,0.0,0.0,0.0,0.0,0.0,0.0,0.0,0.0,0.0,0.0,0.0,0.0,0.0,-1.5161,-1.6523,-1.8243,-1.9809,-2.1195,-2.1532,-2.1576,-2.1429,-2.2048,-2.2154,0.0,0.0,0.0,0.0,0.0,0.0,0.0,0.0,0.0,0.0,0.0,0.0,0.0,0.0,0.0,0.0,0.0,0.0,0.0,0.0,0.0,0.0,0.0,0.0,0.0,0.0,0.0,0.0,-1.2338,-1.1623,-0.9979,0.0,0.0,0.0,0.0,0.0,0.0,0.0,0.0,0.0,0.0,-1.3706,-1.4944,-1.5594,0.0,0.0,-1.6669,-1.6623,-1.6887,-1.7798,-1.7843,-1.5874,-1.5521,0.0,0.0,0.0,0.0,0.0,0.0,0.0,0.0,0.0,0.0,0.0,0.0,0.0,0.0,0.0,0.0,0.0,0.0,0.0,0.0,0.0,0.0,0.0,0.0,0.0,0.0,0.0,0.0,0.0,0.0,0.0,0.0,0.0,0.0,0.0,0.0,0.0,0.0,0.0,0.0,0.0,0.0,0.0,0.0,0.0,0.0,0.0,0.0,0.0,0.0,0.0,0.0,-1.4832,-1.621,-1.8559,-2.0521,-2.196,-2.223,-2.246,-2.266,-2.3067,-2.3232,0.0,0.0,0.0,0.0,0.0,0.0,0.0,0.0,0.0,0.0,0.0,0.0,0.0,0.0,0.0,0.0,0.0,0.0,0.0,0.0,0.0,0.0,0.0,0.0,0.0,0.0,0.0,0.0,-1.211,-1.1274,-0.9618,0.0,0.0,0.0,0.0,0.0,0.0,0.0,0.0,0.0,0.0,-1.4055,-1.5092,-1.5567,-1.5985,-1.6417,-1.647,-1.6428,-1.6258,-1.6957,-1.708,-1.5626,0.0,0.0,0.0,0.0,0.0,0.0,0.0,0.0,0.0,0.0,0.0,0.0,0.0,0.0,0.0,0.0,0.0,0.0,0.0,0.0,0.0,0.0,0.0,0.0,0.0,0.0,0.0,0.0,0.0,0.0,-1.5332,0.0,0.0,0.0,0.0,0.0,0.0,0.0,0.0,0.0,0.0,0.0,0.0,0.0,0.0,0.0,0.0,0.0,0.0,0.0,0.0,0.0,0.0,-1.4299,-1.4915,-1.9138,-2.1767,-2.2678,-2.3441,-2.3918,-2.411,-2.4411,-2.4742,-2.5173,0.0,0.0,0.0,0.0,0.0,0.0,0.0,0.0,0.0,0.0,0.0,0.0,0.0,0.0,0.0,0.0,0.0,0.0,0.0,0.0,0.0,0.0,0.0,0.0,0.0,0.0,-0.8721,-0.9002,-0.9308,0.0,0.0,0.0,0.0,0.0,0.0,0.0,0.0,0.0,0.0,-1.2962,-1.4624,-1.4674,-1.4882,-1.5315,-1.6017,-1.5302,-1.5095,-1.6313,-1.69,-1.7108,0.0,0.0,0.0,0.0,0.0,0.0,0.0,0.0,0.0,0.0,0.0,0.0,0.0,0.0,0.0,0.0,0.0,0.0,0.0,0.0,0.0,0.0,0.0,0.0,0.0,0.0,0.0,-1.7835,-1.6939,0.0,0.0,0.0,0.0,0.0,0.0,0.0,0.0,0.0,0.0,0.0,-1.9575,-1.9483,0.0,0.0,0.0,0.0,0.0,0.0,0.0,0.0,0.0,0.0,0.0,0.0,-1.4995,-1.5945,-1.9933,-2.2533,-2.3465,-2.3811,-2.4057,-2.4193,-2.4385,-2.4718,-2.5277,0.0,0.0,0.0,0.0,0.0,0.0,0.0,0.0,0.0,0.0,0.0,0.0,0.0,0.0,0.0,0.0,0.0,0.0,0.0,0.0,0.0,0.0,0.0,0.0,0.0,-1.0623,0.0,0.0,0.0,0.0,0.0,0.0,0.0,0.0,0.0,0.0,0.0,-1.0621,-1.1682,-1.2192,-1.2827,-1.3835,-1.4245,-1.4942,0.0,0.0,0.0,0.0,0.0,0.0,0.0,0.0,0.0,0.0,0.0,0.0,0.0,0.0,-1.7153,-1.5424,-1.6317,-1.7135,-1.6677,0.0,0.0,0.0,0.0,0.0,0.0,0.0,0.0,0.0,0.0,0.0,0.0,0.0,0.0,-1.9479,0.0,-1.8211,0.0,0.0,0.0,0.0,0.0,0.0,0.0,0.0,-2.0315,-2.0949,-2.1469,-2.1387,-2.1319,0.0,-2.0391,-1.8392,0.0,0.0,0.0,0.0,0.0,0.0,0.0,0.0,-1.5642,-1.5971,-2.0771,-2.3629,-2.4247,-2.4613,-2.483,-2.4979,-2.5167,-2.5379,-2.5553,-2.4997,-2.4117,0.0,0.0,0.0,0.0,0.0,0.0,0.0,0.0,0.0,0.0,0.0,0.0,0.0,0.0,0.0,0.0,0.0,0.0,0.0,0.0,0.0,0.0,0.0,-1.0824,0.0,0.0,0.0,0.0,0.0,0.0,0.0,0.0,0.0,-0.9055,-1.0289,-1.1478,-1.2367,-1.269,-1.294,-1.3159,0.0,0.0,0.0,0.0,0.0,0.0,0.0,-1.5605,-1.4537,-1.5765,-1.7252,-1.8464,-1.9633,-2.0312,-2.0256,0.0,0.0,-1.7722,-1.8228,-1.8834,-1.836,-1.8242,-1.8313,-1.8331,-1.8436,-1.8658,0.0,0.0,0.0,0.0,0.0,0.0,0.0,0.0,-2.131,-2.0551,0.0,-1.9055,0.0,0.0,0.0,0.0,0.0,-2.1005,0.0,0.0,-2.4238,-2.5121,-2.3456,-2.3367,-2.3304,-2.3081,-2.1402,-2.0448,-2.0221,-1.9159,0.0,0.0,0.0,0.0,0.0,0.0,-1.6233,-1.536,-2.1664,-2.5013,-2.503,-2.5787,-2.6302,-2.646,-2.6716,-2.6592,-2.6059,-2.53,-2.4559,-2.3839,-2.1592,0.0,0.0,0.0,0.0,0.0,0.0,0.0,0.0,0.0,0.0,0.0,0.0,0.0,0.0,0.0,0.0,0.0,0.0,0.0,0.0,-1.112,0.0,0.0,0.0,0.0,0.0,0.0,0.0,0.0,0.0,0.0,-0.9748,-1.1314,-1.2567,-1.2523,0.0,0.0,0.0,0.0,-1.4543,-1.32,-1.266,-1.2674,-1.3205,-1.5909,-1.7599,-1.6634,0.0,0.0,-2.2251,-2.0791,-1.9889,-1.9856,-2.1488,-2.206,-2.0188,-1.9436,-1.9019,-1.8918,-1.8957,-1.8867,-1.893,-1.9364,-1.9497,-2.1292,0.0,0.0,0.0,0.0,-2.1091,-2.1757,-2.3061,-2.3229,-2.2807,-2.2048,-2.2073,0.0,0.0,0.0,0.0,0.0,0.0,-2.232,-2.3289,-2.3882,-2.4551,-2.5371,-2.5371,-2.5345,-2.5303,-2.4672,-2.4356,-2.429,-2.3943,-2.0866,-1.5323,0.0,0.0,0.0,0.0,-1.8329,-1.9608,-2.3595,-2.5774,-2.5862,-2.6142,-2.6364,-2.6537,-2.6784,-2.6856,-2.6708,-2.6579,-2.5919,-2.4729,-2.3975,0.0,0.0,0.0,0.0,0.0,0.0,0.0,0.0,0.0,0.0,0.0,0.0,0.0,0.0,0.0,0.0,0.0,0.0,0.0,-1.145,-1.2036,-1.1588,0.0,0.0,0.0,0.0,0.0,0.0,0.0,0.0,0.0,-1.2751,-1.1815,-1.1249,0.0,0.0,-1.1221,-1.108,-1.2627,-1.4063,-1.5021,-1.4775,0.0,-1.5541,-1.7693,-1.9734,-2.1239,-2.2278,-2.2726,-2.2505,-2.3432,-2.4268,-2.4303,-2.4499,-2.441,-2.3915,-2.3417,-2.2912,-2.2508,-2.2281,-2.2168,-2.2091,-2.2073,-2.2101,-2.2626,-2.2419,-2.1651,-2.1897,-2.2757,-2.2401,-2.3137,-2.4623,-2.4752,-2.4444,-2.3808,-2.4312,-2.3682,-2.2307,-2.233,0.0,0.0,0.0,-2.369,-2.5152,-2.4659,-2.5055,-2.6154,-2.6195,-2.6195,-2.6176,-2.6123,-2.6079,-2.6046,-2.5251,-2.277,-1.8735,0.0,0.0,-1.5728,-1.8614,-2.0525,-2.1442,-2.4451,-2.6107,-2.6258,-2.6355,-2.6486,-2.6615,-2.6792,-2.6917,-2.7016,-2.7111,-2.6776,-2.5975,-2.5336,-2.4248,0.0,0.0,0.0,0.0,0.0,0.0,0.0,0.0,0.0,0.0,0.0,-1.5042,-1.3895,0.0,0.0,0.0,-1.4099,-1.3424,-1.2552,-1.2539,0.0,0.0,0.0,0.0,0.0,0.0,0.0,-1.0547,-1.2611,-1.4236,-1.4462,-1.3334,-1.2758,-1.3432,-1.3183,-1.2912,-1.2794,0.0,-1.583,-1.6555,-1.6818,-1.6967,-1.7054,-1.9417,-2.1889,-2.3496,-2.3422,-2.323,-2.3396,-2.4625,-2.5582,-2.5687,-2.5519,-2.5264,-2.524,-2.5139,-2.4902,-2.4357,-2.4101,-2.3986,-2.3887,-2.3852,-2.3832,-2.3625,-2.3914,-2.2399,-2.2687,-2.4044,-2.3635,-2.4337,-2.5721,-2.5836,-2.5418,-2.4712,-2.5747,-2.5063,-2.3178,-2.322,0.0,-2.4811,-2.4756,-2.525,-2.6195,-2.6195,-2.6195,-2.6195,-2.6195,-2.6195,-2.6195,-2.6195,-2.6195,-2.6112,-2.4406,-2.3452,-2.3198,-2.3087,-2.1562,-1.8933,-2.1506,-2.2543,-2.1712,-2.4562,-2.615,-2.633,-2.6495,-2.6615,-2.6623,-2.6792,-2.6934,-2.7016,-2.7079,-2.7184,-2.7333,-2.5967,-2.5085,-2.471,0.0,0.0,0.0,0.0,0.0,0.0,0.0,0.0,0.0,0.0,0.0,0.0,0.0,0.0,0.0,-1.6197,0.0,-1.4719,-1.3194,0.0,0.0,0.0,-1.2521,-1.4473,-1.487,-1.4875,-1.4758,0.0,0.0,-1.5442,-1.5647,-1.6312,-1.7852,-1.8102,-1.7703,-1.6512,-1.7842,-1.8817,-1.7906,-1.8863,-1.9232,-1.8539,-2.1217,-2.3671,-2.4013,-2.4227,-2.4369,-2.4525,-2.4766,-2.4934,-2.5092,-2.5084,-2.5138,-2.5028,-2.5193,-2.5217,-2.4894,-2.4694,-2.4622,-2.4589,-2.4581,-2.4581,-2.4051,-2.4436,-2.4233,-2.4413,-2.4837,-2.5005,-2.5358,-2.5836,-2.5954,-2.59,-2.5829,-2.6081,-2.5902,-2.5405,-2.5438,-2.5589,-2.5831,-2.5805,-2.5952,-2.6195,-2.6195,-2.6195,-2.6195,-2.6195,-2.6195,-2.6195,-2.6195,-2.6195,-2.6187,-2.5735,-2.507,-2.4174,-2.3596,-2.2406,-2.0696,-2.1412,-2.2437,-2.3678,-2.4557,-2.5493,-2.6479,-2.6589,-2.6674,-2.6809,-2.6893,-2.695,-2.707,-2.7111,-2.7184,-2.7322,-2.6945,-2.6432,-2.5699,-2.3036,0.0,0.0,0.0,0.0,0.0,0.0,0.0,0.0,0.0,-1.5758,-1.431,0.0,-1.4242,0.0,-1.6944,-1.8319,-1.8276,-1.7617,0.0,0.0,-1.5389,-1.5099,-1.5499,-1.7,-1.7415,-1.5921,-1.7257,-1.8419,-1.8565,-1.8659,-1.9453,-2.1437,-1.884,-1.6729,-1.6866,-1.8516,-1.9787,-1.9892,-2.1195,-2.2199,-2.1772,-2.3281,-2.4609,-2.462,-2.4775,-2.4934,-2.4974,-2.5154,-2.5262,-2.5309,-2.5446,-2.5457,-2.5282,-2.5499,-2.5688,-2.5592,-2.527,-2.4981,-2.4981,-2.495,-2.4926,-2.4351,-2.4703,-2.5037,-2.524,-2.5347,-2.554,-2.572,-2.5889,-2.599,-2.6071,-2.6195,-2.6195,-2.6195,-2.6195,-2.6195,-2.6195,-2.6195,-2.6195,-2.6195,-2.6195,-2.6195,-2.6195,-2.6195,-2.6195,-2.6195,-2.6195,-2.6195,-2.6195,-2.6195,-2.6195,-2.5869,-2.5246,-2.4842,-2.3978,-2.2702,-2.1927,-2.2246,-2.3665,-2.4325,-2.528,-2.6539,-2.6683,-2.6656,-2.6471,-2.6535,-2.6349,-2.5848,-2.613,-2.6186,-2.5991,-2.6194,-2.6066,-2.5528,-2.3144,-2.1464,0.0,0.0,0.0,0.0,0.0,0.0,0.0,0.0,0.0,0.0,0.0,-1.5733,-1.5711,-1.8331,-1.9612,-1.8635,-1.8311,-1.8209,-1.8268,-1.8025,-1.8178,-1.9046,-2.0219,-2.0574,-1.9498,-2.05,-2.1327,-2.1486,-2.1532,-2.2023,-2.3435,-2.1421,-1.9854,-2.0001,-2.0987,-2.1768,-2.2039,-2.3015,-2.3806,-2.3709,-2.4603,-2.5203,-2.5076,-2.5193,-2.5339,-2.5362,-2.55,-2.5621,-2.5621,-2.5717,-2.5758,-2.5656,-2.5742,-2.5897,-2.5897,-2.5696,-2.5484,-2.5454,-2.5432,-2.5386,-2.4574,-2.4895,-2.5262,-2.5508,-2.5654,-2.5637,-2.5758,-2.5926,-2.599,-2.6063,-2.6195,-2.6195,-2.6195,-2.6195,-2.6195,-2.6195,-2.6195,-2.6195,-2.6195,-2.6195,-2.6195,-2.6195,-2.6195,-2.6195,-2.6195,-2.6195,-2.6195,-2.6195,-2.6195,-2.6195,-2.612,-2.5992,-2.5893,-2.5297,-2.4181,-2.2548,-2.2074,-2.2829,-2.4052,-2.5258,-2.637,-2.6526,-2.631,-2.5764,-2.5966,-2.5564,-2.4445,-2.4979,-2.5058,-2.4488,-2.4888,-2.5135,-2.51,-2.2854,-2.1471,0.0,-1.8948,0.0,0.0,0.0,0.0,0.0,0.0,0.0,0.0,-1.8525,-1.8039,-1.8023,-1.9996,-2.0494,-1.8462,-1.8271,-1.9019,-2.0826,-2.0799,-2.1389,-2.3179,-2.3516,-2.3537,-2.3537,-2.363,-2.3774,-2.3852,-2.3917,-2.4044,-2.4294,-2.421,-2.3815,-2.3799,-2.3734,-2.3826,-2.4162,-2.4279,-2.4446,-2.4799,-2.5297,-2.558,-2.545,-2.5524,-2.5675,-2.5701,-2.5836,-2.5917,-2.5917,-2.5926,-2.5942,-2.6028,-2.5987,-2.5979,-2.6011,-2.595,-2.5889,-2.5852,-2.5844,-2.5926,-2.4934,-2.5301,-2.5486,-2.5683,-2.5852,-2.5889,-2.5954,-2.5982,-2.6123,-2.6168,-2.6195,-2.6195,-2.6195,-2.6195,-2.6195,-2.6195,-2.6195,-2.6195,-2.6195,-2.6195,-2.6195,-2.6195,-2.6195,-2.6195,-2.6195,-2.6195,-2.6195,-2.6195,-2.6195,-2.6195,-2.5721,-2.4818,-2.4239,-2.3673,-2.3172,0.0,0.0,0.0,-2.4156,-2.4884,-2.526,-2.4919,-2.4752,-2.4784,-2.5332,0.0,-2.5271,-2.5402,-2.5366,-2.5208,-2.5249,0.0,0.0,0.0,0.0,0.0,0.0,0.0,0.0,0.0,0.0,0.0,-2.0244,-1.9753,-1.9677,-1.913,-1.9371,-2.0777,-2.1497,-2.2316,-2.3459,-2.3443,-2.3542,-2.3914,-2.3846,-2.3941,-2.4328,-2.4369,-2.4369,-2.4377,-2.4369,-2.4459,-2.4566,-2.4606,-2.4662,-2.4831,-2.491,-2.4942,-2.495,-2.4735,-2.4606,-2.4687,-2.4784,-2.5012,-2.5394,-2.5673,-2.5826,-2.5795,-2.5807,-2.5852,-2.5881,-2.5909,-2.599,-2.599,-2.6071,-2.6132,-2.6156,-2.614,-2.6132,-2.6148,-2.6132,-2.6096,-2.5926,-2.5926,-2.5926,-2.5293,0.0,-2.5795,-2.595,0.0,-2.6134,-2.6154,-2.6162,-2.6195,-2.6195,-2.6195,-2.6195,-2.6195,-2.6195,-2.6195,-2.6195,-2.6195,-2.6195,-2.6195,-2.6195,-2.6195,-2.6195,-2.6195,-2.6195,-2.6195,-2.6195,-2.6195,-2.6195,-2.6195,-2.6195,-2.5919,-2.5355,-2.4944,-2.4702,-2.453,-2.4164,-2.3981,-2.3946,-2.4468,-2.5086,-2.5788,-2.5639,-2.5464,-2.532,-2.5642,0.0,0.0,0.0,0.0,0.0,0.0,0.0,0.0,-2.4542,0.0,-2.4246,-2.3227,-2.2839,-2.3183,-2.2959,-2.2986,-2.3435,-2.3258,-2.2595,-2.1272,-2.1754,-2.248,-2.3389,-2.3575,-2.4017,-2.5005,-2.5084,-2.5037,-2.4942,-2.4902,-2.4831,-2.4791,-2.4823,-2.4878,-2.4958,-2.4966,-2.5068,-2.5169,-2.5177,-2.5246,-2.5331,-2.5362,-2.5446,-2.5546,-2.5309,-2.5138,-2.5222,-2.5149,-2.5285,-2.568,-2.5913,-2.6004,-2.5995,-2.5954,-2.599,-2.6059,-2.6071,-2.6115,-2.6115,-2.6168,-2.6195,-2.6195,-2.6195,-2.6195,-2.6195,-2.6195,-2.6176,-2.6059,-2.6051,-2.6051,-2.5597,-2.5811,-2.6099,-2.6247,-2.6247,-2.632,-2.6339,-2.6304,0.0,0.0,0.0,-2.6195,-2.6195,-2.6195,-2.6195,-2.6195,-2.6195,-2.6195,-2.6195,-2.6195,-2.6195,-2.6195,-2.6195,-2.6195,-2.6195,-2.6195,-2.6195,-2.6195,-2.6195,-2.6195,-2.6195,-2.6195,-2.6195,-2.6195,-2.6212,-2.6277,-2.5883,-2.5089,-2.488,-2.529,-2.6366,-2.6411,-2.6227,-2.5819,-2.5961,-2.554,-2.4523,-2.4979,-2.4985,-2.441,-2.4767,-2.4981,-2.4898,-2.4528,-2.4249,-2.4037,-2.3692,-2.3855,-2.4692,-2.4588,-2.492,-2.5933,-2.593,-2.5113,-2.3318,-2.4531,-2.5418,-2.541,-2.5402,-2.541,-2.5402,-2.541,-2.5363,-2.5262,-2.5254,-2.5224,-2.5154,-2.5193,-2.5309,-2.541,-2.547,-2.5538,-2.5605,-2.5642,-2.5672,-2.5717,-2.5717,-2.5783,-2.5844,-2.5659,-2.553,-2.5663,-2.5541,-2.5538,-2.5848,-2.6044,-2.6166,-2.6051,-2.6035,-2.6071,-2.6159,-2.6195,-2.6195,-2.6159,-2.6195,-2.6195,-2.6195,-2.6195,-2.6195,-2.6195,-2.6195,-2.6195,-2.6195,-2.6195,-2.6159,-2.5974,-2.6216,-2.626,-2.6355,-2.6467,-2.6485,-2.639,-2.6304,-2.6222,-2.6203,-2.6195,-2.6195,-2.6195,-2.6195,-2.6195,-2.6195,-2.6195,-2.6195,-2.6195,-2.6195,-2.6195,-2.6195,-2.6195,-2.6195,-2.6195,-2.6195,-2.6195,-2.6195,-2.6195,-2.6195,-2.6195,-2.6195,-2.6195,-2.6195,-2.6203,-2.6285,-2.623,-2.6083,-2.517,-2.4888,-2.5207,-2.4809,-2.462,-2.467,-2.5253,-2.5427,-2.5199,-2.5214,-2.5131,-2.4962,-2.5016,-2.5226,-2.5694,-2.5621,-2.5727,-2.6126,-2.6039,-2.6019,-2.6015,-2.595,-2.5928,-2.601,-2.5926,-2.5758,-2.548,-2.5663,-2.5798,-2.5815,-2.5807,-2.5815,-2.5824,-2.5815,-2.577,-2.577,-2.577,-2.577,-2.5741,-2.5778,-2.5778,-2.5787,-2.5807,-2.5815,-2.5852,-2.5844,-2.5844,-2.5881,-2.5909,-2.5917,-2.5954,-2.5881,-2.5844,-2.5881,-2.5852,-2.5872,-2.5974,-2.6096,-2.6201,-2.6176,-2.6159,-2.6168,-2.6212,-2.6203,-2.6203,-2.6212,-2.6203,-2.6203,-2.6195,-2.6195,-2.6203,-2.6203,-2.6195,-2.6195,-2.6195,-2.6195,-2.6195,-2.6374,-2.6521,-2.6581,-2.6683,-2.6717,-2.6623,-2.6521,-2.6399,-2.6372,-2.6318,-2.6203,-2.6195,-2.6195,-2.6195,-2.6195,-2.6195,-2.6195,-2.6195,-2.6195,-2.6195,-2.6195,-2.6195,-2.6195,-2.6195,-2.6195,-2.6195,-2.6195,-2.6195,-2.6195,-2.6195,-2.6195,-2.6195,-2.6195,-2.6195,-2.6195,-2.6222,-2.6285,-2.6279,-2.5916,-2.5773,-2.586,-2.5678,-2.5617,-2.5761,-2.6074,-2.6217,-2.6208,-2.6187,-2.6165,-2.6073,-2.6059,-2.6127,-2.6258,-2.625,-2.6295,-2.6418,-2.6425,-2.6347,-2.6266,-2.6231,-2.6159,-2.6123,-2.6096,-2.6059,-2.6051,-2.5967,-2.5922,-2.5897,-2.5926,-2.5926,-2.5926,-2.5926,-2.5926,-2.5926,-2.5926,-2.5926,-2.5926,-2.5926,-2.5917,-2.5954,-2.5954,-2.599,-2.6051,-2.6051,-2.6043,-2.6043,-2.6107,-2.6134,-2.6162,-2.6214,-2.6195,-2.6071,-2.6049,-2.6077,-2.6137,-2.6285,-2.6345,-2.6345,-2.6345,-2.6354,-2.6354,-2.6345,-2.6354,-2.6354,-2.6354,-2.6345,-2.6345,-2.6354,-2.6354,-2.6345,-2.6235,-2.6227,-2.632,-2.6345,-2.631,-2.6808,-2.6899,-2.6957,-2.6983,-2.6942,-2.6842,-2.6708,-2.6546,-2.6537,-2.6442,-2.6283,-2.6231,-2.6203,-2.6203,-2.6195,-2.6195,-2.6195,-2.6195,-2.6195,-2.6195,-2.6195,-2.6195,-2.6195,-2.6195,-2.6195,-2.6195,-2.6195,-2.6195,-2.6195,-2.6195,-2.6195,-2.6195,-2.6195,-2.6195,-2.6195,-2.6195,-2.6239,-2.6268,-2.6452,-2.6546,-2.658,-2.6623,-2.6725,-2.6826,-2.6809,-2.6842,-2.6942,-2.6909,-2.6884,-2.6868,-2.6817,-2.6717,-2.6572,-2.658,-2.6503,-2.6339,-2.6304,-2.6268,-2.6203,-2.6195,-2.6195,-2.6195,-2.6195,-2.6195,-2.6168,-2.6043,-2.597,-2.5962,-2.597,-2.597,-2.597,-2.597,-2.597,-2.597,-2.5962,-2.5979,-2.5979,-2.5979,-2.5962,-2.6026,-2.6026,-2.6107,-2.6195,-2.6231,-2.6247,-2.6274,-2.6329,-2.6339,-2.6339,-2.6442,-2.6424,-2.6329,-2.6262,-2.6245,-2.6322,-2.6459,-2.6519,-2.6493,-2.6485,-2.6485,-2.6485,-2.6485,-2.6485,-2.6485,-2.6485,-2.6485,-2.6485,-2.6485,-2.6485,-2.6477,-2.6383,-2.6333,-2.6468,-2.6485,-2.6459,-2.7253,-2.7386,-2.7373,-2.7239,-2.7094,-2.7062,-2.6923,-2.67,-2.67,-2.6598,-2.645,-2.6355,-2.6241,-2.6203,-2.6203,-2.6195,-2.6195,-2.6195,-2.6195,-2.6195,-2.6195,-2.6195,-2.6195,-2.6195,-2.6195,-2.6195,-2.6195,-2.6195,-2.6195,-2.6195,-2.6195,-2.6195,-2.6195,-2.6195,-2.6195,-2.6195,-2.6212,-2.6212,-2.6277,-2.6382,-2.6477,-2.6511,-2.6554,-2.6615,-2.6623,-2.6657,-2.6742,-2.6666,-2.6657,-2.6623,-2.658,-2.652,-2.6528,-2.652,-2.6442,-2.6295,-2.6304,-2.6268,-2.6195,-2.6195,-2.6195,-2.6195,-2.6195,-2.6195,-2.6195,-2.6168,-2.6168,-2.6176,-2.6184,-2.6176,-2.6184,-2.6159,-2.6123,-2.6123,-2.6123,-2.6176,-2.6176,-2.6176,-2.6168,-2.6159,-2.6168,-2.6239,-2.6268,-2.6304,-2.6347,-2.6459,-2.6477,-2.6503,-2.6511,-2.6546,-2.658,-2.6521,-2.6402,-2.6317,-2.6452,-2.6595,-2.663,-2.6536,-2.652,-2.652,-2.6546,-2.6554,-2.6485,-2.658,-2.6554,-2.6546,-2.652,-2.6485,-2.6511,-2.6546,-2.6529,-2.6495,-2.6485,-2.652,-2.652,-2.7704,-2.778,-2.7751,-2.7612,-2.7426,-2.7347,-2.7198,-2.6923,-2.6923,-2.6833,-2.6607,-2.6564,-2.6435,-2.6241,-2.6239,-2.6195,-2.6195,-2.6195,-2.6195,-2.6195,-2.6195,-2.6195,-2.6195,-2.6195,-2.6195,-2.6195,-2.6195,-2.6195,-2.6195,-2.6195,-2.6195,-2.6195,-2.6195,-2.6195,-2.6195,-2.6195,-2.6195,-2.6212,-2.6239,-2.6266,-2.6354,-2.6459,-2.6528,-2.6528,-2.6554,-2.6546,-2.6572,-2.6546,-2.6546,-2.652,-2.6528,-2.645,-2.639,-2.639,-2.6347,-2.625,-2.6266,-2.6231,-2.6195,-2.6195,-2.6195,-2.6195,-2.6195,-2.6195,-2.6195,-2.6195,-2.6195,-2.6195,-2.6195,-2.6195,-2.6203,-2.6195,-2.6195,-2.6195,-2.6195,-2.6203,-2.6195,-2.6214,-2.625,-2.6241,-2.6345,-2.638,-2.639,-2.6434,-2.6477,-2.6546,-2.6598,-2.6666,-2.6717,-2.6784,-2.6809,-2.6842,-2.6765,-2.6699,-2.6733,-2.6818,-2.6835,-2.6809,-2.6784,-2.6784,-2.6792,-2.6792,-2.6775,-2.6775,-2.6775,-2.6784,-2.6817,-2.6784,-2.6784,-2.6775,-2.6784,-2.6817,-2.686,-2.6801,-2.6784,-2.804,-2.8219,-2.8174,-2.8,-2.7769,-2.7672,-2.7461,-2.7253,-2.7221,-2.707,-2.6833,-2.68,-2.664,-2.6426,-2.6329,-2.6274,-2.6239,-2.6222,-2.6203,-2.6203,-2.6195,-2.6195,-2.6195,-2.6195,-2.6195,-2.6195,-2.6195,-2.6195,-2.6195,-2.6195,-2.6195,-2.6195,-2.6195,-2.6195,-2.6195,-2.6195,-2.6195,-2.6195,-2.6195,-2.6195,-2.6203,-2.6354,-2.6407,-2.645,-2.6442,-2.645,-2.6485,-2.6477,-2.6442,-2.6434,-2.645,-2.6364,-2.6277,-2.6277,-2.6258,-2.6203,-2.6195,-2.6195,-2.6195,-2.6195,-2.6195,-2.6195,-2.6195,-2.6195,-2.6195,-2.6195,-2.6195,-2.6212,-2.6239,-2.6231,-2.6203,-2.6195,-2.6212,-2.6231,-2.6231,-2.6239,-2.6283,-2.6312,-2.6347,-2.6382,-2.6434,-2.6554,-2.6589,-2.6623,-2.6683,-2.6767,-2.6784,-2.6833,-2.6957,-2.7031,-2.7128,-2.719,-2.7121,-2.7031,-2.7006,-2.7091,-2.7107,-2.7072,-2.7031,-2.7023,-2.7113,-2.7105,-2.712,-2.712,-2.7128,-2.7128,-2.712,-2.7128,-2.7128,-2.7128,-2.7128,-2.7137,-2.7186,-2.7145,-2.7137,-2.8035,-2.8779,-2.8651,-2.8421,-2.8165,-2.8037,-2.7838,-2.7561,-2.7518,-2.7315,-2.7094,-2.7023,-2.69,-2.6674,-2.6563,-2.6434,-2.6287,-2.6295,-2.625,-2.6195,-2.6203,-2.6203,-2.6195,-2.6195,-2.6212,-2.6203,-2.6203,-2.6195,-2.6203,-2.6195,-2.6195,-2.6195,-2.6195,-2.6195,-2.6195,-2.6195,-2.6195,-2.6195,-2.6195,-2.6195,-2.6195,-2.6212,-2.6274,-2.6312,-2.6295,-2.6347,-2.6477,-2.6382,-2.6312,-2.6295,-2.6266,-2.6203,-2.6195,-2.6195,-2.6212,-2.6203,-2.6195,-2.6195,-2.6195,-2.6195,-2.6195,-2.6195,-2.6195,-2.6195,-2.6212,-2.6195,-2.6195,-2.622,-2.6285,-2.6277,-2.6239,-2.6239,-2.6266,-2.6312,-2.6295,-2.6364,-2.645,-2.6477,-2.6485,-2.6511,-2.6572,-2.6708,-2.6851,-2.6959,-2.7007,-2.7038,-2.7085,-2.7117,-2.7213,-2.7333,-2.7426,-2.7452,-2.7387,-2.7191,-2.721,-2.7388,-2.7414,-2.7327,-2.7307,-2.7244,-2.7333,-2.7381,-2.7434,-2.7457,-2.7457,-2.7457,-2.7487,-2.7457,-2.7457,-2.7448,-2.7448,-2.7457,-2.7465,-2.7457,-2.7487,-2.8463,-2.9193,-2.9056,-2.8855,-2.8628,-2.8489,-2.8264,-2.8008,-2.7858,-2.7672,-2.7448,-2.7341,-2.7175,-2.6956,-2.6916,-2.6725,-2.646,-2.6442,-2.6407,-2.6389,-2.6389,-2.6389,-2.637,-2.6405,-2.6397,-2.6378,-2.6293,-2.6214,-2.6203,-2.6195,-2.6195,-2.6195,-2.6195,-2.6195,-2.6195,-2.6195,-2.6195,-2.6195,-2.6195,-2.6195,-2.6195,-2.6195,-2.6212,-2.6231,-2.6222,-2.6266,-2.6327,-2.6266,-2.6222,-2.6231,-2.6203,-2.6195,-2.6195,-2.6195,-2.6195,-2.6195,-2.6195,-2.6195,-2.6195,-2.6195,-2.6195,-2.6195,-2.6195,-2.6195,-2.6187,-2.6225,-2.6279,-2.6277,-2.6364,-2.6407,-2.6415,-2.6389,-2.6424,-2.6399,-2.6425,-2.6468,-2.6537,-2.6589,-2.6649,-2.6733,-2.6834,-2.6949,-2.707,-2.7175,-2.727,-2.7355,-2.7422,-2.7504,-2.7565,-2.7654,-2.7789,-2.7904,-2.7897,-2.7872,-2.7973,-2.7939,-2.7891,-2.7724,-2.7657,-2.7675,-2.7722,-2.776,-2.778,-2.7791,-2.7809,-2.78,-2.782,-2.7829,-2.78,-2.7809,-2.7809,-2.7829,-2.778,-2.784,-2.7849,-2.8871,-2.9504,-2.9437,-2.9277,-2.9129,-2.8948,-2.8713,-2.8446,-2.8281,-2.8055,-2.7809,-2.771,-2.7509,-2.7284,-2.7221,-2.7047,-2.6742,-2.6632,-2.658,-2.6511,-2.652,-2.6477,-2.6485,-2.6485,-2.6485,-2.6485,-2.6399,-2.6329,-2.631,-2.6318,-2.6283,-2.6222,-2.6231,-2.6203,-2.6212,-2.6195,-2.6195,-2.6195,-2.6195,-2.6195,-2.6195,-2.6195,-2.6195,-2.6195,-2.6195,-2.6195,-2.6195,-2.6195,-2.6195,-2.6195,-2.6195,-2.6195,-2.6195,-2.6195,-2.6195,-2.6195,-2.6195,-2.6195,-2.6195,-2.6195,-2.6203,-2.6222,-2.6206,-2.625,-2.631,-2.6349,-2.6358,-2.6426,-2.6486,-2.658,-2.6623,-2.6674,-2.6674,-2.6606,-2.6623,-2.6674,-2.6733,-2.6817,-2.6908,-2.7087,-2.7239,-2.7307,-2.7391,-2.7522,-2.7621,-2.7719,-2.7829,-2.7934,-2.8008,-2.8119,-2.8201,-2.829,-2.8011,-2.7978,-2.782,-2.7585,-2.7897,-2.7843,-2.7861,-2.7951,-2.7969,-2.8013,-2.8031,-2.8103,-2.8121,-2.8166,-2.8175,-2.8166,-2.8157,-2.8139,-2.829,-2.8343,-2.8299,-2.8298,-2.8181,-2.9275,-2.9926,-2.9867,-2.9713,-2.957,-2.9397,-2.9151,-2.8911,-2.8755,-2.8524,-2.8246,-2.8074,-2.7858,-2.7621,-2.7561,-2.7378,-2.7181,-2.6932,-2.6742,-2.6632,-2.658,-2.6521,-2.6521,-2.6537,-2.6529,-2.6521,-2.6495,-2.6485,-2.6485,-2.6485,-2.6434,-2.6347,-2.6312,-2.6293,-2.6195,-2.6231,-2.6203,-2.6203,-2.6239,-2.6195,-2.622,-2.6203,-2.6239,-2.6203,-2.6203,-2.6203,-2.6195,-2.6203,-2.6195,-2.6195,-2.6195,-2.6195,-2.6195,-2.6195,-2.6195,-2.6203,-2.6203,-2.6195,-2.6212,-2.6195,-2.6266,-2.6312,-2.6314,-2.6357,-2.6468,-2.6496,-2.6539,-2.6623,-2.6691,-2.675,-2.69,-2.7023,-2.7006,-2.6767,-2.6834,-2.6966,-2.707,-2.7094,-2.7198,-2.7448,-2.7612,-2.7722,-2.7809,-2.7828,-2.7886,-2.7977,-2.8004,-2.8009,-2.805,-2.815,-2.8527,-2.8408,-2.7908,-2.7578,-2.7313,-2.7098,-2.7579,-2.7934,-2.7976,-2.8048,-2.7955,-2.7961,-2.7885,-2.7918,-2.7906,-2.7924,-2.7896,-2.7938,-2.8099,-2.8144,-2.8447,-2.841,-2.82,-2.8059,-2.8315,-2.9553,-3.0242,-3.0239,-3.0115,-3.0003,-2.9801,-2.9595,-2.9352,-2.9198,-2.8947,-2.8709,-2.8549,-2.8335,-2.8083,-2.7998,-2.7856,-2.7603,-2.7452,-2.7227,-2.6973,-2.6867,-2.6842,-2.6851,-2.6842,-2.6809,-2.6767,-2.6784,-2.6691,-2.658,-2.658,-2.6503,-2.6434,-2.6434,-2.6434,-2.6407,-2.6432,-2.6415,-2.6424,-2.6415,-2.638,-2.6415,-2.6415,-2.6424,-2.6424,-2.6389,-2.6389,-2.638,-2.6291,-2.6203,-2.6195,-2.6195,-2.6195,-2.6203,-2.6195,-2.6195,-2.6212,-2.625,-2.6277,-2.6277,-2.6372,-2.6415,-2.6425,-2.6462,-2.6505,-2.6589,-2.6665,-2.674,-2.6825,-2.694,-2.7047,-2.7215,-2.7341,-2.7184,-2.7021,-2.7143,-2.7227,-2.7256,-2.7413,-2.771,-2.795,-2.8027,-2.8102,-2.8121,-2.7991,-2.7676,-2.7671,-2.746,-2.7268,-2.7253,-2.7494,-2.7405,-2.7365,-2.709,-2.713,-2.7036,-2.6854,-2.6971,-2.7351,-2.7539,-2.7785,-2.7788,-2.7772,-2.7719,-2.7703,-2.7696,-2.7698,-2.767,-2.7698,-2.7838,-2.7709,-2.7607,-2.7571,-2.7534,-2.7724,-2.7977,-2.9275,-3.0047,-3.0341,-3.0405,-3.0304,-3.0129,-2.9989,-2.982,-2.9647,-2.9439,-2.9198,-2.8988,-2.8775,-2.8513,-2.8412,-2.8273,-2.8073,-2.7963,-2.7794,-2.7508,-2.727,-2.7169,-2.7186,-2.7192,-2.7169,-2.7137,-2.7096,-2.7031,-2.69,-2.6834,-2.6742,-2.6691,-2.6649,-2.6606,-2.6563,-2.6563,-2.6563,-2.6563,-2.6563,-2.6572,-2.6572,-2.6555,-2.6555,-2.6563,-2.6572,-2.6572,-2.6572,-2.6452,-2.6372,-2.631,-2.6318,-2.6327,-2.6318,-2.6318,-2.6318,-2.631,-2.6364,-2.6382,-2.6417,-2.6511,-2.6589,-2.664,-2.6708,-2.6605,-2.6503,-2.6552,-2.6579,-2.6361,-2.6333,-2.6502,-2.6658,-2.6795,-2.6775,-2.6679,-2.6932,-2.7035,-2.7021,-2.7084,-2.7246,-2.7374,-2.7491,-2.7686,-2.7669,-2.7597,-2.7298,-2.723,-2.7041,-2.6842,-2.6851,-2.7007,-2.6984,-2.6937,-2.6843,-2.6883,-2.6906,-2.6716,-2.6453,-2.6664,-2.6906,-2.7214,-2.7415,-2.7424,-2.7404,-2.7451,-2.7459,-2.7524,-2.7505,-2.7411,-2.742,-2.7129,-2.6975,-2.7292,-2.7514,-2.7452,-2.7642,-2.8616,-2.9458,-3.0277,-3.0571,-3.05,-3.0418,-3.0327,-3.0191,-3.0068,-2.9882,-2.9693,-2.9458,-2.9221,-2.9023,-2.8847,-2.8694,-2.8551,-2.8437,-2.8349,-2.8201,-2.7899,-2.7675,-2.7591,-2.7561,-2.7561,-2.7539,-2.7487,-2.7417,-2.7386,-2.723,-2.7111,-2.704,-2.6975,-2.6867,-2.68,-2.6767,-2.6775,-2.68,-2.6758,-2.6758,-2.6758,-2.6725,-2.6767,-2.6725,-2.6758,-2.6758,-2.6767,-2.6725,-2.6649,-2.6537,-2.6511,-2.6511,-2.652,-2.652,-2.6503,-2.6503,-2.6486,-2.6412,-2.6514,-2.6303,-2.6379,-2.6519,-2.6606,-2.667,-2.6078,-2.6083,-2.6014,-2.5566,-2.553,-2.557,-2.5747,-2.5901,-2.5991,-2.5985,-2.6417,-2.6507,-2.6092,-2.623,-2.654,-2.658,-2.6557,-2.6702,-2.6939,-2.6935,-2.6886,-2.6908,-2.6888,-2.6758,-2.6815,-2.6783,-2.7148,-2.6955,-2.6448,-2.638,-2.6326,-2.6198,-2.5977,-2.614,-2.6335,-2.6548,-2.6795,-2.682,-2.6805,-2.69,-2.7057,-2.7171,-2.7109,-2.6847,-2.6812,-2.6734,-2.688,-2.7328,-2.7278,-2.6988,-2.6924,-2.8606,-2.9468,-3.0303,-3.066,-3.065,-3.0622,-3.0538,-3.0418,-3.0337,-3.0195,-3.0048,-2.9891,-2.9697,-2.9523,-2.9409,-2.9247,-2.9052,-2.8968,-2.8933,-2.886,-2.876,-2.8415,-2.8139,-2.8029,-2.8029,-2.8001,-2.7917,-2.7829,-2.7771,-2.7633,-2.7522,-2.7448,-2.7386,-2.7341,-2.7284,-2.7261,-2.7215,-2.7198,-2.7117,-2.7094,-2.7077,-2.7077,-2.7045,-2.7077,-2.7085,-2.7068,-2.7077,-2.7085,-2.6923,-2.6674,-2.6649,-2.6649,-2.6598,-2.6556,-2.6539,-2.6497,-2.6167,-2.5929,-2.5924,-2.5612,-2.5432,-2.5476,-2.5793,-2.5611,-2.5532,-2.5664,-2.5712,-2.5639,-2.5749,-2.5844,-2.602,-2.6127,-2.6066,-2.5858,-2.6112,-2.6363,-2.6405,-2.6528,-2.663,-2.6786,-2.6859,-2.6917,-2.6892,-2.6666,-2.647,-2.6405,-2.618,-2.5899,-2.6107,-2.612,-2.6294,-2.6063,-2.5736,-2.5726,-2.5674,-2.5583,-2.5554,-2.5682,-2.5774,-2.5815,-2.5913,-2.589,-2.586,-2.5849,-2.6159,-2.6323,-2.6071,-2.5808,-2.5953,-2.6283,-2.6215,-2.634,-2.6117,-2.5873,-2.5951,-2.7957,-2.8835,-2.9703,-3.0281,-3.0606,-3.0634,-3.0615,-3.0551,-3.0541,-3.0461,-3.0365,-3.0226,-3.0072,-2.9942,-2.9845,-2.968,-2.9512,-2.9503,-2.9503,-2.9493,-2.951,-2.92,-2.8792,-2.8649,-2.8615,-2.8558,-2.8467,-2.8393,-2.8324,-2.8156,-2.8038,-2.7964,-2.7869,-2.7829,-2.78,-2.7771,-2.773,-2.7692,-2.7616,-2.7577,-2.7568,-2.7577,-2.7568,-2.7568,-2.756,-2.7472,-2.7119,-2.6761,-2.6502,-2.643,-2.6437,-2.6294,-2.5979,-2.5993,-2.5985,-2.5959,-2.5651,-2.5463,-2.5523,-2.5248,-2.5134,-2.5256,-2.5393,-2.5323,-2.5204,-2.529,-2.5445,-2.5086,-2.5239,-2.5386,-2.5575,-2.5708,-2.5669,-2.5508,-2.5674,-2.5883,-2.5948,-2.5914,-2.6048,-2.618,-2.6289,-2.6403,-2.6466,-2.6146,-2.6012,-2.589,-2.569,-2.5522,-2.5493,-2.5405,-2.5442,-2.5465,-2.5496,-2.5581,-2.5653,-2.5586,-2.5484,-2.5554,-2.5548,-2.5505,-2.5475,-2.5415,-2.5497,-2.5561,-2.5518,-2.5484,-2.5464,-2.5454,-2.5625,-2.5766,-2.5503,-2.5474,-2.5474,-2.5454,-2.5449,-2.694,-2.7788,-2.8763,-2.9602,-3.0246,-3.047,-3.0526,-3.0575,-3.0614,-3.0614,-3.0554,-3.0464,-3.0368,-3.0307,-3.0194,-3.0087,-2.9968,-2.9949,-2.9976,-2.9992,-3.0008,-2.9818,-2.9394,-2.9288,-2.9247,-2.9197,-2.9133,-2.9037,-2.8937,-2.8764,-2.8655,-2.8588,-2.8474,-2.8375,-2.834,-2.8288,-2.8272,-2.8237,-2.8228,-2.8192,-2.8192,-2.8183,-2.8103,-2.7888,-2.7647,-2.737,-2.6826,-2.6291,-2.5923,-2.5988,-2.6039,-2.5749,-2.5167,-2.5092,-2.5152,-2.519,-2.5205,-2.5126,-2.5208,-2.5156,-2.5198,-2.526,-2.5458,-2.5501,-2.4976,-2.5004,-2.4946,-2.4515,-2.4376,-2.4703,-2.4881,-2.4938,-2.5108,-2.5231,-2.5284,-2.5157,-2.5032,-2.5008,-2.5053,-2.5118,-2.5235,-2.5258,-2.5311,-2.5385,-2.5476,-2.5716,-2.5521,-2.5496,-2.5456,-2.5469,-2.5506,-2.5539,-2.5564,-2.5596,-2.5653,-2.5686,-2.5572,-2.5529,-2.55,-2.5471,-2.5488,-2.5485,-2.5556,-2.5584,-2.5548,-2.5549,-2.556,-2.5579,-2.5569,-2.556,-2.5513,-2.5541,-2.556,-2.5523,-2.5504,-2.63,-2.6609,-2.8156,-2.8903,-2.9186,-2.9863,-3.025,-3.0362,-3.0434,-3.049,-3.0581,-3.0555,-3.053,-3.0521,-3.0479,-3.0457,-3.0327,-3.0317,-3.0362,-3.0331,-3.0367,-3.0325,-3.0081,-2.9906,-2.9817,-2.9766,-2.9677,-2.9585,-2.9501,-2.9373,-2.9268,-2.9181,-2.9119,-2.9052,-2.8972,-2.891,-2.89,-2.8874,-2.8847,-2.8769,-2.8723,-2.8705,-2.8425,-2.7844,-2.7182,-2.675,-2.6563,-2.6354,-2.5973,-2.561,-2.5609,-2.5611,-2.5401,-2.5402,-2.5412,-2.5315,-2.4968,-2.4788,-2.4876,-2.4581,-2.4248,-2.4566,-2.4752,-2.4626,-2.4631,-2.4757,-2.4789,-2.4662,-2.4796,-2.4926,-2.5078,-2.5159,-2.5231,-2.5312,-2.5379,-2.5401,-2.5362,-2.534,-2.5323,-2.5373,-2.54,-2.5429,-2.5459,-2.5502,-2.5527,-2.5523,-2.5517,-2.5537,-2.5523,-2.5497,-2.5488,-2.5498,-2.5512,-2.5524,-2.5547,-2.5526,-2.5354,-2.5298,-2.5299,-2.5315,-2.5338,-2.5408,-2.5424,-2.5513,-2.5598,-2.5595,-2.5544,-2.553,-2.5488,-2.5517,-2.5517,-2.5488,-2.5478,-2.5495,-2.5495,-2.5391,-2.5862,-2.6787,-2.7615,-2.8395,-2.8956,-2.9494,-2.9934,-3.0128,-3.025,-3.038,-3.0463,-3.0527,-3.0548,-3.0557,-3.0541,-3.0505,-3.0486,-3.0453,-3.0419,-3.043,-3.0408,-3.0359,-3.0243,-3.016,-3.0141,-3.0114,-3.0041,-2.9968,-2.9912,-2.9844,-2.9785,-2.9706,-2.9624,-2.9583,-2.9524,-2.95,-2.9466,-2.9425,-2.9239,-2.8892,-2.8809,-2.8407,-2.7547,-2.6726,-2.625,-2.6249,-2.5856,-2.5489,-2.5215,-2.5226,-2.5199,-2.5003,-2.5001,-2.5031,-2.4951,-2.4784,-2.4567,-2.4548,-2.4432,-2.4287,-2.4416,-2.4556,-2.4672,-2.4769,-2.4895,-2.4956,-2.5041,-2.5129,-2.5245,-2.5366,-2.5386,-2.5405,-2.5435,-2.5482,-2.5478,-2.5458,-2.544,-2.5447,-2.5488,-2.5491,-2.5497,-2.5526,-2.5519,-2.5496,-2.5437,-2.543,-2.5444,-2.541,-2.5383,-2.5356,-2.537,-2.5394,-2.5416,-2.5436,-2.5322,-2.5053,-2.5004,-2.4984,-2.5011,-2.5043,-2.5136,-2.5229,-2.5334,-2.5422,-2.5459,-2.5418,-2.5421,-2.5376,-2.535,-2.5341,-2.535,-2.5341,-2.5315,-2.5315,-2.4346,-2.5069,-2.5193,-2.6139,-2.7422,-2.7866,-2.8503,-2.9211,-2.963,-2.9794,-3.0008,-3.0172,-3.0276,-3.038,-3.0396,-3.0419,-3.0398,-3.0375,-3.0311,-3.0253,-3.0207,-3.0178,-3.0129,-3.0078,-3.0078,-3.0259,-3.0329,-3.031,-3.0285,-3.0298,-3.0209,-3.0211,-3.0172,-3.0057,-3.0047,-3.0055,-2.9995,-2.9935,-2.9681,-2.9379,-2.8789,-2.8591,-2.802,-2.7201,-2.6378,-2.5947,-2.5813,-2.545,-2.502,-2.4963,-2.4954,-2.4718,-2.4439,-2.4265,-2.4321,-2.4383,-2.4547,-2.4636,-2.4727,-2.4695,-2.4749,-2.4865,-2.4971,-2.5072,-2.5148,-2.5202,-2.5248,-2.5298,-2.5366,-2.5385,-2.5464,-2.5429,-2.5431,-2.5444,-2.545,-2.54,-2.5362,-2.5382,-2.5359,-2.5446,-2.5421,-2.5393,-2.5391,-2.5383,-2.5367,-2.5348,-2.533,-2.5293,-2.5236,-2.5188,-2.5129,-2.5118,-2.5122,-2.5268,-2.5304,-2.4828,-2.4594,-2.4529,-2.4553,-2.462,-2.4653,-2.4689,-2.4784,-2.509,-2.5197,-2.5207,-2.5197,-2.5148,-2.5129,-2.5138,-2.5088,-2.504,-2.5059,-2.5107,-2.5088,-2.3431,-2.3615,-2.4341,-2.4882,-2.5357,-2.6644,-2.7447,-2.7963,-2.8688,-2.9193,-2.9435,-2.9637,-2.9818,-2.9944,-3.0052,-3.006,-3.0014,-2.998,-2.9922,-2.9829,-2.9755,-2.9699,-2.9626,-2.9521,-2.9546,-2.9783,-3.0009,-3.0203,-3.0322,-3.038,-3.03,-3.0346,-3.032,-3.0284,-3.0279,-3.0323,-3.0147,-2.9934,-2.9493,-2.8987,-2.8652,-2.8087,-2.7478,-2.665,-2.5891,-2.5571,-2.5478,-2.5346,-2.5243,-2.5224,-2.5243,-2.5178,-2.5011,-2.4847,-2.481,-2.4836,-2.4868,-2.4925,-2.5014,-2.5062,-2.5131,-2.521,-2.5261,-2.5328,-2.5387,-2.5424,-2.5393,-2.5389,-2.5386,-2.5383,-2.5416,-2.5338,-2.5318,-2.5313,-2.5213,-2.5099,-2.5043,-2.5005,-2.5033,-2.5138,-2.5174,-2.5208,-2.5148,-2.5081,-2.5001,-2.4946,-2.4901,-2.4847,-2.4769,-2.4746,-2.4728,-2.4757,-2.4796,-2.4989,-2.5178,-2.45,-2.4044,-2.3946,-2.3976,-2.4107,-2.4136,-2.4145,-2.4292,-2.4465,-2.4731,-2.4847,-2.4839,-2.4831,-2.478,-2.4714,-2.4696,-2.4686,-2.4672,-2.4667,-2.4691,-2.2704,-2.2781,-2.3189,-2.365,-2.4199,-2.4989,-2.5967,-2.6835,-2.7477,-2.8109,-2.8613,-2.8947,-2.9163,-2.9317,-2.9432,-2.9466,-2.9413,-2.9423,-2.9279,-2.9147,-2.9048,-2.8955,-2.8842,-2.8732,-2.8763,-2.8868,-2.9146,-2.9593,-2.9941,-3.004,-3.0069,-3.0101,-3.0144,-3.0182,-3.0069,-2.9751,-2.9673,-2.9439,-2.8784,-2.8098,-2.7682,-2.6945,-2.6274,-2.5884,-2.5563,-2.5329,-2.5301,-2.5302,-2.5302,-2.5292,-2.5292,-2.5302,-2.5244,-2.5177,-2.5126,-2.5174,-2.52,-2.5226,-2.5298,-2.5299,-2.5317,-2.534,-2.538,-2.5399,-2.5413,-2.5398,-2.5348,-2.5284,-2.5227,-2.5192,-2.5172,-2.5101,-2.5016,-2.4929,-2.4838,-2.4722,-2.4606,-2.4522,-2.455,-2.4633,-2.4666,-2.4695,-2.4777,-2.4691,-2.4604,-2.4554,-2.4482,-2.4386,-2.4286,-2.4234,-2.4216,-2.422,-2.4201,-2.4181,-2.4342,-2.3923,-2.3381,-2.3304,-2.3382,-2.3503,-2.3545,-2.3523,-2.3557,-2.369,-2.3961,-2.4233,-2.445,-2.4434,-2.438,-2.428,-2.4227,-2.419,-2.4209,-2.4227,-2.421,-2.2051,-2.2099,-2.2099,-2.2522,-2.3153,-2.3471,-2.4305,-2.5457,-2.6155,-2.6876,-2.7601,-2.8065,-2.8323,-2.85,-2.8617,-2.8682,-2.8603,-2.8576,-2.8373,-2.8218,-2.8108,-2.7978,-2.7843,-2.7761,-2.7734,-2.7736,-2.7878,-2.8448,-2.919,-2.9437,-2.9526,-2.9551,-2.9682,-2.9644,-2.937,-2.8952,-2.8711,-2.8222,-2.7634,-2.6812,-2.6027,-2.5414,-2.5052,-2.5062,-2.5115,-2.5103,-2.5074,-2.5082,-2.5098,-2.5098,-2.5124,-2.5156,-2.515,-2.5146,-2.5172,-2.5223,-2.5292,-2.5356,-2.5353,-2.5341,-2.531,-2.5279,-2.5303,-2.5286,-2.5224,-2.5134,-2.5091,-2.4986,-2.4898,-2.4825,-2.4774,-2.4695,-2.4571,-2.4454,-2.4344,-2.4234,-2.4082,-2.395,-2.3795,-2.3884,-2.4035,-2.4107,-2.4126,-2.4127,-2.3998,-2.3942,-2.3874,-2.3786,-2.3683,-2.3629,-2.3593,-2.3606,-2.3531,-2.3342,-2.33,-2.318,-2.2737,-2.2501,-2.2667,-2.2868,-2.2879,-2.2871,-2.2895,-2.2933,-2.3091,-2.3369,-2.3701,-2.3939,-2.3771,-2.3678,-2.3693,-2.3663,-2.3605,-2.3596,-2.3575,-2.1407,-2.1407,-2.1415,-2.1503,-2.1792,-2.2467,-2.2953,-2.348,-2.4818,-2.5643,-2.6116,-2.6766,-2.7243,-2.7531,-2.7694,-2.7722,-2.7582,-2.7432,-2.7276,-2.7139,-2.7011,-2.6854,-2.6693,-2.6638,-2.6604,-2.6611,-2.6667,-2.7443,-2.813,-2.8489,-2.8716,-2.8738,-2.8818,-2.8693,-2.8099,-2.7856,-2.7663,-2.6954,-2.6205,-2.5444,-2.4809,-2.4553,-2.4505,-2.4542,-2.4564,-2.4568,-2.4581,-2.4604,-2.466,-2.4669,-2.4732,-2.4729,-2.4695,-2.4673,-2.4651,-2.4741,-2.4948,-2.5233,-2.5169,-2.5151,-2.5087,-2.5011,-2.4967,-2.4938,-2.4812,-2.4711,-2.4591,-2.4489,-2.4393,-2.4318,-2.4233,-2.4109,-2.4016,-2.3892,-2.3753,-2.3605,-2.345,-2.3271,-2.3127,-2.2942,-2.3026,-2.3245,-2.3347,-2.3379,-2.3379,-2.3319,-2.325,-2.3147,-2.3043,-2.2953,-2.3009,-2.3022,-2.2781,-2.2548,-2.2478,-2.2338,-2.2041,-2.1761,-2.1974,-2.2177,-2.215,-2.2141,-2.211,-2.218,-2.2318,-2.2522,-2.2857,-2.3025,-2.3038,-2.301,-2.2957,-2.2935,-2.293,-2.2921,-2.2953,-2.0405,-2.0665,-2.0673,-2.0739,-2.0893,-2.1285,-2.1769,-2.2319,-2.307,-2.4016,-2.4911,-2.5397,-2.5942,-2.6504,-2.667,-2.6629,-2.6488,-2.6362,-2.62,-2.6052,-2.59,-2.5737,-2.5599,-2.5496,-2.543,-2.5443,-2.5509,-2.5639,-2.6482,-2.7227,-2.7661,-2.7662,-2.7781,-2.7556,-2.6777,-2.6504,-2.5932,-2.5256,-2.4581,-2.4049,-2.3806,-2.3764,-2.3794,-2.3869,-2.3869,-2.3916,-2.3962,-2.4015,-2.4041,-2.4041,-2.4086,-2.4067,-2.4041,-2.4025,-2.4017,-2.4007,-2.411,-2.4374,-2.4661,-2.4718,-2.4643,-2.4544,-2.4464,-2.4316,-2.4211,-2.409,-2.3989,-2.3855,-2.3742,-2.3678,-2.3614,-2.3445,-2.3311,-2.3191,-2.3064,-2.2903,-2.2737,-2.2574,-2.2388,-2.2205,-2.2057,-2.2211,-2.2383,-2.2461,-2.2487,-2.2548,-2.2478,-2.2371,-2.2243,-2.2113,-2.2237,-2.2456,-2.2107,-2.1753,-2.1703,-2.1606,-2.1259,-2.1048,-2.124,-2.1395,-2.1383,-2.1368,-2.1368,-2.1346,-2.1397,-2.1634,-2.1957,-2.2181,-2.2317,-2.2274,-2.2213,-2.2228,-2.2252,-2.2324,-2.2342,-1.9369,-1.9737,-1.9937,-2.0058,-2.0162,-2.0216,-2.0597,-2.1116,-2.1561,-2.241,-2.3439,-2.4104,-2.4843,-2.5456,-2.5599,-2.5517,-2.5314,-2.5263,-2.5118,-2.4933,-2.4784,-2.4665,-2.4521,-2.4415,-2.4325,-2.4333,-2.4351,-2.4466,-2.4831,-2.5456,-2.6099,-2.6438,-2.6633,-2.6205,-2.5554,-2.5052,-2.4498,-2.3519,-2.3083,-2.2854,-2.2858,-2.2915,-2.2988,-2.3068,-2.3091,-2.312,-2.3243,-2.3249,-2.3236,-2.3298,-2.332,-2.3303,-2.3289,-2.328,-2.3253,-2.3221,-2.3227,-2.3331,-2.3697,-2.3896,-2.4026,-2.3931,-2.3786,-2.3608,-2.3471,-2.3361,-2.3275,-2.3141,-2.3017,-2.2946,-2.288,-2.2712,-2.2565,-2.2434,-2.2317,-2.215,-2.1968,-2.1778,-2.1592,-2.1403,-2.1218,-2.103,-2.1232,-2.1401,-2.1554,-2.1744,-2.1702,-2.1582,-2.1452,-2.129,-2.1301,-2.1494,-2.1447,-2.0975,-2.0606,-2.0549,-2.0291,-2.0323,-2.0506,-2.0593,-2.0591,-2.0581,-2.0581,-2.0571,-2.0512,-2.063,-2.0878,-2.1235,-2.1584,-2.1404,-2.1333,-2.1516,-2.1604,-2.168,-2.171,-1.839,-1.85,-1.9161,-1.9435,-1.9479,-1.953,-1.9625,-1.9833,-2.0467,-2.0984,-2.1734,-2.2855,-2.3958,-2.4404,-2.4521,-2.444,-2.431,-2.4101,-2.3968,-2.3849,-2.3744,-2.3651,-2.3529,-2.3384,-2.3297,-2.3333,-2.3333,-2.3384,-2.3514,-2.3846,-2.449,-2.5086,-2.5378,-2.4631,-2.3955,-2.3498,-2.2963,-2.2215,-2.1845,-2.1906,-2.1967,-2.2023,-2.2096,-2.2233,-2.2277,-2.2277,-2.2277,-2.231,-2.2356,-2.2461,-2.2531,-2.2539,-2.2504,-2.2487,-2.2434,-2.2371,-2.2317,-2.2381,-2.2514,-2.3005,-2.3265,-2.3162,-2.3001,-2.2837,-2.2677,-2.26,-2.2512,-2.2388,-2.2271,-2.2214,-2.211,-2.1948,-2.1799,-2.1703,-2.1546,-2.1356,-2.1164,-2.0991,-2.0805,-2.0624,-2.0449,-2.0265,-2.0154,-2.0353,-2.0708,-2.0902,-2.0822,-2.0732,-2.0601,-2.0442,-2.0314,-2.0381,-2.057,-2.0193,-1.9479,-1.9343,-1.9512,-1.9557,-1.9624,-1.9735,-1.9795,-1.9782,-1.9803,-1.9775,-1.9767,-1.9767,-1.9803,-2.0181,-2.043,-2.0409,-2.049,-2.0781,-2.0878,-2.0862,-2.0902,-1.7787,-1.7841,-1.8114,-1.8507,-1.8912,-1.8921,-1.9004,-1.9108,-1.9416,-2.0084,-2.0958,-2.2411,-2.324,-2.3426,-2.3478,-2.3427,-2.3289,-2.3209,-2.3039,-2.286,-2.2792,-2.2663,-2.2519,-2.2427,-2.2335,-2.2374,-2.2335,-2.2342,-2.2427,-2.2656,-2.286,-2.3368,-2.4039,-2.3498,-2.2797,-2.1945,-2.1328,-2.1141,-2.0943,-2.1031,-2.1094,-2.1165,-2.1275,-2.1399,-2.1399,-2.1422,-2.1466,-2.1494,-2.1554,-2.1614,-2.1728,-2.1736,-2.1706,-2.1652,-2.1601,-2.1527,-2.1497,-2.1444,-2.1521,-2.2044,-2.2436,-2.2275,-2.2169,-2.2065,-2.1894,-2.1832,-2.1744,-2.1625,-2.1527,-2.1444,-2.1329,-2.1173,-2.1007,-2.0902,-2.0765,-2.056,-2.0392,-2.0204,-2.0047,-1.9907,-1.9722,-1.9543,-1.9434,-1.9361,-1.9702,-2.0042,-1.9957,-1.9844,-1.9737,-1.963,-1.9522,-1.953,-1.9708,-1.945,-1.8715,-1.8728,-1.8844,-1.8858,-1.879,-1.8909,-1.8997,-1.8966,-1.8959,-1.8966,-1.8959,-1.8945,-1.9013,-1.9192,-1.9397,-1.9594,-1.9861,-2.0196,-2.0189,-2.0058,-2.0085,-1.7256,-1.7269,-1.731,-1.7673,-1.8226,-1.8266,-1.8344,-1.8475,-1.8475,-1.9237,-2.0578,-2.1762,-2.2407,-2.2515,-2.2572,-2.2512,-2.242,-2.2381,-2.2196,-2.2063,-2.1921,-2.1834,-2.1684,-2.1582,-2.1541,-2.1499,-2.1506,-2.1554,-2.1657,-2.1793,-2.2009,-2.2282,-2.257,-2.2249,-2.158,-2.0504,-1.9945,-2.0035,-2.0112,-2.0258,-2.0319,-2.0429,-2.0545,-2.0638,-2.0671,-2.0663,-2.0714,-2.0756,-2.0797,-2.0821,-2.0886,-2.0934,-2.0902,-2.0862,-2.0797,-2.0764,-2.0739,-2.0697,-2.0853,-2.1197,-2.162,-2.1505,-2.1366,-2.1259,-2.1158,-2.1079,-2.0951,-2.0846,-2.0723,-2.0632,-2.0573,-2.0405,-2.0261,-2.0185,-2.0004,-1.9829,-1.9636,-1.9471,-1.9339,-1.9169,-1.899,-1.8838,-1.8626,-1.8549,-1.881,-1.9118,-1.9162,-1.9088,-1.9035,-1.8921,-1.8808,-1.8834,-1.8927,-1.8518,-1.8004,-1.7979,-1.7961,-1.8157,-1.8131,-1.8192,-1.8219,-1.8194,-1.814,-1.8159,-1.8159,-1.8133,-1.8173,-1.827,-1.8576,-1.8904,-1.9148,-1.9354,-1.9339,-1.9236,-1.9288,-1.6716,-1.6723,-1.6863,-1.7115,-1.7462,-1.7523,-1.7618,-1.7835,-1.7977,-1.8711,-1.9935,-2.0719,-2.1324,-2.1697,-2.1834,-2.1732,-2.1643,-2.1643,-2.1499,-2.1313,-2.1257,-2.116,-2.1055,-2.0957,-2.0908,-2.0845,-2.0852,-2.097,-2.1039,-2.1166,-2.1319,-2.1369,-2.1512,-2.1318,-2.0676,-1.9691,-1.9279,-1.9413,-1.9442,-1.9574,-1.9675,-1.9747,-1.9854,-1.9975,-2.0018,-2.0038,-2.003,-2.005,-2.0112,-2.0139,-2.0189,-2.0189,-2.0189,-2.0154,-2.0127,-2.0038,-2.0038,-2.0025,-2.0068,-2.0553,-2.0697,-2.0714,-2.0616,-2.054,-2.0465,-2.0371,-2.0208,-2.0124,-2.0019,-1.9907,-1.978,-1.9652,-1.9551,-1.9442,-1.9295,-1.9095,-1.8893,-1.8772,-1.864,-1.8493,-1.8333,-1.8116,-1.7895,-1.7754,-1.7981,-1.818,-1.8312,-1.8326,-1.8293,-1.8175,-1.8082,-1.8123,-1.8192,-1.7922,-1.7511,-1.7121,-1.7093,-1.7341,-1.7449,-1.7449,-1.7455,-1.7427,-1.7414,-1.7353,-1.7312,-1.7325,-1.7304,-1.7269,-1.7572,-1.7885,-1.821,-1.8383,-1.8383,-1.8415,-1.8493,-1.6088,-1.6088,-1.6138,-1.6269,-1.6429,-1.6905,-1.731,-1.7759,-1.8532,-1.9206,-1.9747,-2.0392,-2.0718,-2.0973,-2.1006,-2.1006,-2.0957,-2.0908,-2.0815,-2.0673,-2.0673,-2.0579,-2.0472,-2.0422,-2.0416,-2.0422,-2.0422,-2.0416,-2.0485,-2.0573,-2.0673,-2.0726,-2.0658,-2.0406,-2.0099,-1.948,-1.9133,-1.8852,-1.8874,-1.8943,-1.9079,-1.9161,-1.9243,-1.9398,-1.9406,-1.9406,-1.9442,-1.9464,-1.9486,-1.9515,-1.9566,-1.9625,-1.961,-1.9574,-1.9479,-1.945,-1.9413,-1.9354,-1.9325,-1.9471,-1.9609,-1.9752,-1.9894,-1.9831,-1.9775,-1.9711,-1.961,-1.9486,-1.9398,-1.9281,-1.9147,-1.8959,-1.8853,-1.8784,-1.863,-1.8422,-1.8219,-1.8147,-1.8035,-1.7794,-1.7618,-1.7454,-1.7234,-1.7096,-1.7208,-1.7332,-1.7455,-1.7666,-1.7673,-1.7509,-1.738,-1.7419,-1.7418,-1.7286,-1.7018,-1.6667,-1.6467,-1.6695,-1.6697,-1.6661,-1.6674,-1.6723,-1.6637,-1.6618,-1.6588,-1.6552,-1.6558,-1.6509,-1.6588,-1.6824,-1.7153,-1.7361,-1.7396,-1.7477,-1.7625,-1.557,-1.5564,-1.5564,-1.5676,-1.5948,-1.6553,-1.7112,-1.7754,-1.8821,-1.94,-1.9551,-2.0051,-2.0308,-2.0302,-2.0308,-2.0308,-2.0308,-2.0302,-2.0258,-2.0118,-2.0118,-2.0022,-1.9978,-1.9933,-1.9933,-1.9933,-1.9926,-1.992,-1.9971,-2.0067,-2.0169,-2.0237,-2.0116,-2.0015,-1.975,-1.9269,-1.8859,-1.8615,-1.8595,-1.8475,-1.8592,-1.8669,-1.8753,-1.8836,-1.8882,-1.8927,-1.8912,-1.8898,-1.8966,-1.8966,-1.9026,-1.9093,-1.9078,-1.9019,-1.8966,-1.8929,-1.8846,-1.8791,-1.8721,-1.8577,-1.8755,-1.8891,-1.9042,-1.9154,-1.9101,-1.9056,-1.8981,-1.886,-1.8777,-1.8616,-1.8461,-1.8312,-1.8194,-1.8168,-1.7962,-1.772,-1.7585,-1.7503,-1.7338,-1.7144,-1.6976,-1.6808,-1.6601,-1.6515,-1.646,-1.6546,-1.6637,-1.6801,-1.7005,-1.6873,-1.671,-1.6742,-1.678,-1.6713,-1.6485,-1.6164,-1.6028,-1.6051,-1.602,-1.6026,-1.5988,-1.6082,-1.5963,-1.5881,-1.5913,-1.5907,-1.583,-1.5824,-1.585,-1.5932,-1.6107,-1.6262,-1.6346,-1.6615,-1.6837,-1.5062,-1.5114,-1.5062,-1.543,-1.5986,-1.6479,-1.7086,-1.7799,-1.8616,-1.9039,-1.9077,-1.9565,-1.9798,-1.9741,-1.9753,-1.9805,-1.9805,-1.9798,-1.9708,-1.9662,-1.961,-1.9512,-1.9466,-1.9414,-1.9466,-1.942,-1.9466,-1.9552,-1.961,-1.9662,-1.9823,-1.9933,-1.994,-1.986,-1.9515,-1.9146,-1.8839,-1.8694,-1.8378,-1.8316,-1.8403,-1.8296,-1.8347,-1.8425,-1.8471,-1.8471,-1.8503,-1.8496,-1.8503,-1.851,-1.8517,-1.8517,-1.8478,-1.8464,-1.8464,-1.8425,-1.8365,-1.8254,-1.8182,-1.8075,-1.7955,-1.8088,-1.8312,-1.8468,-1.8546,-1.8436,-1.8351,-1.8273,-1.8154,-1.7988,-1.7787,-1.7707,-1.7632,-1.7475,-1.7317,-1.7144,-1.7005,-1.6837,-1.6667,-1.6503,-1.6324,-1.6194,-1.6026,-1.5901,-1.5856,-1.5863,-1.5944,-1.602,-1.6182,-1.6318,-1.6194,-1.6088,-1.6131,-1.618,-1.5943,-1.567,-1.5626,-1.5629,-1.554,-1.5501,-1.5513,-1.5424,-1.5334,-1.5295,-1.5255,-1.5255,-1.5204,-1.5153,-1.5142,-1.5187,-1.5316,-1.5517,-1.5742,-1.5922,-1.6169,-1.4713,-1.4759,-1.4851,-1.5185,-1.5742,-1.664,-1.736,-1.7948,-1.8606,-1.8881,-1.9037,-1.9172,-1.9239,-1.9239,-1.9239,-1.9233,-1.9233,-1.9239,-1.9198,-1.9198,-1.9139,-1.9152,-1.9099,-1.9099,-1.9099,-1.9146,-1.9192,-1.9239,-1.9291,-1.935,-1.9414,-1.9571,-1.9668,-1.9666,-1.956,-1.9259,-1.9106,-1.8868,-1.8439,-1.8356,-1.8267,-1.814,-1.816,-1.8118,-1.8103,-1.8097,-1.8076,-1.8076,-1.8083,-1.8076,-1.8076,-1.8076,-1.8083,-1.8083,-1.8083,-1.8043,-1.7956,-1.7828,-1.77,-1.7625,-1.7549,-1.7454,-1.7564,-1.7713,-1.7834,-1.7875,-1.7787,-1.772,-1.7598,-1.7468,-1.7297,-1.7179,-1.7096,-1.6928,-1.6723,-1.6546,-1.6404,-1.6232,-1.607,-1.5844,-1.5712,-1.5579,-1.5412,-1.5367,-1.5328,-1.5295,-1.534,-1.5322,-1.54,-1.5617,-1.5674,-1.5564,-1.5543,-1.5584,-1.551,-1.5248,-1.5226,-1.5198,-1.5102,-1.5011,-1.4886,-1.484,-1.4748,-1.4697,-1.4691,-1.4651,-1.4656,-1.4605,-1.4547,-1.4496,-1.4582,-1.4846,-1.5119,-1.5316,-1.5468,-1.4343,-1.4375,-1.466,-1.5158,-1.5941,-1.6922,-1.7525,-1.7855,-1.8288,-1.8577,-1.8667,-1.8619,-1.8679,-1.8614,-1.8614,-1.8614,-1.8619,-1.8614,-1.8614,-1.8667,-1.8721,-1.8732,-1.8792,-1.8839,-1.8833,-1.8875,-1.8922,-1.8916,-1.8975,-1.904,-1.9105,-1.9152,-1.9303,-1.9442,-1.9403,-1.9371,-1.9339,-1.9149,-1.8838,-1.8621,-1.8418,-1.8215,-1.8066,-1.8022,-1.7928,-1.7814,-1.7767,-1.7781,-1.776,-1.7747,-1.774,-1.7706,-1.772,-1.7679,-1.7631,-1.7584,-1.7508,-1.7419,-1.733,-1.7247,-1.7128,-1.7044,-1.7002,-1.7067,-1.7192,-1.7275,-1.7282,-1.7247,-1.7109,-1.6976,-1.6814,-1.6686,-1.6552,-1.6466,-1.6201,-1.5988,-1.5806,-1.5668,-1.5451,-1.5277,-1.5102,-1.4971,-1.4834,-1.4834,-1.4834,-1.484,-1.4794,-1.4783,-1.4869,-1.5,-1.5096,-1.5074,-1.5,-1.5023,-1.4897,-1.4823,-1.4715,-1.4674,-1.4645,-1.4512,-1.4389,-1.4249,-1.4192,-1.414,-1.4082,-1.4087,-1.4093,-1.4087,-1.4035,-1.3988,-1.3941,-1.4113,-1.4387,-1.4588,-1.4783,-1.3973,-1.4021,-1.4524,-1.5367,-1.6332,-1.7066,-1.744,-1.7479,-1.7799,-1.803,-1.809,-1.809,-1.809,-1.8139,-1.8133,-1.8133,-1.8139,-1.8133,-1.8139,-1.8078,-1.8247,-1.8307,-1.8362,-1.8464,-1.8404,-1.8506,-1.8554,-1.8542,-1.8608,-1.8673,-1.8732,-1.8786,-1.8887,-1.9034,-1.9156,-1.9288,-1.9329,-1.9384,-1.9088,-1.886,-1.878,-1.855,-1.8288,-1.8272,-1.8004,-1.7653,-1.7573,-1.752,-1.7474,-1.7467,-1.7447,-1.7413,-1.7343,-1.7308,-1.7212,-1.7164,-1.7086,-1.7051,-1.6954,-1.6911,-1.6791,-1.6712,-1.6675,-1.6614,-1.665,-1.682,-1.6869,-1.6784,-1.6693,-1.6515,-1.6392,-1.6262,-1.6132,-1.5951,-1.573,-1.5552,-1.5367,-1.5142,-1.4915,-1.4691,-1.4558,-1.4425,-1.4321,-1.4321,-1.4274,-1.4326,-1.4326,-1.428,-1.4321,-1.4455,-1.4512,-1.4518,-1.4471,-1.443,-1.4441,-1.4316,-1.4138,-1.4097,-1.4118,-1.4087,-1.3947,-1.3815,-1.3678,-1.3626,-1.3573,-1.3573,-1.3573,-1.3573,-1.3525,-1.3478,-1.3478,-1.3472,-1.3658,-1.3894,-1.4087,-1.3673,-1.3804,-1.4787,-1.5584,-1.6197,-1.6722,-1.6982,-1.6982,-1.7043,-1.7373,-1.7767,-1.7761,-1.7761,-1.7761,-1.7755,-1.7761,-1.7761,-1.77,-1.7767,-1.7767,-1.7877,-1.7865,-1.7865,-1.7969,-1.7969,-1.7969,-1.8018,-1.8176,-1.835,-1.8416,-1.847,-1.8619,-1.8667,-1.8721,-1.8881,-1.8999,-1.918,-1.9347,-1.9255,-1.9095,-1.9089,-1.8768,-1.8428,-1.8455,-1.8229,-1.7983,-1.7853,-1.7685,-1.7407,-1.7154,-1.7064,-1.7044,-1.7009,-1.7009,-1.6967,-1.6967,-1.6833,-1.6712,-1.6663,-1.6571,-1.6491,-1.6368,-1.6324,-1.6225,-1.6256,-1.6399,-1.6442,-1.6355,-1.6225,-1.6094,-1.5963,-1.5836,-1.5748,-1.5519,-1.5295,-1.5108,-1.4926,-1.4605,-1.4326,-1.4192,-1.401,-1.391,-1.3852,-1.3805,-1.3758,-1.3758,-1.3758,-1.3752,-1.3747,-1.3836,-1.3941,-1.3994,-1.392,-1.3878,-1.3905,-1.3899,-1.3721,-1.3611,-1.3584,-1.3595,-1.3557,-1.343,-1.3301,-1.3205,-1.3109,-1.3104,-1.3104,-1.306,-1.306,-1.3012,-1.2958,-1.3002,-1.2949,-1.3089,-1.3377,-1.3542,-1.3887,-1.4951,-1.5654,-1.6137,-1.6532,-1.6699,-1.6694,-1.6756,-1.6976,-1.7256,-1.7312,-1.7312,-1.7318,-1.7318,-1.7318,-1.7323,-1.7318,-1.7262,-1.7262,-1.7423,-1.7412,-1.7412,-1.7523,-1.7634,-1.7639,-1.775,-1.792,-1.809,-1.8096,-1.8139,-1.8242,-1.8242,-1.8356,-1.8518,-1.8625,-1.8833,-1.9034,-1.9152,-1.9218,-1.9271,-1.8925,-1.8767,-1.8783,-1.8582,-1.8373,-1.8226,-1.8022,-1.776,-1.7261,-1.7012,-1.6803,-1.6748,-1.6712,-1.6669,-1.6577,-1.6497,-1.6461,-1.6368,-1.6324,-1.6231,-1.6144,-1.6026,-1.5952,-1.5881,-1.6019,-1.6019,-1.5931,-1.5869,-1.5736,-1.5647,-1.5564,-1.5424,-1.5244,-1.4926,-1.4651,-1.4368,-1.4087,-1.3899,-1.3752,-1.361,-1.3557,-1.3462,-1.3462,-1.3462,-1.3462,-1.3415,-1.3415,-1.3362,-1.3319,-1.3425,-1.3472,-1.3404,-1.3505,-1.3636,-1.3525,-1.3341,-1.3241,-1.315,-1.3122,-1.3094,-1.3007,-1.2871,-1.2769,-1.2725,-1.2676,-1.2627,-1.2627,-1.2529,-1.2524,-1.2475,-1.2431,-1.2426,-1.2421,-1.2657,-1.3525,-1.4098,-1.4981,-1.5634,-1.6083,-1.6353,-1.6519,-1.6524,-1.6648,-1.6643,-1.6648,-1.6699,-1.6699,-1.6818,-1.6823,-1.6818,-1.6812,-1.6925,-1.6869,-1.6864,-1.6965,-1.7022,-1.7128,-1.7229,-1.7301,-1.7362,-1.7473,-1.7529,-1.759,-1.7651,-1.7711,-1.7706,-1.781,-1.7914,-1.809,-1.8253,-1.8458,-1.8625,-1.8839,-1.8987,-1.9037,-1.9092,-1.9096,-1.9037,-1.8881,-1.8624,-1.8567,-1.8493,-1.8257,-1.7689,-1.7137,-1.676,-1.651,-1.6448,-1.6362,-1.6318,-1.6231,-1.6188,-1.6188,-1.6156,-1.6057,-1.5944,-1.5808,-1.5726,-1.5653,-1.5626,-1.5582,-1.5531,-1.5474,-1.5468,-1.5379,-1.5289,-1.5153,-1.4966,-1.4605,-1.4233,-1.3952,-1.3668,-1.3568,-1.3415,-1.3324,-1.3223,-1.3175,-1.3175,-1.3127,-1.3122,-1.3122,-1.3117,-1.3074,-1.3035,-1.3045,-1.3045,-1.3035,-1.3147,-1.3332,-1.32,-1.3021,-1.2929,-1.2842,-1.2759,-1.2671,-1.2622,-1.2524,-1.2426,-1.2377,-1.2278,-1.2229,-1.2175,-1.213,-1.2031,-1.2031,-1.2031,-1.1932,-1.1927,-1.1977,-1.3656,-1.448,-1.5024,-1.5496,-1.5931,-1.6029,-1.6029,-1.6024,-1.6082,-1.6087,-1.6139,-1.6139,-1.6306,-1.6756,-1.6812,-1.6756,-1.6643,-1.6699,-1.6756,-1.6812,-1.6751,-1.6807,-1.6858,-1.6965,-1.6925,-1.6982,-1.7032,-1.7027,-1.7195,-1.7323,-1.7434,-1.7529,-1.7651,-1.7706,-1.7761,-1.792,-1.8078,-1.8302,-1.847,-1.8619,-1.8827,-1.8972,-1.9304,-1.9354,-1.9374,-1.9077,-1.8902,-1.8876,-1.8518,-1.7953,-1.737,-1.6832,-1.6497,-1.6324,-1.6268,-1.6144,-1.6057,-1.6044,-1.6007,-1.5931,-1.583,-1.578,-1.5656,-1.5517,-1.5463,-1.5379,-1.534,-1.53,-1.5244,-1.5244,-1.5204,-1.5062,-1.492,-1.4656,-1.4343,-1.3999,-1.371,-1.352,-1.3372,-1.3243,-1.3162,-1.306,-1.2953,-1.291,-1.2861,-1.2856,-1.2759,-1.2759,-1.2754,-1.271,-1.2666,-1.2662,-1.2662,-1.292,-1.3159,-1.2886,-1.2706,-1.2618,-1.2524,-1.2421,-1.2323,-1.2274,-1.2175,-1.2076,-1.1972,-1.1823,-1.1823,-1.1773,-1.1723,-1.1628,-1.1628,-1.1578,-1.1528,-1.1477,-1.1477]}]]